GFSGBSN_250_rhum_000.txt.gz
RH
81 76 100 84 97 75 93 63 42 53 54 66 30 41 60 46 46 49 55 58 52 61 76 72 91 100 100 100 83 38 24 18 22 16 14 20 13 15 24 37 40 45 48 38 42 78 92
100 92 75 78 93 76 91 69 49 56 66 77 35 43 69 53 48 56 63 60 60 62 64 82 94 99 100 76 69 37 30 25 17 19 15 17 16 15 21 36 38 53 52 42 40 51 61
100 100 84 84 81 76 89 70 56 57 74 86 46 53 86 58 57 63 72 58 56 80 95 100 92 92 83 95 64 40 21 15 19 17 16 15 17 12 19 35 40 48 47 48 42 42 43
100 100 100 99 88 87 81 95 81 68 73 79 59 52 89 58 68 68 69 56 58 86 100 100 100 89 96 80 48 27 8 9 13 15 15 12 13 11 16 31 39 42 42 48 45 42 40
92 100 100 100 100 86 73 81 82 76 81 74 64 54 94 58 77 78 61 60 78 91 93 96 89 94 81 48 22 9 4 2 6 10 12 11 10 11 16 27 34 38 38 49 44 41 43
44 83 100 100 100 98 89 92 65 66 80 74 63 60 92 60 82 82 65 67 76 92 100 100 100 82 34 33 16 4 2 1 2 6 8 10 9 11 15 24 24 36 39 44 40 46 48
30 52 98 100 100 100 91 100 82 94 77 75 70 72 95 71 83 81 66 60 79 95 100 91 100 45 27 20 9 2 1 1 2 6 8 10 9 9 15 25 29 38 52 41 35 44 46
18 33 76 100 100 100 90 90 86 99 71 78 80 84 92 81 85 76 61 83 83 100 73 100 63 20 17 13 5 2 1 2 3 7 9 10 9 11 20 28 30 43 45 36 28 41 44
32 20 39 81 94 99 98 97 87 97 71 87 76 98 96 82 91 68 78 87 81 94 70 96 42 21 18 8 3 2 2 2 5 7 10 8 14 12 22 30 30 38 36 30 27 40 47
29 27 22 53 93 96 100 95 78 100 77 88 82 98 99 84 97 63 97 93 94 86 80 71 36 25 14 6 3 2 2 3 6 9 13 11 13 13 21 28 30 38 35 24 27 40 50
21 28 23 31 51 94 98 100 84 99 85 86 86 99 98 88 86 69 100 84 95 97 82 44 26 17 10 6 3 2 2 4 7 12 11 13 12 16 23 28 31 38 34 20 24 38 51
16 22 24 16 28 61 99 100 99 94 89 89 94 95 96 100 70 78 98 75 95 96 73 44 21 12 6 5 4 3 3 6 10 15 12 16 15 20 28 28 32 36 28 20 24 39 46
16 19 22 17 21 49 91 100 100 96 91 90 96 94 97 98 65 92 82 80 93 80 52 30 17 7 4 4 4 4 4 10 14 12 15 16 13 20 32 28 33 32 25 22 24 35 43
14 18 19 16 27 58 97 100 100 91 90 89 99 96 100 87 66 100 80 82 84 80 44 28 16 8 5 4 4 5 7 13 15 13 16 13 14 22 36 27 30 28 27 25 27 40 45
12 14 15 14 33 64 99 100 93 85 96 85 100 92 100 76 72 96 84 69 76 70 46 24 14 7 6 4 4 5 12 16 13 14 16 12 17 22 31 26 27 24 26 28 32 44 46
12 11 13 16 41 69 100 100 86 77 96 91 100 98 99 73 85 86 95 66 60 53 47 24 17 11 10 8 7 8 14 15 11 15 13 12 16 21 25 25 28 28 29 30 32 46 49
10 12 13 20 48 76 100 100 81 74 99 96 99 100 93 71 94 81 91 56 52 44 45 36 22 13 18 15 14 16 17 13 13 15 14 14 16 22 27 25 28 28 28 32 35 42 46
8 13 15 31 49 80 100 100 73 88 98 100 91 100 90 66 95 89 99 56 53 44 37 43 34 21 19 26 20 19 18 16 19 19 18 15 17 21 30 26 24 26 26 28 32 38 44
8 14 15 33 51 72 100 99 77 98 96 100 95 100 94 69 100 96 100 54 58 43 48 43 41 39 27 25 29 25 22 19 21 20 18 18 18 21 28 22 20 24 26 29 34 37 38
9 14 14 34 44 67 90 75 86 100 95 100 100 100 97 72 100 98 100 53 56 60 53 56 40 32 38 41 35 28 22 24 24 22 17 16 17 20 25 38 36 29 26 25 27 30 33
10 15 16 29 40 51 78 80 94 100 96 100 100 100 99 72 99 87 100 58 50 57 59 50 54 40 34 29 26 22 21 19 21 21 18 16 17 18 22 28 30 32 29 23 22 23 24
11 14 16 28 38 52 75 88 100 100 96 100 100 100 95 93 95 100 92 72 60 41 56 46 48 40 33 24 18 15 15 15 16 17 21 18 18 18 20 22 28 34 35 31 26 24 31
12 14 16 29 37 56 87 90 100 100 99 100 100 100 100 83 100 100 83 74 79 61 55 52 57 34 31 30 23 18 15 12 11 14 15 18 18 18 19 20 22 29 38 38 37 34 35
11 14 17 32 37 64 87 97 98 100 97 100 100 100 100 98 89 98 94 72 76 93 71 68 68 34 32 34 29 24 21 18 14 12 14 15 16 18 19 19 21 26 28 36 38 37 39
13 15 17 31 40 65 88 94 92 100 94 100 100 99 100 100 85 88 100 69 74 95 99 74 70 59 34 35 35 30 26 22 19 18 15 15 17 16 17 19 19 19 20 23 26 28 30
13 19 26 32 42 66 83 92 90 100 94 100 100 100 100 100 100 87 99 90 69 88 99 98 64 76 72 45 38 42 39 33 29 25 22 19 16 16 17 18 18 17 18 18 19 20 21
13 17 29 29 40 69 89 84 87 99 94 100 99 100 100 100 100 90 92 100 63 94 93 100 100 80 75 78 71 56 55 48 51 48 37 27 25 26 22 24 21 19 21 22 23 26 23
13 16 25 29 46 65 80 76 89 96 98 99 100 100 100 100 100 96 88 100 78 85 100 98 100 98 100 86 81 74 72 61 52 54 47 40 41 43 40 44 40 31 30 30 32 33 32
14 17 25 33 40 64 71 75 86 100 99 96 100 100 100 100 100 93 80 83 90 73 97 100 98 100 96 100 100 100 95 78 67 69 65 60 61 46 43 46 42 40 41 43 48 53 48

GFSGBSN_250_rhum_003.txt.gz
RH
94 91 89 76 91 93 76 87 87 86 68 75 63 48 40 44 94 63 36 46 53 43 40 51 54 49 51 68 85 69 79 79 54 48 28 26 22 20 20 18 18 21 39 44 36 24 26
47 100 97 92 92 93 89 76 84 70 70 66 74 58 48 44 85 85 45 54 63 47 44 55 53 46 50 66 91 81 98 100 90 65 38 27 29 22 19 18 16 22 34 41 38 25 27
44 63 88 100 100 100 100 97 80 85 83 63 82 84 74 43 66 94 53 63 67 53 54 59 53 47 75 100 100 100 100 100 82 80 78 37 27 25 23 19 19 20 25 40 31 31 30
46 32 52 93 100 100 100 100 100 84 67 90 80 100 81 58 51 89 59 67 70 62 67 63 49 61 99 100 98 100 90 72 95 89 79 44 30 26 19 18 20 19 24 35 36 35 33
91 72 45 31 59 100 100 100 100 100 99 74 79 84 78 64 50 85 64 72 75 68 70 59 58 94 86 100 98 94 95 96 97 100 82 45 22 26 21 18 20 20 20 34 32 36 36
99 94 89 51 44 44 89 100 100 100 100 98 80 82 82 73 62 90 73 80 82 68 80 58 80 97 100 100 92 94 100 100 99 91 60 17 10 19 22 16 15 20 22 30 32 34 40
95 100 89 69 46 44 34 80 98 100 100 100 100 91 81 78 70 93 76 79 77 75 77 69 90 82 90 98 100 100 93 90 59 34 10 7 6 13 20 17 18 23 22 28 34 38 43
93 96 89 79 69 44 37 37 67 82 100 89 100 92 78 70 89 96 90 79 73 81 63 72 88 84 99 100 100 69 48 34 24 10 5 3 4 13 19 17 20 25 23 28 35 40 43
90 89 85 79 68 51 39 28 57 80 100 97 97 86 99 72 99 93 96 77 77 81 48 81 80 95 100 87 53 36 24 17 8 3 3 1 5 10 10 15 16 22 24 31 41 38 42
78 73 66 62 62 50 36 38 35 81 99 97 80 98 100 69 98 96 94 82 81 68 50 80 97 96 94 56 31 16 12 8 3 2 1 1 1 4 11 13 15 21 21 29 42 36 49
50 49 52 48 41 33 32 36 32 63 83 83 85 84 98 79 94 100 92 84 89 67 62 62 84 92 73 39 24 10 6 2 2 2 2 1 2 6 13 12 19 28 48 40 34 37 48
24 30 34 24 21 23 29 32 32 43 75 91 96 87 93 88 96 98 94 79 79 74 68 68 93 78 42 22 14 6 3 2 2 2 2 2 7 14 19 18 28 23 32 39 34 36 46
8 8 12 12 12 16 30 30 31 40 67 98 100 96 89 86 100 93 86 76 65 76 65 79 92 42 34 15 8 6 2 2 3 2 4 7 17 20 20 21 32 32 41 42 28 37 46
6 7 9 9 11 14 26 27 29 32 64 96 92 100 86 82 100 96 79 73 68 59 68 91 46 31 16 8 6 5 2 2 3 6 10 18 20 17 20 26 27 37 35 31 24 39 44
6 6 7 8 11 16 24 26 24 30 56 86 71 100 90 98 100 89 85 74 61 57 71 68 31 19 10 6 5 4 3 5 8 10 17 25 20 16 16 26 18 36 37 27 30 46 40
5 5 7 8 10 15 24 26 19 34 73 60 85 98 88 100 100 84 83 68 56 61 66 39 23 12 8 6 6 5 8 14 19 20 26 30 20 29 26 20 29 32 29 27 39 45 35
5 5 6 7 10 16 23 24 19 40 71 53 99 94 96 100 100 99 86 55 59 70 66 37 25 14 10 7 6 7 15 19 23 21 25 32 26 31 24 27 44 30 25 27 43 39 31
5 6 6 7 12 15 24 19 30 61 60 66 100 91 100 100 100 99 91 51 68 70 67 47 37 23 14 9 13 23 22 21 22 25 29 25 31 24 23 30 34 31 34 31 42 38 33
5 5 3 9 12 16 22 23 56 63 58 83 93 97 100 100 100 99 90 58 70 62 62 52 50 40 27 23 22 25 28 27 23 19 17 19 20 21 26 31 30 20 21 25 38 39 35
5 2 2 9 13 18 19 47 58 63 57 87 91 100 100 100 97 98 89 58 76 63 60 64 59 46 42 37 34 29 27 26 18 17 22 25 18 21 24 37 38 32 35 36 38 40 38
4 0 2 8 14 18 26 54 52 58 67 85 91 100 99 100 96 100 90 71 71 70 62 65 60 60 42 46 40 39 32 30 34 35 35 28 22 23 22 34 35 29 29 28 28 35 36
4 0 5 10 14 18 40 42 50 52 72 91 96 100 100 100 99 100 86 72 63 90 60 64 60 50 50 41 33 35 39 36 35 37 43 30 25 24 24 31 38 27 27 30 34 38 38
2 0 6 11 16 24 43 47 47 53 78 84 100 100 100 100 97 100 93 77 58 93 80 56 51 48 42 42 36 29 21 21 23 25 27 27 24 22 23 26 34 34 29 29 31 33 35
1 1 8 13 18 30 45 43 45 60 80 81 100 100 100 100 96 100 98 66 64 82 87 61 43 42 33 35 35 28 26 24 22 21 21 21 16 18 21 22 27 38 36 34 27 27 28
1 2 8 15 21 33 46 41 42 63 81 92 100 100 100 100 100 100 100 70 76 65 87 78 46 38 37 30 29 28 26 21 19 19 20 21 21 18 17 19 21 23 29 34 37 37 39
0 5 8 15 18 32 44 44 46 75 77 100 100 100 98 100 100 96 100 96 84 69 89 92 54 36 39 32 30 27 23 22 22 20 18 18 20 20 19 19 19 20 21 22 25 30 35
2 6 8 15 17 34 41 45 58 84 84 96 100 100 100 100 100 100 98 100 82 97 68 81 73 54 45 42 38 32 27 22 20 19 18 18 20 20 20 20 19 19 20 21 21 22 23
4 6 9 14 17 31 40 46 66 84 78 91 99 100 100 100 99 100 100 100 83 99 94 74 80 74 62 58 46 43 43 38 33 33 31 23 20 19 20 21 20 20 20 21 21 21 21
5 6 9 14 17 31 44 49 68 88 81 93 100 100 100 100 100 100 100 100 96 86 91 99 89 94 84 85 76 71 54 54 50 47 47 50 44 31 26 25 23 23 23 24 24 26 27

GFSGBSN_250_rhum_006.txt.gz
RH
76 25 30 20 52 96 100 100 100 99 100 82 99 79 64 60 68 66 59 51 40 51 56 48 38 46 45 42 44 42 42 41 37 32 39 38 29 23 23 26 17 16 17 19 25 27 23
98 92 34 38 20 59 100 100 100 100 92 72 90 82 73 79 62 80 70 57 49 49 54 58 50 50 52 51 53 47 41 48 45 57 61 54 47 33 26 25 21 21 17 17 20 25 23
100 100 100 61 40 33 83 100 100 100 100 100 93 79 82 73 62 80 74 75 70 55 57 61 57 50 58 64 56 52 42 47 51 66 94 72 76 62 40 26 23 24 19 18 17 19 24
95 100 100 100 93 44 47 68 100 100 100 100 100 100 100 85 86 79 94 100 91 69 62 58 64 57 65 66 67 56 47 82 98 99 96 96 96 100 74 32 28 24 21 18 20 16 22
93 97 100 100 100 100 86 52 64 100 100 100 100 100 100 100 95 91 77 81 80 64 64 58 66 67 74 86 72 60 53 63 65 75 80 84 80 74 52 39 28 23 20 21 20 15 20
89 94 95 100 100 100 97 98 74 48 62 100 100 100 100 100 100 100 99 77 92 73 74 62 67 69 80 97 84 74 85 90 83 82 93 98 98 99 84 77 37 30 25 25 23 18 18
94 89 84 88 95 100 100 100 98 89 74 49 54 87 100 100 100 100 100 86 87 76 66 72 64 81 85 96 86 67 72 87 94 100 100 100 100 91 100 85 66 24 23 22 21 20 20
96 91 86 84 86 88 97 97 100 100 94 88 64 53 65 100 100 100 85 97 83 78 65 74 74 95 94 89 70 72 76 90 100 100 98 91 80 100 80 59 32 16 19 21 18 23 18
83 87 86 76 82 77 79 89 97 100 100 99 94 57 43 79 100 100 75 99 91 78 63 70 82 100 90 66 69 79 87 96 96 92 90 60 69 28 18 21 21 14 16 24 19 23 23
64 67 64 71 73 70 72 86 91 95 100 97 84 58 53 41 81 79 90 97 85 86 54 71 99 100 78 63 70 78 88 73 56 53 35 18 24 17 13 9 10 19 22 27 22 23 22
64 62 52 54 47 56 58 70 72 78 86 81 74 53 55 45 76 80 100 94 99 94 56 67 96 71 59 60 73 78 58 30 27 20 13 14 14 10 7 10 10 27 26 29 51 38 30
28 24 27 36 37 30 34 51 58 59 75 71 56 53 58 38 64 89 100 85 94 76 74 82 72 51 53 76 78 51 32 20 16 9 8 7 4 3 3 5 8 36 27 31 31 27 29
6 7 7 8 9 10 16 32 40 42 58 59 39 56 51 33 72 98 100 98 92 87 86 79 59 52 70 65 43 24 14 14 8 5 3 2 2 2 2 4 15 13 21 24 32 44 48
5 5 5 6 6 8 11 14 17 27 39 41 34 53 36 50 92 97 98 100 92 84 99 66 56 69 61 35 22 12 10 7 4 2 2 2 1 2 4 8 13 20 24 23 26 19 23
4 4 4 5 6 7 10 10 13 16 25 33 34 47 35 70 98 100 100 100 88 100 75 61 69 56 32 18 9 8 7 4 3 3 3 2 3 7 14 19 27 31 29 33 54 27 40
3 4 4 4 5 6 8 10 11 14 24 25 38 38 48 75 100 98 100 100 98 93 65 78 69 38 22 9 7 6 5 3 4 4 3 5 18 20 24 31 61 47 45 93 72 31 31
3 3 4 4 5 6 7 9 11 18 18 25 36 32 64 70 88 100 100 96 97 72 73 83 72 36 14 8 7 5 4 5 7 7 10 21 29 49 54 47 45 55 66 55 55 36 44
2 3 3 4 5 7 8 10 12 14 18 26 30 46 66 69 98 100 100 96 96 72 91 91 63 37 22 9 8 8 6 16 29 36 39 47 52 67 93 89 76 54 34 30 31 33 38
2 2 3 4 5 7 8 10 12 16 23 31 29 64 62 85 100 100 100 93 74 78 97 94 63 49 41 39 21 14 24 47 43 46 91 81 60 72 100 85 75 52 49 26 32 43 41
2 3 4 5 6 7 9 11 13 21 30 26 47 62 81 100 100 100 100 88 71 81 98 94 72 63 63 62 31 30 45 72 52 66 88 100 82 89 99 74 62 48 31 29 24 37 37
3 3 4 6 6 7 9 12 18 25 23 32 53 75 96 100 100 100 97 76 71 91 95 88 76 75 70 78 39 35 40 66 63 57 72 98 80 63 61 43 28 29 21 20 37 43 42
3 4 4 6 6 8 12 16 19 17 23 49 65 77 99 100 100 100 94 67 78 100 95 69 74 83 73 57 60 33 38 52 47 53 61 60 48 40 44 31 32 26 20 29 32 29 32
4 4 5 6 4 10 10 13 21 20 37 63 70 93 95 100 100 100 98 74 77 98 91 70 74 78 72 60 58 50 42 32 31 29 29 26 25 19 22 25 27 26 30 30 37 41 48
4 4 5 4 5 10 11 16 18 30 61 68 76 88 97 100 100 100 100 91 71 100 94 60 60 68 57 53 50 49 45 42 39 38 34 26 25 22 23 24 24 30 28 34 35 37 46
4 4 5 2 6 10 12 12 19 52 61 58 80 86 99 100 100 100 100 93 75 80 100 74 54 53 46 44 40 35 36 39 41 43 38 38 37 33 27 27 27 30 34 34 33 35 41
3 4 4 1 7 10 15 18 27 57 55 65 73 84 99 100 100 99 100 97 76 80 100 90 56 47 44 36 36 36 37 41 39 36 40 43 37 35 34 30 27 29 35 43 44 34 36
3 5 2 2 9 12 15 18 41 60 53 64 72 85 100 100 100 97 100 100 88 82 95 99 76 61 49 38 31 29 30 29 25 25 27 28 30 30 28 28 30 28 30 36 46 48 43
3 5 2 3 9 14 14 18 52 54 54 63 68 91 100 100 99 100 100 100 85 90 96 93 89 73 57 43 39 33 28 26 25 24 23 22 23 24 23 22 23 24 27 26 29 34 39
3 4 2 3 9 13 18 22 52 59 55 65 74 92 100 100 99 100 100 100 99 96 94 77 93 91 84 64 43 43 36 28 23 23 23 25 24 24 23 24 23 22 21 23 25 25 25

GFSGBSN_250_rhum_009.txt.gz
RH
48 89 90 67 63 51 30 22 51 80 90 100 100 100 100 100 96 99 100 100 93 59 63 57 58 57 49 41 45 47 40 38 39 37 37 34 30 26 24 22 22 23 19 18 17 15 17
43 72 95 85 74 89 62 32 32 74 99 100 100 100 100 100 100 99 100 75 82 74 66 70 69 60 55 54 48 47 54 48 49 45 38 40 35 28 28 26 25 26 22 20 20 18 16
42 78 97 97 85 84 98 79 40 47 76 100 100 100 100 100 100 100 100 100 99 92 78 74 76 84 98 59 52 50 51 58 52 55 49 48 36 32 37 33 36 35 28 24 25 22 20
41 68 83 98 96 97 87 95 99 44 46 92 100 100 100 100 100 100 100 96 97 75 57 61 66 86 100 84 64 54 49 59 56 57 59 52 38 35 37 39 46 42 35 29 36 33 24
35 47 81 98 96 92 97 95 91 99 64 48 62 100 100 100 100 100 100 100 100 100 87 69 65 71 97 96 74 61 53 61 63 60 63 58 47 49 55 61 83 72 52 38 38 36 24
34 51 58 72 93 89 98 98 88 93 90 85 60 62 83 100 100 100 100 100 100 100 100 100 80 85 85 100 87 76 65 70 70 70 72 70 58 59 65 65 62 56 46 46 50 42 26
37 50 62 66 72 79 82 90 95 91 86 86 84 87 58 58 85 94 100 100 100 100 100 100 100 100 90 99 85 74 64 70 73 79 89 66 60 66 78 83 75 68 51 39 43 39 24
46 50 57 57 56 72 79 84 79 81 90 91 90 81 84 86 74 63 68 80 98 100 100 100 98 100 93 100 93 73 64 69 74 90 81 74 77 89 85 74 67 70 58 54 53 39 26
52 52 52 60 55 55 59 69 75 83 84 84 90 93 98 86 88 92 84 77 62 72 87 100 100 80 86 94 85 75 58 70 85 80 75 70 77 76 74 72 69 67 51 58 55 48 28
74 79 74 65 48 44 58 52 62 61 62 72 78 77 81 86 93 90 84 84 65 45 44 99 100 92 99 98 81 59 63 71 77 63 62 60 73 75 67 62 65 62 86 85 52 47 35
48 43 34 33 40 49 52 46 49 69 73 62 69 68 65 82 89 87 86 83 63 34 37 78 80 95 100 100 80 68 70 77 66 61 55 56 69 61 43 65 48 61 50 55 54 47 32
27 21 14 11 14 20 34 40 45 50 64 67 69 76 66 89 82 88 90 72 60 38 47 65 80 100 100 88 61 66 77 57 51 43 33 35 30 29 27 28 23 35 29 35 36 41 29
8 5 5 5 6 7 10 14 22 41 50 56 69 69 64 75 78 92 84 56 46 49 69 73 97 94 74 61 66 71 46 34 30 23 16 12 14 13 14 15 15 14 21 25 26 36 48
4 4 4 4 4 4 6 7 10 17 30 45 50 60 55 71 76 74 69 47 45 62 76 94 83 76 65 73 72 41 35 22 14 10 9 9 7 5 6 6 10 13 18 24 44 70 89
4 3 3 3 3 4 5 6 8 9 14 28 34 31 38 54 62 68 47 47 61 72 97 100 100 81 88 68 34 35 15 9 8 7 6 4 3 2 3 3 6 11 15 51 96 100 56
3 2 2 2 3 3 4 5 7 8 10 14 17 17 27 52 53 50 48 62 75 94 100 100 96 92 73 41 34 16 10 7 7 4 3 3 2 2 2 3 4 15 32 77 100 100 85
2 2 2 2 2 3 4 4 6 8 11 15 18 21 34 42 37 45 63 74 96 100 97 100 98 83 61 39 30 9 6 6 4 3 4 3 3 2 4 5 12 17 55 100 100 100 95
2 2 2 2 3 3 4 5 7 9 12 16 16 23 34 31 41 65 73 94 100 99 100 100 85 75 52 32 14 11 9 6 6 9 22 24 8 15 15 36 36 96 100 100 100 100 77
2 2 2 3 3 4 5 6 7 10 15 15 18 25 22 37 54 76 85 100 100 100 100 88 97 57 45 32 35 20 10 13 34 75 100 100 100 100 100 100 100 100 100 100 100 100 82
2 2 2 3 3 4 5 7 9 9 11 13 14 18 28 45 82 84 100 100 100 100 100 87 79 75 84 48 54 27 20 58 46 100 100 100 100 100 100 100 100 100 100 100 100 100 71
2 2 2 4 4 4 6 7 8 8 11 14 18 28 45 86 74 100 100 99 100 100 95 100 77 92 100 87 83 30 53 78 83 100 100 100 100 100 100 100 100 100 100 100 100 97 45
2 2 3 5 5 5 7 7 9 10 14 18 30 33 69 66 100 100 100 94 100 94 96 100 85 99 100 100 89 52 49 80 79 85 100 100 100 100 100 100 100 100 100 100 88 36 26
3 2 3 5 6 6 8 9 10 13 19 34 28 51 68 92 100 100 87 100 99 94 93 100 92 94 100 100 99 81 57 69 71 77 97 89 100 100 100 99 90 92 73 58 24 20 20
3 3 4 5 6 7 7 9 10 14 23 28 34 60 74 97 100 94 94 100 91 98 92 100 100 93 97 100 100 100 72 50 64 54 50 72 74 86 74 77 72 50 32 24 21 20 21
3 3 3 5 6 7 6 7 13 24 30 26 48 64 97 100 100 99 93 100 85 99 100 100 100 95 89 97 98 100 99 76 50 51 56 60 55 65 78 61 58 51 25 19 21 17 28
4 3 3 5 6 6 4 10 20 25 23 34 58 82 100 100 100 98 100 100 89 91 100 100 99 79 65 75 76 93 99 93 95 70 49 46 47 64 56 50 52 43 31 26 21 24 37
3 3 3 5 6 5 5 14 23 21 21 44 69 96 100 100 97 100 100 100 87 90 100 100 98 81 62 48 55 48 58 64 61 58 54 51 49 42 47 53 51 34 28 24 25 41 49
3 3 3 5 5 3 9 16 23 19 31 47 68 100 99 97 100 100 100 100 93 97 100 99 100 84 70 45 37 41 46 44 42 48 54 50 49 44 36 30 31 33 31 24 28 37 48
3 3 3 5 5 3 12 19 24 21 44 59 81 100 95 91 100 100 100 100 93 86 92 96 100 98 83 58 44 34 32 33 33 35 41 41 38 38 39 31 30 29 27 26 27 32 40

GFSGBSN_250_rhum_012.txt.gz
RH
13 14 18 22 32 44 68 94 75 56 22 14 18 47 88 100 100 100 100 100 100 100 100 100 100 100 69 56 57 63 60 49 47 47 46 51 38 30 27 28 30 28 30 31 32 24 22
10 13 15 23 32 48 68 97 84 67 31 19 26 48 97 100 100 100 100 100 100 100 100 100 100 100 76 66 64 63 72 67 48 49 44 42 48 39 37 34 32 30 28 23 27 29 25
10 12 14 20 33 59 73 100 90 74 62 30 32 49 80 100 100 100 100 100 100 100 100 100 100 100 88 70 78 94 91 81 84 64 63 44 38 40 39 38 36 36 30 24 22 26 27
10 13 15 21 28 57 78 91 100 83 80 62 35 50 72 88 100 100 100 100 100 100 100 100 100 100 100 100 74 73 78 83 68 63 72 47 41 38 45 44 42 35 30 28 32 32 30
13 17 21 25 33 47 61 82 99 100 85 89 75 40 48 93 98 96 100 100 100 100 100 100 100 100 100 100 59 54 75 78 74 79 70 57 48 44 43 45 46 45 37 39 45 47 40
18 25 34 38 40 42 58 68 84 100 100 85 97 96 46 57 80 97 100 100 100 100 100 100 100 100 100 100 100 60 58 97 83 72 76 70 47 48 51 58 73 60 38 43 48 54 41
24 27 38 43 44 45 53 70 71 77 91 90 85 93 100 66 46 65 100 100 100 100 100 100 100 100 100 100 100 100 91 94 86 87 83 61 53 68 74 62 59 61 45 51 60 70 56
31 34 36 36 47 44 43 52 58 69 75 83 84 83 84 90 96 84 58 65 93 100 100 100 100 100 100 100 100 100 97 100 94 91 79 67 51 68 60 56 73 82 54 58 66 71 70
43 49 46 43 35 31 40 45 49 55 60 73 80 86 78 73 74 85 92 90 66 64 71 83 89 100 100 100 100 100 98 95 87 71 64 56 65 75 68 65 75 87 62 67 78 80 65
32 32 31 34 36 36 37 36 43 42 54 59 60 80 85 75 79 83 78 74 76 87 80 89 98 94 84 73 87 82 84 80 73 76 61 50 90 85 68 61 76 85 72 78 89 94 61
25 23 22 20 17 18 23 29 40 43 43 58 58 63 76 84 83 88 79 87 84 85 74 95 100 92 85 72 67 77 70 66 77 66 54 55 71 66 54 77 75 70 64 65 69 69 66
19 15 10 8 7 6 6 8 14 32 48 50 51 62 65 74 86 80 78 88 78 74 75 97 98 87 78 67 60 61 67 73 72 55 45 51 54 59 55 64 54 47 50 43 47 53 44
12 8 5 5 4 4 5 5 7 13 22 38 46 54 65 67 74 69 67 70 72 68 92 97 83 74 74 69 74 79 79 78 70 55 49 45 47 42 38 36 34 36 47 47 47 48 27
8 5 4 3 3 3 3 4 6 7 10 19 32 44 66 69 70 75 79 83 71 98 94 78 81 68 66 70 90 70 62 54 47 42 35 28 22 22 23 19 16 17 21 20 16 19 25
5 4 3 2 2 2 2 2 4 6 8 10 15 31 58 65 69 65 71 85 90 95 83 83 66 52 67 82 69 61 50 43 37 27 23 19 10 8 9 8 7 8 7 17 15 18 20
4 4 2 2 2 2 2 2 3 4 6 6 15 24 46 63 75 72 82 99 100 85 78 75 58 78 73 64 59 46 35 31 32 20 10 9 8 6 4 4 4 6 10 8 13 20 30
4 3 2 2 2 2 2 2 3 4 4 8 10 16 21 44 62 61 77 99 91 72 79 70 90 69 76 65 42 40 40 29 15 8 7 5 4 3 3 3 3 4 8 17 26 42 80
4 3 2 2 2 2 3 3 4 5 6 8 12 13 10 21 36 53 83 90 65 76 88 99 77 93 79 54 52 35 20 13 8 6 6 8 8 8 7 9 11 15 11 39 67 99 94
4 3 2 2 2 2 3 3 5 6 8 11 16 18 12 20 36 60 64 62 75 97 95 90 95 99 64 60 86 47 37 20 15 27 17 39 69 58 43 59 45 37 42 62 100 100 100
4 3 2 2 2 3 4 4 5 6 7 7 11 13 17 24 34 42 50 73 98 90 97 98 100 79 57 53 77 57 49 74 100 100 100 98 100 100 100 100 100 98 97 100 100 100 100
4 3 2 2 2 4 4 5 6 6 6 7 10 21 28 50 53 45 76 93 79 90 100 100 97 86 96 97 81 45 76 100 100 100 100 100 100 100 100 100 100 100 100 100 100 100 100
4 3 2 2 3 4 4 5 6 7 8 10 16 20 37 28 33 78 89 76 89 100 100 100 95 96 100 100 87 78 82 100 100 100 100 100 100 100 100 100 100 100 100 100 100 100 98
4 3 3 2 4 4 5 6 8 8 10 19 21 24 25 33 68 80 71 99 100 100 100 100 94 69 98 100 98 82 67 97 100 100 100 100 100 100 100 100 100 100 100 100 100 100 88
4 4 3 3 4 5 6 8 8 10 12 17 22 25 38 58 77 62 94 100 100 100 95 100 93 76 100 100 100 87 72 77 100 100 100 100 100 100 100 100 100 100 100 100 100 100 66
4 3 3 3 4 5 7 8 10 12 12 16 23 38 61 79 63 83 96 100 100 100 100 100 93 87 100 100 100 100 84 76 79 96 100 92 100 100 100 100 100 100 100 100 100 87 56
4 3 3 3 4 6 7 9 11 12 13 16 28 56 77 64 78 82 100 100 100 100 100 100 100 86 98 100 100 100 100 88 77 82 100 100 99 100 82 84 90 89 75 56 49 55 50
4 3 4 3 3 6 8 10 11 13 15 22 34 71 70 83 78 93 100 100 100 100 100 100 100 100 100 85 96 100 100 100 92 80 76 83 100 100 84 63 49 48 46 42 35 32 39
4 3 4 4 4 6 9 10 11 14 17 25 53 61 66 84 76 100 100 100 100 100 100 100 100 100 94 100 95 86 95 93 85 86 80 71 74 96 69 65 64 48 44 45 42 42 42
4 3 4 4 3 6 8 10 10 16 21 34 53 53 74 74 81 100 100 100 100 98 96 100 98 100 97 82 74 83 67 59 72 93 84 90 67 66 70 79 74 68 57 54 51 44 33

GFSGBSN_250_rhum_015.txt.gz
RH
8 8 8 8 10 12 14 16 20 27 44 58 86 95 70 59 26 14 21 90 100 100 100 100 100 100 100 93 100 100 100 63 53 51 47 46 41 44 44 42 39 27 25 23 27 24 25
8 8 8 9 11 12 14 15 21 32 50 72 100 91 66 40 13 14 73 100 100 100 100 100 100 100 100 100 100 100 100 87 60 59 57 66 52 45 47 46 40 38 33 30 29 33 30
7 7 7 9 11 13 16 17 22 33 57 79 100 92 68 34 12 26 76 100 100 100 100 100 100 100 100 100 100 100 100 100 87 75 70 79 65 53 42 54 48 38 39 34 32 34 29
7 8 10 13 13 18 21 25 24 40 52 83 100 100 78 43 19 40 90 100 100 100 100 100 100 100 100 100 100 100 100 100 100 92 84 78 50 54 47 47 42 40 36 37 43 38 33
10 18 21 24 28 31 34 35 37 38 64 67 95 100 96 66 26 34 72 100 100 100 100 100 100 100 100 98 100 100 100 100 100 99 99 75 56 57 56 62 44 49 45 41 41 38 31
9 16 25 35 38 36 41 49 54 48 52 73 80 100 100 87 62 35 63 77 100 100 100 100 100 100 100 100 100 100 100 100 100 100 100 88 63 60 68 68 54 40 39 43 45 47 39
14 22 27 27 27 37 41 38 50 60 61 66 72 88 99 100 86 61 45 71 92 99 100 100 100 100 100 100 100 100 100 100 100 96 81 66 58 61 64 62 59 47 52 46 50 52 47
13 26 34 42 42 39 34 38 38 42 53 66 73 66 96 100 100 84 62 54 79 89 98 96 97 100 100 100 97 88 93 93 100 100 100 94 72 88 73 59 63 55 52 52 50 56 49
12 24 30 34 38 39 40 41 34 40 41 49 67 75 83 99 98 100 97 70 44 64 84 91 94 100 92 85 93 98 80 80 98 100 99 91 95 96 90 86 55 61 49 55 50 60 46
11 22 25 25 23 21 20 21 26 26 32 37 46 63 82 85 96 100 100 91 74 73 52 62 58 68 66 59 61 79 93 78 74 79 74 68 100 82 55 63 58 68 55 47 45 54 48
9 18 20 17 13 9 8 8 10 14 20 32 38 44 66 79 98 100 100 90 99 88 73 88 88 78 74 69 69 83 86 77 78 73 60 62 65 74 62 86 58 47 59 50 50 54 51
11 15 13 7 6 5 5 5 6 7 9 20 30 41 46 57 93 100 92 98 100 88 74 87 100 97 89 88 96 100 100 91 85 73 60 55 52 52 50 52 50 52 59 55 51 54 33
10 12 7 4 4 4 4 4 4 5 6 9 15 27 61 56 83 87 88 99 97 93 99 100 100 97 98 98 91 88 88 89 78 53 46 31 29 33 36 46 51 51 52 44 40 34 26
10 9 4 4 3 3 2 2 2 3 5 7 8 16 49 58 73 71 83 87 99 100 100 100 95 93 100 92 85 90 94 82 58 36 24 26 31 39 42 38 35 33 35 33 34 34 34
11 8 3 3 2 2 2 2 2 2 3 5 8 12 37 37 61 69 80 81 91 100 100 99 90 95 79 77 91 84 75 50 35 32 40 41 37 39 38 39 37 34 28 39 25 20 23
10 6 3 3 2 2 2 2 2 2 3 4 6 9 10 20 59 85 88 86 86 95 91 91 100 100 100 99 91 71 45 45 46 44 39 36 32 27 22 14 11 10 9 8 7 7 7
11 5 4 3 2 2 2 2 2 3 3 4 5 10 10 13 37 69 89 94 90 87 85 100 100 100 99 95 68 62 61 43 42 34 28 22 16 8 7 5 4 4 3 4 6 9 9
11 5 4 3 2 2 2 2 3 4 4 4 5 9 10 10 23 65 97 97 87 80 82 100 100 100 91 66 72 65 38 44 39 19 13 11 10 10 7 7 4 4 3 3 6 7 9
11 5 4 3 2 2 2 3 3 3 4 6 8 10 10 11 19 42 80 87 84 85 99 100 100 90 62 69 82 60 86 64 59 30 45 36 37 33 21 18 13 13 7 6 6 7 10
10 5 4 3 2 2 3 3 4 3 5 8 9 9 7 12 25 28 39 55 65 76 100 100 90 77 63 94 100 100 93 82 93 94 97 92 94 84 81 97 81 67 29 19 12 27 32
9 5 4 3 2 2 3 4 5 5 6 8 9 10 14 30 37 31 36 47 57 96 100 93 88 64 86 98 100 89 87 86 100 100 100 100 100 100 100 100 100 100 99 50 51 60 68
9 5 4 3 2 3 3 4 6 6 6 8 11 17 21 18 15 21 38 56 78 100 99 96 66 74 76 76 100 82 58 97 100 100 100 100 100 100 100 100 100 100 100 100 100 100 100
9 5 5 3 3 2 4 4 6 8 9 10 12 14 14 13 21 29 42 62 86 95 97 72 77 91 92 99 100 87 76 91 100 100 100 100 100 100 100 100 100 100 100 100 100 100 100
8 5 5 3 3 3 4 5 7 10 14 12 11 12 15 20 34 30 61 90 92 94 69 80 87 97 91 100 100 100 71 79 100 100 100 100 100 100 100 100 100 100 100 99 100 100 100
8 5 5 4 3 3 5 6 9 11 14 14 12 14 16 28 42 62 93 90 85 77 69 95 97 88 85 100 100 100 83 80 83 100 100 100 100 100 100 100 100 100 100 100 100 100 100
7 5 5 3 3 3 5 8 10 11 13 15 16 21 25 36 72 90 90 83 80 78 83 100 100 76 84 100 100 100 100 82 82 95 100 100 100 97 100 100 100 100 100 100 100 92 99
6 5 5 3 3 4 5 8 10 11 13 15 14 26 30 56 91 97 90 90 84 82 88 92 100 90 92 100 100 100 100 100 89 73 94 100 100 98 100 93 100 100 98 98 92 90 75
6 5 4 3 4 4 5 8 10 12 15 16 22 24 44 73 85 92 95 100 100 83 85 86 98 100 100 100 100 99 100 100 100 97 71 93 98 100 92 84 79 77 100 91 69 65 60
6 5 4 3 4 4 5 8 10 12 14 16 19 27 50 64 78 94 100 100 98 95 87 98 100 100 100 99 89 85 72 93 100 100 100 88 82 84 100 81 78 77 68 65 58 52 53

GFSGBSN_250_rhum_018.txt.gz
RH
8 8 7 6 7 9 9 10 13 14 15 16 16 18 25 31 36 48 56 71 89 92 92 84 79 80 87 95 100 100 99 76 81 87 84 81 73 43 41 42 41 36 34 34 40 28 20
8 8 8 7 7 8 9 11 13 14 16 17 19 22 29 37 46 57 65 85 94 93 95 92 85 83 83 100 100 100 100 89 84 82 91 100 78 66 50 46 44 44 42 40 40 45 33
10 10 8 8 11 14 14 18 18 17 21 21 21 25 34 47 66 89 90 100 100 100 94 84 62 63 94 100 100 100 100 99 76 86 86 100 100 84 62 55 56 51 43 46 44 43 39
9 10 10 12 14 19 24 24 29 31 32 32 28 33 41 61 87 100 100 95 82 66 50 31 40 86 100 100 100 100 100 100 92 80 88 100 100 100 85 74 76 68 54 42 48 48 43
10 10 9 12 23 30 29 31 34 39 50 48 48 38 50 70 92 100 99 80 58 25 14 30 77 100 100 100 100 100 100 100 100 96 92 95 100 100 100 97 90 81 63 56 44 41 42
11 12 9 12 19 25 32 42 34 42 48 59 66 63 52 66 82 100 98 89 53 19 20 62 100 100 100 100 100 100 100 100 100 100 91 99 100 100 98 100 90 83 65 52 48 52 47
11 12 10 19 30 43 41 36 34 40 45 57 64 78 69 69 70 100 100 99 65 24 33 100 100 100 100 100 100 100 100 100 100 99 94 90 100 100 100 100 92 94 59 62 58 59 50
10 12 10 17 32 41 40 35 42 30 32 35 53 68 79 76 82 83 100 100 91 37 45 72 99 100 100 100 100 100 100 100 100 100 100 100 100 100 98 83 82 73 69 59 51 56 51
9 10 9 10 23 25 23 21 22 27 32 28 32 46 68 79 84 83 100 100 88 69 39 66 100 97 100 100 99 99 100 100 100 100 100 91 93 90 71 61 55 77 71 74 61 54 44
8 9 9 9 18 17 8 6 6 7 12 23 25 29 42 67 70 93 96 100 100 96 66 50 63 90 85 85 80 78 84 89 96 87 67 59 72 63 65 65 60 66 88 93 92 76 54
8 8 8 9 15 9 5 4 5 5 6 8 14 22 30 45 55 83 100 100 100 100 86 67 51 86 88 94 99 89 75 74 81 82 80 82 74 63 55 68 59 60 69 70 74 58 62
7 8 7 10 12 5 4 3 3 3 4 5 7 13 22 34 43 84 86 90 95 98 91 96 77 65 71 76 82 91 97 85 73 63 62 70 64 61 66 71 65 63 64 56 48 51 28
7 7 6 8 8 4 3 2 2 2 3 4 5 9 14 30 36 70 94 97 86 84 100 100 100 100 90 82 80 81 82 82 81 81 84 88 96 96 93 92 73 53 41 30 22 22 14
7 7 5 8 6 3 2 2 2 2 2 3 3 6 10 21 36 50 83 93 78 100 100 100 100 100 100 100 100 100 100 99 99 100 100 97 93 76 65 55 36 21 21 19 20 19 17
7 7 6 9 5 3 2 2 1 2 2 3 3 5 8 14 30 39 63 83 93 100 100 100 100 100 100 100 100 100 100 100 100 89 81 72 58 44 30 29 32 33 28 34 19 18 17
7 7 6 10 4 3 2 2 2 2 2 3 4 5 7 14 25 30 54 80 97 100 100 100 100 100 100 100 100 100 100 100 94 85 65 48 31 31 33 27 24 23 22 19 12 11 10
7 7 6 11 4 3 2 2 2 2 2 3 4 5 8 11 20 30 70 75 100 100 97 99 100 100 100 100 100 100 100 90 76 58 38 39 36 28 16 11 10 10 9 7 5 5 5
7 6 6 11 5 3 2 2 3 3 3 3 4 5 10 12 12 18 64 70 91 91 91 100 100 100 100 100 100 100 88 71 54 51 55 57 70 48 46 27 18 10 5 3 3 2 2
7 7 6 11 5 3 2 3 3 3 4 4 4 6 7 8 9 17 61 78 76 94 92 100 100 100 100 100 100 80 69 59 76 100 100 100 96 96 81 64 33 21 11 5 3 3 2
7 7 6 11 5 3 2 3 4 3 4 4 5 6 7 8 10 14 42 66 65 96 100 100 100 100 100 100 81 67 65 90 100 100 100 100 99 100 91 99 71 40 19 12 10 7 6
8 7 6 11 5 3 2 3 4 4 4 4 4 6 9 12 14 20 33 54 58 92 100 100 100 100 100 82 66 68 79 100 100 100 100 98 100 100 100 100 100 100 68 75 40 17 12
9 8 6 11 5 3 3 3 4 4 6 5 6 7 11 14 15 22 34 50 67 96 100 100 100 100 85 76 68 72 100 99 84 98 100 100 100 100 100 100 100 100 100 98 78 49 42
10 8 6 11 5 3 3 4 5 6 7 7 8 9 11 14 19 22 20 26 46 74 100 100 100 80 76 73 83 88 96 88 89 89 100 100 100 100 100 100 100 100 100 100 85 92 96
11 8 7 11 5 3 3 4 6 7 8 9 10 12 13 18 19 18 23 26 33 48 90 100 80 74 79 96 87 99 100 74 85 99 100 100 100 100 100 100 100 100 100 100 100 100 100
11 9 9 11 5 3 4 4 6 8 8 10 11 11 14 16 18 28 35 32 41 73 100 72 73 71 77 91 95 100 100 78 85 85 100 100 100 100 100 100 94 100 100 100 100 99 100
11 9 13 10 5 3 5 5 6 9 9 10 14 15 13 20 21 29 35 48 69 80 62 75 77 84 78 81 98 100 100 82 72 99 100 100 100 93 100 100 100 100 100 86 100 100 91
11 9 15 10 6 4 4 5 7 9 9 12 15 22 26 25 29 36 43 60 67 69 74 70 72 81 72 87 100 100 100 87 76 90 93 86 95 100 100 100 100 100 100 95 100 97 84
11 9 16 10 6 4 5 5 6 9 10 13 15 24 33 25 33 39 64 78 71 75 73 75 86 81 87 97 100 100 98 100 100 91 79 89 98 100 100 100 100 100 100 100 95 100 100
11 9 16 8 6 4 5 6 6 9 12 14 19 27 38 31 43 58 75 74 66 80 81 72 89 92 91 87 90 100 100 100 96 100 100 92 80 88 100 95 100 100 100 88 86 74 92

GFSGBSN_250_rhum_021.txt.gz
RH
7 7 6 7 7 7 9 10 12 14 16 18 23 34 35 52 54 53 51 57 54 45 52 84 92 92 87 87 93 84 86 100 100 100 92 63 80 63 62 60 63 50 46 47 47 41 32
8 8 8 9 9 7 8 14 19 21 22 23 20 18 20 28 31 36 32 29 38 29 37 57 80 100 100 95 89 96 92 92 89 88 94 74 67 89 65 61 69 58 46 46 46 44 37
7 8 9 10 10 10 12 16 20 24 32 34 31 29 21 19 19 19 22 24 26 29 44 60 73 100 100 100 99 99 92 86 85 90 100 96 71 67 84 72 76 90 67 56 48 45 47
7 9 9 11 11 12 19 21 22 29 28 34 42 41 33 24 23 21 22 23 26 34 45 60 71 98 100 100 100 100 100 96 99 98 98 100 91 82 92 74 84 85 100 81 60 51 47
7 9 10 10 11 12 16 30 35 32 33 34 41 45 47 43 29 27 25 30 43 55 61 72 82 100 100 100 100 100 100 100 100 100 100 100 99 92 87 88 74 100 100 96 85 70 63
8 8 11 11 12 10 13 17 24 40 44 40 38 43 48 60 45 37 33 42 57 74 90 100 100 96 100 100 98 100 100 100 100 100 100 100 100 98 96 93 76 94 100 100 100 96 84
7 7 9 11 11 12 15 24 27 27 28 35 39 37 50 50 58 44 46 65 86 98 100 100 100 100 100 100 100 100 100 100 100 100 100 100 100 100 99 94 90 94 100 100 100 100 98
7 6 8 10 9 9 13 18 14 9 8 11 21 33 41 47 55 58 49 86 95 98 90 86 96 81 50 47 65 75 83 100 100 100 100 100 100 100 94 87 83 74 82 99 100 99 69
6 6 7 9 8 9 12 10 6 5 4 5 7 12 34 39 43 44 69 92 95 95 84 90 92 64 24 18 43 71 89 100 100 100 100 100 100 100 87 79 82 90 88 82 81 86 84
6 5 6 8 7 9 9 5 4 3 3 3 5 6 14 34 38 46 67 80 98 92 90 94 85 54 24 29 62 94 100 100 100 100 100 99 99 94 99 100 100 97 98 72 48 42 51
6 5 6 7 6 7 5 4 3 2 2 2 3 5 7 25 35 39 62 94 78 94 88 89 83 61 44 39 93 86 99 100 100 100 100 100 100 88 78 94 69 63 62 58 56 55 46
6 5 6 7 5 7 4 3 2 2 2 2 2 4 6 14 31 35 50 72 63 71 95 94 89 74 58 68 92 79 84 80 87 91 85 72 68 73 86 78 62 60 55 49 46 44 32
6 5 6 6 5 7 4 3 2 2 2 2 2 3 6 9 24 35 45 50 61 65 100 100 100 93 74 66 82 87 91 98 95 89 90 90 90 76 72 68 64 62 63 58 51 47 38
6 5 5 6 5 6 3 3 2 2 2 2 2 3 5 8 18 38 41 49 60 98 100 100 100 100 95 77 70 78 91 99 94 93 90 90 96 84 79 77 84 72 56 53 36 36 34
6 5 5 6 6 7 3 3 2 2 3 2 2 3 5 8 13 26 41 50 77 98 100 100 100 100 100 100 100 94 94 95 95 99 99 96 97 91 91 85 71 68 63 49 32 27 17
7 5 5 7 6 7 3 3 2 2 3 2 2 3 4 9 12 25 33 55 81 96 100 100 100 100 100 100 100 100 100 100 100 100 100 99 100 95 79 67 54 43 31 24 18 13 10
7 5 6 6 6 6 3 2 2 3 3 3 2 3 4 9 12 15 31 49 84 91 98 98 100 100 100 100 100 100 100 100 100 100 100 95 77 73 57 40 32 26 18 12 7 6 5
7 5 5 6 6 7 3 2 2 3 3 3 3 3 5 8 9 11 22 49 70 82 100 100 100 100 100 100 100 100 100 100 100 100 87 82 65 56 51 53 62 57 45 23 8 6 3
7 5 5 7 6 7 4 2 2 4 3 3 3 4 5 7 11 14 26 48 73 98 100 100 100 100 100 100 100 100 100 100 98 98 75 67 82 84 77 73 56 45 33 24 16 9 3
8 6 5 7 6 8 4 2 3 4 4 3 4 4 5 8 12 13 22 46 72 94 100 100 100 100 100 100 100 100 98 99 92 83 77 94 96 84 71 60 55 76 82 39 15 10 6
8 6 5 7 7 9 4 3 3 4 4 4 3 4 5 8 9 11 23 41 67 83 100 100 100 98 100 100 100 98 89 96 81 90 100 94 79 67 85 86 80 91 93 65 34 18 8
9 6 6 8 8 10 4 3 3 4 4 5 4 4 7 9 12 16 26 40 66 85 100 98 99 100 100 100 98 87 94 73 96 92 93 80 75 100 94 100 100 100 97 85 76 50 27
9 8 6 8 9 11 5 4 4 5 5 6 6 7 9 12 15 18 26 36 61 82 100 100 100 100 100 100 95 82 74 90 83 97 92 64 90 100 100 100 100 100 100 85 93 93 89
10 9 7 8 11 13 6 4 4 6 6 7 8 7 9 11 14 20 22 29 49 69 96 100 100 100 100 98 83 78 76 71 84 99 91 81 100 100 100 100 100 100 100 100 99 83 95
9 10 8 8 11 15 6 4 5 5 8 8 9 10 11 13 14 18 22 24 33 56 76 99 100 100 100 94 84 65 86 64 100 90 78 81 100 98 100 100 100 100 100 100 100 100 100
10 10 10 9 11 16 6 4 5 5 9 9 10 12 10 12 15 18 20 26 36 47 61 84 100 100 94 85 70 75 83 82 100 75 82 99 99 99 100 100 100 99 100 91 100 100 100
12 11 10 10 10 15 7 4 5 6 9 10 11 13 15 15 16 20 24 27 32 49 70 91 93 91 87 71 88 67 91 100 99 92 60 89 75 74 87 99 100 94 100 94 100 100 100
13 12 11 10 10 15 7 5 6 6 10 11 15 14 17 18 17 20 28 33 39 43 47 58 80 84 70 77 71 88 94 98 100 98 62 82 100 99 86 100 100 100 99 100 100 100 97
14 13 12 11 11 17 7 6 6 6 9 12 16 14 19 19 25 30 38 41 47 56 64 72 66 70 78 69 80 96 100 99 100 100 85 84 87 100 79 74 92 100 100 100 88 96 100

GFSGBSN_250_rhum_024.txt.gz
RH
8 9 8 7 7 9 9 8 8 8 8 10 12 14 14 18 31 34 75 73 78 100 97 84 86 90 93 82 84 78 68 76 79 96 98 100 98 94 90 59 62 70 67 56 59 56 42
10 8 8 8 8 9 10 9 8 9 11 13 15 18 21 18 24 39 69 74 86 78 70 77 87 90 97 100 96 88 83 81 81 86 100 100 100 100 100 76 64 76 73 65 62 72 56
10 9 8 8 8 9 11 10 11 11 13 15 19 22 26 24 25 30 43 60 66 70 81 65 78 69 80 83 100 100 93 90 90 85 91 100 100 100 100 100 89 66 73 63 64 73 87
10 10 9 8 8 9 11 11 12 15 16 21 24 24 29 34 38 34 24 25 34 62 63 65 81 72 62 64 91 100 100 100 98 100 91 90 98 100 100 99 92 68 60 58 68 67 81
11 10 9 8 9 10 11 10 11 20 24 25 28 36 36 36 39 41 34 26 24 32 51 59 78 77 65 55 48 83 100 100 100 100 100 98 96 93 96 95 91 86 66 59 53 72 74
11 10 9 8 8 9 10 11 15 21 25 24 31 30 30 41 43 39 43 34 27 28 28 34 56 57 45 39 41 58 100 100 100 100 100 100 98 95 100 94 92 87 76 70 60 74 73
11 10 9 7 8 8 9 10 14 18 17 13 9 11 20 26 41 47 42 32 33 30 36 61 51 35 35 43 58 71 96 100 100 100 100 100 100 100 97 94 92 92 88 79 86 89 91
11 10 9 7 7 7 8 8 10 9 6 5 5 5 7 10 26 38 33 41 67 40 32 37 40 46 53 60 65 80 97 100 100 100 100 100 100 100 100 100 100 98 96 94 99 98 89
10 10 8 7 6 7 6 7 7 4 4 4 3 4 5 6 10 24 30 61 70 45 41 54 63 71 86 91 96 99 100 100 100 100 100 100 100 100 100 100 100 100 87 99 88 89 86
10 9 7 6 6 6 5 6 4 3 2 2 2 2 3 4 8 14 36 64 77 55 39 63 84 91 100 100 99 97 100 99 100 100 100 100 100 100 100 100 100 92 94 89 80 82 82
10 9 6 6 6 5 5 5 3 2 2 2 1 2 2 4 6 11 46 66 79 54 43 59 85 100 99 100 100 100 97 96 100 100 100 100 100 100 100 96 80 77 87 84 72 72 68
10 9 7 6 6 5 5 4 2 2 2 1 1 2 2 3 6 11 42 61 70 44 48 60 94 99 100 100 96 88 58 38 45 60 82 93 98 99 94 85 95 97 95 89 83 71 45
10 9 6 6 6 5 5 3 2 2 2 2 2 2 2 3 6 11 38 60 37 45 64 75 100 100 100 99 91 60 35 43 56 50 65 63 86 90 91 84 82 80 77 62 54 54 51
10 9 6 6 6 5 6 3 2 2 2 2 2 2 2 3 7 13 27 41 34 72 79 93 100 99 100 93 76 50 52 58 65 61 64 69 88 91 88 85 79 74 68 64 57 56 52
10 8 6 6 6 5 6 2 2 2 3 3 2 2 2 4 7 13 36 37 50 93 86 93 96 100 95 91 76 55 56 52 61 72 87 100 97 87 82 77 80 81 75 67 56 51 36
10 8 6 6 6 5 5 2 2 2 3 3 2 2 3 4 7 12 29 42 70 84 80 90 87 84 91 86 85 71 63 69 80 89 94 98 99 99 87 92 87 74 63 57 54 40 30
11 8 6 6 7 5 5 2 2 2 2 3 2 2 3 5 8 14 22 48 66 68 92 95 88 94 94 86 94 99 100 98 100 96 94 98 100 95 93 79 64 66 61 53 54 43 22
11 8 6 5 7 6 6 3 2 2 3 3 3 3 3 5 7 12 34 60 67 76 96 98 98 94 92 93 94 98 95 99 87 89 100 100 93 98 72 70 63 76 70 64 44 28 18
11 8 6 5 7 6 6 3 2 3 4 3 3 3 4 6 8 13 28 55 85 79 97 100 100 96 98 100 95 90 94 90 98 100 98 94 74 70 70 69 70 61 67 57 45 32 14
11 8 6 5 7 6 6 3 2 4 4 4 3 4 5 7 10 14 24 49 66 75 95 100 98 98 98 97 97 91 100 100 100 95 92 76 68 83 86 70 68 78 76 91 83 29 15
11 8 7 5 7 7 7 4 3 4 5 4 4 4 5 8 11 15 21 41 67 75 92 100 100 98 99 100 98 100 100 99 94 94 89 66 88 98 73 77 86 74 80 100 99 64 25
10 8 7 6 6 8 8 4 3 4 6 5 5 4 6 8 11 14 22 36 60 76 96 100 100 100 100 100 99 100 99 98 93 86 76 92 97 81 66 70 100 100 74 100 99 93 63
10 9 7 7 6 8 8 5 3 4 6 7 5 5 7 10 12 16 22 41 66 76 96 100 100 100 100 100 100 97 94 98 85 90 76 100 88 66 98 94 100 100 87 94 100 100 91
10 9 8 8 8 9 8 8 4 4 6 8 8 6 8 10 12 17 25 39 66 75 94 100 100 100 100 100 100 95 90 91 82 89 84 100 79 72 100 96 100 100 100 100 97 88 98
10 10 9 9 11 10 11 13 6 5 6 9 9 9 9 12 13 16 21 31 49 64 96 100 100 100 100 100 96 97 82 82 77 87 90 100 73 70 100 99 93 100 100 100 100 100 100
10 10 10 10 12 11 11 16 7 6 6 9 11 11 12 12 12 12 19 27 39 61 92 100 100 100 100 98 94 83 80 76 75 80 94 92 60 99 100 81 100 90 99 100 100 100 100
10 10 12 12 11 12 11 20 8 7 7 8 11 12 12 14 14 16 16 21 36 50 73 96 100 100 100 95 94 76 75 79 69 94 96 72 58 100 99 80 100 95 89 99 100 100 100
10 10 12 14 13 11 11 22 12 7 7 8 12 14 15 16 18 17 18 21 27 47 68 84 100 100 100 96 79 73 72 66 82 100 100 96 63 72 84 100 100 89 97 94 95 97 100
10 10 13 15 14 12 12 21 14 7 8 8 11 14 14 15 18 21 20 23 29 37 58 76 93 96 92 81 80 74 65 64 97 100 100 100 82 66 74 76 98 100 100 100 100 95 100

GFSGBSN_250_rhum_027.txt.gz
RH
10 13 10 9 9 9 9 8 9 10 10 8 8 8 9 10 12 14 15 20 39 73 84 82 94 97 99 93 86 88 80 88 99 100 100 100 100 100 100 100 100 84 71 74 79 75 68
11 14 10 8 9 9 8 9 10 10 10 10 9 9 10 11 13 14 14 17 27 41 84 99 96 96 98 100 98 87 96 84 89 99 100 100 100 100 100 100 100 87 71 69 69 74 75
11 13 12 10 10 10 9 8 9 11 11 11 12 12 11 14 13 17 16 18 28 46 50 91 99 95 100 100 100 100 98 96 89 92 93 81 80 98 100 100 95 88 77 74 75 75 70
12 11 12 10 10 10 9 9 11 11 10 11 13 15 17 14 19 18 23 24 22 31 37 74 100 90 98 100 100 100 100 100 100 96 92 81 80 72 93 97 96 88 94 88 82 80 68
11 11 12 9 10 9 8 7 10 11 13 15 13 17 17 20 19 27 26 30 29 26 32 40 69 100 97 100 95 98 100 98 100 100 100 100 97 88 87 91 92 95 100 100 100 95 71
12 12 12 9 9 8 7 6 8 9 11 15 16 12 16 18 22 23 31 38 41 29 26 28 56 90 100 96 97 98 98 88 100 100 100 100 100 98 95 91 94 92 97 100 100 100 91
11 12 12 9 8 8 6 5 6 6 6 6 6 7 6 12 18 24 27 37 38 24 28 34 60 61 99 100 100 100 100 93 98 100 100 100 100 100 100 93 96 96 90 92 95 90 80
9 12 12 9 8 8 5 5 5 6 4 3 2 3 4 4 8 17 29 25 27 52 99 75 42 32 38 70 86 87 90 92 85 88 94 100 100 100 100 100 100 99 95 91 86 83 72
10 11 12 9 8 7 6 5 5 5 3 2 2 2 2 3 4 8 20 39 48 57 86 76 53 34 25 28 46 68 74 61 70 80 80 94 100 100 100 100 100 100 96 96 88 84 82
11 11 11 9 8 7 5 5 5 4 2 2 2 2 2 2 3 6 9 28 55 59 71 76 69 50 31 30 36 34 41 48 60 57 50 55 93 100 100 100 100 100 100 95 91 92 96
12 12 11 9 8 6 5 5 5 3 2 2 2 2 2 2 3 5 7 12 50 77 61 70 57 53 36 34 50 46 44 42 52 59 66 83 100 100 100 100 100 100 100 97 96 94 91
14 11 11 9 8 6 5 5 5 2 2 2 2 3 3 2 3 4 7 11 33 68 47 64 63 54 56 69 74 91 88 90 86 79 83 100 100 100 100 100 100 100 100 100 100 98 90
15 11 10 9 7 6 5 5 4 2 2 2 2 2 3 2 3 4 7 9 29 43 45 68 68 62 78 93 100 100 100 99 94 99 98 94 100 100 100 100 100 100 100 98 100 99 96
14 12 10 9 7 6 5 5 3 2 2 2 2 2 2 2 3 4 8 10 26 38 58 81 78 66 84 97 98 100 100 100 100 100 97 92 97 99 100 100 100 100 100 100 86 75 64
14 12 10 9 7 6 5 5 3 2 3 2 2 2 2 3 3 5 8 10 27 46 80 94 84 83 96 99 100 100 100 98 97 91 79 51 49 59 77 84 82 76 57 50 45 46 48
14 12 9 8 7 6 5 5 2 2 3 2 2 2 2 3 4 6 8 12 36 61 97 93 90 92 100 100 96 100 96 92 81 53 39 49 57 57 60 54 50 55 65 70 81 86 88
14 13 8 8 7 5 5 5 2 2 3 2 2 2 2 3 5 8 10 20 49 67 85 87 83 94 94 97 94 98 98 71 56 52 66 69 68 81 64 66 80 85 100 93 86 73 63
14 13 8 8 7 5 6 6 3 2 3 2 2 3 3 5 7 9 15 46 57 73 87 87 94 96 95 97 100 100 90 66 59 60 66 79 89 88 84 84 93 99 93 68 70 68 60
13 13 8 8 7 5 6 7 3 3 4 3 2 3 4 6 9 13 26 49 58 66 92 93 95 99 100 100 100 100 94 85 79 78 86 96 88 87 94 95 87 76 68 64 70 78 82
14 12 8 8 7 6 6 8 4 3 4 4 3 4 8 8 9 17 38 41 42 81 93 94 92 99 98 100 100 100 97 84 79 83 88 88 89 89 96 76 81 69 79 87 98 98 99
14 12 9 8 7 6 7 8 5 3 5 5 4 5 7 10 11 17 36 47 63 80 91 93 94 98 94 100 100 100 96 87 86 90 83 80 83 89 69 84 72 82 95 98 100 100 100
14 12 10 8 6 6 7 8 8 5 5 7 5 6 9 10 12 17 29 55 72 78 94 100 99 91 92 100 100 98 100 96 93 85 77 75 85 88 87 69 100 100 80 98 100 100 100
14 12 11 9 6 6 8 9 12 6 6 8 7 6 8 12 13 19 33 65 87 82 99 100 98 96 100 100 100 99 100 100 90 84 78 75 80 98 79 97 100 97 99 100 98 98 100
14 12 12 10 7 6 9 10 15 8 8 9 9 8 10 12 15 17 27 52 81 86 99 100 100 100 100 100 100 100 100 93 90 86 76 83 90 90 71 95 83 100 91 100 100 83 97
13 12 12 11 9 7 10 12 14 16 7 9 11 10 10 11 14 17 24 43 72 86 96 100 100 100 100 100 95 100 95 87 98 75 73 96 100 98 70 68 75 95 100 100 100 89 92
13 11 12 11 9 10 10 12 12 23 9 9 10 11 12 12 12 14 19 32 59 79 91 97 100 100 100 95 89 93 93 99 96 70 79 100 97 73 88 78 95 100 100 100 100 100 100
12 12 12 12 9 11 14 13 13 20 13 9 10 12 13 14 15 15 17 23 36 56 79 96 100 100 100 98 92 99 93 99 86 74 71 94 96 68 66 71 66 77 87 100 100 100 100
12 12 12 12 10 11 15 15 14 18 17 9 10 11 13 14 16 18 17 20 32 48 70 85 100 100 100 96 100 100 97 91 81 77 68 99 89 94 70 58 66 76 73 79 89 100 100
12 12 12 12 10 11 14 16 16 15 21 8 10 10 13 16 17 17 19 20 27 46 68 74 98 100 100 95 99 98 100 87 82 78 83 84 94 88 68 72 80 100 100 100 100 94 100

GFSGBSN_250_rhum_030.txt.gz
RH
11 11 11 11 12 12 10 8 8 8 8 9 10 11 9 8 9 10 12 12 16 30 48 39 66 61 49 46 63 70 83 100 100 100 100 100 100 100 100 99 100 100 100 100 100 83 95
12 12 12 12 14 13 11 10 10 10 8 8 8 10 11 10 8 10 11 13 14 16 21 35 59 74 65 60 73 84 63 67 100 100 100 100 100 100 100 100 100 100 100 100 100 100 82
12 12 13 12 13 14 10 8 8 9 11 10 8 9 11 12 11 8 11 14 14 16 14 22 46 58 65 80 89 89 90 68 70 89 100 100 100 100 100 100 100 100 100 100 100 100 90
12 12 13 12 13 13 10 8 7 6 7 9 10 11 11 11 12 12 9 14 16 16 16 16 21 46 68 84 100 77 99 98 76 78 78 84 100 100 100 100 100 100 100 100 100 100 100
11 12 12 12 13 12 9 7 5 4 5 6 8 10 10 8 8 14 12 11 17 18 22 17 16 23 50 70 100 92 94 100 100 87 83 74 74 77 94 100 100 100 100 100 100 100 100
12 12 12 13 14 11 9 6 4 4 4 5 6 5 4 3 4 8 13 14 14 20 22 18 17 20 48 77 100 100 100 100 100 100 99 95 98 98 95 93 99 100 100 100 99 90 88
12 12 12 12 13 11 8 7 4 3 4 4 4 2 2 2 2 3 11 15 16 16 20 22 32 28 45 85 100 100 100 100 100 100 97 100 100 100 97 91 86 89 85 85 79 76 90
12 13 12 12 14 10 8 6 4 3 4 4 2 2 2 2 2 2 6 16 20 20 22 29 36 26 51 59 78 98 100 100 100 97 100 100 100 100 98 96 100 100 98 91 83 80 68
13 13 12 13 13 10 7 5 4 3 4 2 2 2 2 2 2 3 4 14 18 21 23 43 39 38 50 49 61 81 95 100 98 100 100 93 99 100 100 100 100 99 96 95 87 83 84
16 14 13 13 13 9 7 5 4 4 4 2 2 2 2 3 3 3 4 9 18 22 28 56 39 48 47 52 66 53 65 100 100 100 100 99 100 99 96 100 100 100 100 100 99 94 82
18 16 14 13 12 9 6 5 3 4 3 2 2 2 2 2 3 3 3 6 14 23 30 62 45 76 56 57 59 50 54 71 100 100 100 100 99 95 100 95 99 100 99 99 92 88 90
16 16 15 13 12 8 6 4 3 5 2 2 2 2 2 2 3 3 3 4 7 22 35 57 47 64 66 78 69 57 49 48 65 81 92 99 100 91 87 83 76 77 86 92 87 84 92
16 15 16 14 11 8 6 5 3 4 2 2 2 2 2 2 3 2 3 4 10 25 34 79 78 80 76 77 70 52 44 36 40 56 74 71 80 72 75 68 58 55 59 77 92 89 93
17 16 17 14 10 8 6 4 4 4 2 2 2 2 2 2 2 2 4 5 7 13 77 90 85 71 75 85 70 48 45 43 50 54 56 66 55 64 53 58 67 72 88 85 84 90 95
17 17 18 14 10 8 6 5 4 4 2 2 2 2 2 2 2 3 4 6 8 17 78 95 82 73 93 89 69 70 88 84 88 93 82 86 97 82 82 92 92 100 95 98 95 92 83
17 17 18 14 9 8 7 5 4 4 2 2 2 2 2 2 3 4 5 6 10 30 83 85 79 90 100 100 93 98 100 98 94 100 100 100 100 99 99 95 91 97 100 100 97 98 100
17 17 17 14 9 8 7 6 5 4 2 2 2 2 2 3 3 4 6 12 18 47 90 80 84 96 90 93 95 94 94 100 100 100 99 93 97 91 80 75 58 55 56 59 68 83 72
18 18 16 13 9 8 7 6 5 5 3 3 3 3 3 4 5 8 10 12 21 61 84 79 94 95 100 86 88 91 97 97 92 85 86 77 64 44 42 56 71 97 84 97 93 85 72
18 17 16 12 9 7 7 6 5 6 3 4 4 4 5 6 9 10 13 18 39 67 72 87 91 96 95 97 100 100 98 96 85 64 52 49 49 59 72 93 100 99 92 79 77 74 99
19 16 15 12 10 8 7 7 6 7 4 5 5 5 6 8 10 10 17 34 45 66 84 88 91 99 100 100 100 98 99 95 74 63 67 69 72 79 91 95 88 74 82 73 66 74 90
18 16 14 12 11 9 7 7 7 8 5 6 6 8 8 10 11 15 22 42 57 86 95 88 94 100 100 100 100 100 100 96 85 76 70 70 75 88 94 70 84 75 80 93 100 93 84
17 16 13 12 12 10 8 7 8 10 8 6 9 9 10 12 14 17 28 42 67 87 90 95 98 100 100 100 100 100 100 99 86 78 71 84 91 90 73 82 85 88 97 94 99 97 98
17 14 13 13 12 11 10 8 8 10 13 7 10 10 12 14 16 21 37 61 89 92 98 96 98 100 100 100 99 97 100 96 90 80 75 89 96 73 74 75 100 86 80 82 100 90 95
15 14 13 14 12 11 11 10 8 10 14 12 8 13 12 13 16 21 39 62 87 93 100 100 100 100 100 98 100 100 99 86 81 79 80 89 95 61 88 98 90 76 86 100 95 84 100
14 14 13 14 13 11 12 12 10 10 12 23 9 11 15 13 14 17 34 60 84 84 81 97 100 100 100 100 95 93 94 85 78 80 85 84 78 87 90 92 68 78 89 100 100 74 85
14 13 14 14 14 12 13 12 10 12 12 21 17 10 16 15 14 15 20 58 97 87 88 84 98 99 100 97 90 98 95 83 79 84 84 75 92 85 100 82 79 64 96 100 100 85 100
14 13 14 14 14 12 14 14 11 12 12 13 26 10 11 18 15 16 17 25 59 88 88 97 99 100 100 93 95 98 94 86 86 89 82 83 77 88 98 82 87 70 98 99 100 100 100
14 13 15 14 14 12 13 14 12 13 12 13 22 15 9 12 17 14 16 17 22 46 77 88 100 97 96 93 100 99 91 97 94 93 71 71 74 85 84 77 76 65 75 89 90 91 91
13 12 15 15 14 14 13 13 12 14 12 13 19 22 10 9 16 16 15 18 22 28 66 87 96 100 88 91 98 98 97 100 94 87 77 80 87 66 66 80 79 89 100 100 70 73 84

GFSGBSN_250_rhum_033.txt.gz
RH
21 13 10 13 12 12 13 13 11 9 8 7 7 6 6 7 8 8 9 10 11 11 14 16 20 20 26 41 74 74 100 100 100 100 100 100 100 100 100 100 100 99 99 99 100 88 91
21 12 12 13 12 12 12 12 9 8 6 6 6 7 7 7 8 7 8 9 10 11 11 15 21 22 23 48 54 94 63 93 100 100 100 100 100 100 100 100 100 100 100 100 100 100 100
16 13 13 12 12 12 12 10 8 7 6 5 5 6 8 8 6 7 7 8 9 11 11 12 20 34 18 45 71 88 90 70 83 100 100 100 100 100 100 100 100 100 100 100 100 100 100
13 14 13 11 12 12 11 10 7 6 5 4 4 5 5 4 4 4 6 8 10 10 11 11 14 19 62 35 82 97 90 93 89 65 97 100 100 100 100 100 100 100 100 100 100 100 100
14 13 14 13 12 11 10 10 6 5 4 4 4 4 2 2 2 2 4 7 10 12 12 13 10 14 28 66 88 89 100 100 95 95 74 92 100 100 100 100 100 100 100 100 98 100 100
13 12 14 14 11 10 10 8 6 4 4 3 4 2 2 2 2 2 2 5 6 13 14 12 11 12 17 49 99 84 87 100 100 92 94 80 77 100 100 100 100 100 100 100 100 100 100
14 14 14 14 11 9 9 8 5 4 4 3 3 2 2 2 3 2 2 3 5 8 15 11 17 18 20 22 72 77 87 97 100 100 85 99 87 70 78 100 100 100 100 100 100 100 100
15 14 14 14 10 10 9 8 5 4 3 3 2 2 2 2 2 3 2 2 4 6 10 15 20 17 22 19 23 52 81 90 100 100 87 80 99 100 80 68 78 92 100 100 100 100 100
15 14 14 14 11 9 9 7 5 4 3 3 2 2 2 2 2 3 3 3 4 4 9 21 22 24 26 21 21 26 73 96 90 96 100 87 87 91 89 89 86 70 72 74 81 77 79
15 15 14 14 11 9 10 7 4 4 3 3 2 2 2 2 2 3 3 3 3 5 18 24 23 29 26 24 21 19 45 70 73 91 100 100 90 96 96 95 96 95 96 94 80 66 70
15 15 14 14 11 9 10 7 4 4 3 3 2 2 1 1 2 3 3 3 3 7 21 24 32 32 36 31 34 41 42 81 93 100 100 100 100 98 100 95 97 90 86 78 75 79 72
16 16 16 16 12 10 10 7 5 4 3 3 2 2 1 1 2 3 3 3 4 8 20 24 36 35 48 46 46 56 57 64 88 100 100 100 100 100 100 92 97 100 89 73 78 85 72
16 16 17 16 12 10 9 7 5 4 4 3 2 2 1 1 2 3 3 4 4 6 16 34 46 61 65 62 54 67 78 72 82 100 97 100 100 100 100 88 100 99 93 95 87 83 87
18 17 17 17 12 10 9 7 5 4 4 3 2 2 2 2 2 2 4 4 4 12 31 57 53 69 74 62 66 64 65 80 71 69 72 84 94 100 100 97 98 97 92 84 82 73 66
18 18 18 16 13 10 9 7 6 5 4 3 2 2 2 2 2 2 3 4 7 26 62 52 49 55 61 68 75 77 82 81 72 56 50 53 63 78 91 88 78 83 81 75 68 63 66
19 19 18 16 13 10 9 7 6 5 5 3 2 2 3 2 2 3 4 6 11 30 57 63 92 94 89 84 89 89 72 54 50 44 43 46 46 59 67 68 73 78 73 70 64 70 79
19 18 18 17 13 10 9 8 7 6 5 4 3 3 4 4 4 4 5 8 21 42 59 80 83 77 74 78 90 76 64 51 52 61 59 60 58 55 54 70 88 98 97 85 89 98 100
19 18 18 16 13 11 9 8 7 6 5 6 3 3 4 5 5 6 7 12 28 58 80 94 93 90 90 83 77 74 88 90 90 92 90 99 93 79 92 97 100 100 99 92 78 78 86
18 18 17 16 13 11 10 8 8 7 5 6 3 3 5 6 7 7 8 16 43 78 87 83 86 92 87 94 100 100 98 100 98 99 96 97 94 96 97 86 70 69 83 95 100 94 85
17 18 17 15 13 11 10 9 9 9 7 7 6 4 6 8 10 9 9 12 32 66 83 88 88 90 100 99 88 93 100 97 93 85 84 83 72 68 73 82 96 93 91 83 78 86 84
16 17 17 14 13 12 11 9 10 9 8 8 10 5 7 11 14 14 15 16 31 54 70 82 93 100 100 100 100 100 100 100 89 65 58 71 85 89 86 85 91 80 74 92 86 65 88
16 16 16 13 13 13 11 10 10 11 10 10 12 7 7 12 19 25 36 42 50 63 78 95 100 100 100 98 97 100 100 97 79 76 82 79 74 73 74 84 71 76 74 72 98 99 84
15 15 14 13 13 13 13 10 11 10 11 11 13 11 9 12 20 29 42 61 72 82 100 100 100 98 96 95 100 100 100 98 89 86 77 75 71 75 81 75 86 91 76 72 74 80 92
14 14 14 14 13 13 13 11 11 12 10 11 12 17 9 12 20 25 37 45 72 90 98 99 100 100 99 95 100 100 100 100 96 93 83 81 82 88 69 82 87 85 95 78 85 95 100
14 13 13 14 13 14 14 13 13 14 12 10 11 13 17 11 14 21 32 41 63 82 91 92 93 99 98 100 100 100 100 98 92 94 89 96 92 77 67 93 81 72 83 93 100 98 100
12 12 14 14 13 14 14 15 13 19 13 12 11 13 18 13 12 16 23 49 57 63 81 87 92 91 96 99 100 100 100 100 92 85 100 96 94 79 72 93 87 94 66 95 100 100 100
12 11 14 14 13 14 14 15 13 20 14 12 12 12 13 23 11 14 16 25 60 78 78 83 86 84 89 92 100 100 100 94 91 90 100 83 81 93 94 100 99 91 68 75 99 100 100
11 11 14 14 13 14 14 14 13 18 15 14 13 12 12 16 20 10 15 18 33 38 68 73 81 80 74 80 90 98 96 92 85 92 100 85 80 80 87 98 84 81 98 100 97 100 92
11 12 14 14 13 14 14 14 13 18 15 13 14 13 12 12 20 10 9 16 20 32 52 86 80 84 76 76 85 90 91 92 83 93 94 73 71 70 66 89 100 100 96 73 75 81 73

GFSGBSN_250_rhum_036.txt.gz
RH
30 17 13 13 14 14 10 10 10 9 7 6 6 6 5 6 5 6 6 8 8 8 10 10 11 12 13 17 35 72 100 100 100 100 100 100 100 100 100 100 100 100 100 98 96 85 76
34 15 12 14 14 13 10 9 10 8 6 6 6 5 5 5 5 4 5 6 8 9 9 10 11 11 13 18 26 50 92 100 100 100 100 100 100 100 100 100 100 100 100 98 99 100 100
26 14 13 13 13 12 9 9 9 7 5 5 4 4 4 3 2 2 2 4 6 9 9 11 11 11 14 19 25 44 66 84 100 100 100 100 100 100 100 100 100 100 100 100 100 100 99
23 14 13 13 13 11 8 9 7 6 5 4 4 3 2 2 2 2 2 2 4 8 10 10 10 11 18 18 26 34 52 76 94 100 100 100 100 100 100 100 100 100 100 100 100 100 100
18 14 13 13 13 10 8 8 7 5 5 4 3 2 2 2 2 2 2 2 2 6 11 10 11 12 17 24 42 42 33 57 85 92 100 100 100 100 100 100 100 100 100 100 100 100 100
16 13 13 12 12 10 7 8 6 5 5 4 3 2 2 2 2 2 2 2 2 4 10 11 11 12 14 47 48 56 50 54 82 95 92 100 100 100 100 100 100 100 100 100 100 100 100
14 13 14 12 11 9 7 7 6 4 4 4 3 2 2 2 1 2 2 3 2 3 8 12 13 15 15 28 38 47 54 79 81 82 88 95 95 100 100 100 100 100 100 100 100 100 100
12 14 13 12 11 9 6 7 6 5 4 3 2 2 2 2 1 2 2 3 3 3 7 16 18 18 15 23 43 93 66 65 69 75 86 92 92 98 100 100 100 100 100 100 100 100 100
13 13 14 12 10 8 7 7 6 5 4 3 2 2 2 1 1 2 2 3 3 3 6 18 22 23 17 21 31 58 80 100 99 80 85 92 96 100 91 85 94 100 100 100 100 100 100
13 14 15 12 10 8 7 7 6 5 5 3 2 2 2 1 1 2 3 3 3 3 5 15 30 26 18 20 22 35 70 84 100 98 65 86 98 100 93 85 98 87 84 100 100 100 100
13 14 14 12 10 7 7 7 6 5 4 3 2 2 2 2 1 2 3 3 3 3 4 18 34 35 20 26 30 25 28 69 100 100 97 94 98 99 100 91 80 89 93 86 86 99 100
14 14 13 11 10 7 7 7 6 6 5 3 2 2 2 2 1 2 3 3 3 3 5 17 36 28 27 32 36 33 29 36 67 99 100 100 93 87 91 96 92 76 86 94 88 76 77
14 15 12 11 10 8 7 7 6 6 5 3 2 2 2 2 2 2 2 2 3 5 14 31 34 37 41 69 73 48 34 38 45 61 100 100 100 98 91 84 100 81 78 82 85 87 90
14 14 13 11 10 8 7 6 7 6 5 4 3 3 2 2 2 2 2 3 4 8 20 33 41 52 69 74 64 36 30 32 43 42 60 92 100 99 98 95 100 93 85 86 88 90 88
14 14 12 11 10 8 8 6 6 6 6 4 4 3 3 3 2 3 3 4 9 19 33 37 48 52 79 84 63 43 37 41 46 48 44 56 83 99 93 92 98 98 98 93 97 98 84
14 13 12 11 11 9 8 7 6 6 6 4 5 3 4 4 4 4 4 7 20 33 37 65 88 87 81 96 88 69 67 81 65 49 48 56 84 97 90 93 90 96 100 98 82 72 76
15 13 13 11 12 10 8 7 6 7 7 5 6 4 5 5 5 5 6 13 27 33 60 76 79 92 100 96 88 89 95 83 79 83 78 73 69 80 85 93 89 92 87 90 77 69 64
14 13 12 11 12 12 9 8 6 8 8 6 6 6 5 7 7 7 10 20 29 44 68 58 67 71 62 76 84 85 84 80 85 82 76 72 66 68 73 74 80 83 85 90 87 99 84
13 13 12 12 11 13 12 9 8 8 9 7 7 9 6 8 9 8 13 26 45 75 74 81 96 99 97 100 100 95 80 83 78 68 61 55 58 58 64 68 68 64 71 77 85 86 89
14 13 11 10 11 11 13 11 9 9 10 9 8 10 8 9 11 12 15 25 52 74 84 95 97 90 94 94 89 98 98 100 94 91 98 91 95 92 99 95 89 88 97 99 96 98 81
13 12 10 10 11 11 12 12 10 10 10 11 10 11 13 9 14 15 17 30 46 64 81 86 89 99 98 88 93 100 100 100 99 94 90 86 94 100 86 85 86 85 88 90 96 89 82
12 11 10 10 10 11 13 12 12 12 11 11 11 12 15 10 15 20 22 24 49 72 74 81 85 91 92 88 93 96 92 96 97 89 91 94 93 76 64 62 67 78 87 86 88 84 99
11 10 9 10 10 11 13 12 13 12 11 11 13 14 16 16 15 25 27 31 42 54 65 78 92 98 96 90 92 91 94 100 88 68 63 63 65 75 83 84 83 82 71 89 83 85 75
10 10 9 8 10 12 14 12 14 12 11 12 13 14 16 20 17 23 33 35 39 50 66 85 98 97 86 90 93 99 100 97 89 92 90 90 86 74 80 86 82 79 80 78 88 98 85
10 10 9 9 10 12 15 13 14 13 12 11 10 14 16 19 23 20 30 35 43 49 69 82 89 92 81 94 96 99 100 100 100 94 90 90 84 80 83 79 74 86 83 71 66 90 98
10 10 8 9 11 13 14 13 14 14 13 12 11 11 12 18 21 25 22 34 40 52 64 78 84 85 82 90 92 97 100 100 100 100 96 93 92 89 84 72 79 83 98 76 84 86 99
10 9 8 9 12 14 14 12 14 16 15 13 11 11 10 14 19 22 24 19 29 57 59 68 77 84 81 84 86 86 93 100 100 100 99 99 92 87 84 73 75 82 83 80 86 91 100
9 8 8 10 12 14 13 13 13 15 15 13 13 12 12 10 14 20 24 22 18 33 62 67 70 76 80 84 88 86 91 93 99 100 99 91 83 90 82 79 91 96 80 80 95 100 89
8 8 9 11 12 12 13 13 13 15 14 14 12 12 12 10 9 13 18 29 15 18 34 64 72 76 77 76 85 86 82 90 98 100 100 93 87 79 72 80 97 96 73 91 99 89 81

GFSGBSN_250_rhum_039.txt.gz
RH
34 34 16 12 10 10 7 8 7 8 8 7 7 6 5 4 4 3 3 3 5 6 6 6 8 9 10 12 13 23 29 64 100 100 100 100 100 100 100 100 100 100 100 100 100 100 100
36 30 13 11 10 9 7 8 7 7 7 6 5 5 4 3 2 2 2 2 3 5 7 7 8 8 10 12 12 16 25 48 100 100 100 100 100 100 100 100 100 100 100 100 100 100 100
27 18 12 10 9 8 8 7 6 6 7 6 5 4 3 2 2 2 2 2 2 3 6 7 6 8 10 14 12 14 22 41 100 100 100 100 100 100 100 100 100 100 100 100 100 100 100
24 15 10 9 9 10 8 6 6 6 6 5 4 3 3 2 2 2 2 2 2 3 4 7 7 9 12 13 13 15 18 35 91 100 100 100 100 100 100 100 100 100 100 100 100 100 100
18 12 10 9 10 10 8 6 5 6 5 5 4 3 2 2 1 1 1 2 2 3 3 6 8 9 12 13 16 14 16 25 54 100 100 100 100 100 100 100 100 100 100 100 100 100 100
16 10 9 10 11 10 8 5 5 5 4 4 4 3 2 2 2 1 1 1 2 3 3 6 10 10 13 14 16 15 17 24 34 72 100 100 100 100 100 100 100 100 100 100 100 100 100
11 9 10 11 11 11 8 5 5 5 4 4 4 3 2 2 2 1 1 2 2 4 3 4 12 14 14 14 16 16 17 24 27 40 78 100 100 100 100 100 100 100 100 100 100 100 100
9 10 12 12 11 10 9 6 5 5 4 4 4 3 2 2 2 1 2 2 2 4 3 5 14 15 14 14 15 16 19 23 39 39 54 81 100 100 100 100 100 100 100 100 100 100 100
10 12 13 12 11 11 9 6 5 5 5 4 4 2 2 2 1 1 2 2 3 4 4 6 15 17 15 14 18 25 33 30 40 52 60 98 95 100 100 100 100 100 100 100 100 100 100
12 13 14 13 12 10 9 6 5 4 5 5 4 2 2 2 1 2 2 3 3 4 4 8 16 17 17 17 19 29 50 42 54 52 55 69 86 98 98 100 100 100 100 100 100 97 100
15 14 13 13 10 10 8 6 5 4 5 5 3 2 2 2 1 2 3 3 4 4 4 7 18 17 16 19 22 29 56 57 58 60 75 87 89 93 100 98 99 100 100 100 100 100 100
16 15 13 13 10 10 7 6 6 5 5 5 4 2 3 2 2 2 2 3 4 4 5 9 17 20 21 22 23 33 74 44 77 73 61 76 79 91 94 94 92 94 97 97 99 100 100
16 15 12 12 10 10 7 6 6 5 5 5 4 2 3 3 2 2 2 2 4 4 7 15 24 28 29 32 33 44 57 38 70 83 90 81 88 97 100 100 100 95 92 88 85 88 95
16 16 12 11 10 10 8 6 6 5 5 6 4 3 3 3 3 3 2 2 4 8 22 22 28 34 39 44 45 61 60 51 51 94 100 100 97 84 91 97 98 99 97 98 99 90 83
16 16 12 11 10 10 9 6 6 5 6 7 6 4 4 5 4 4 4 4 6 13 23 34 35 39 50 57 64 61 44 37 41 52 90 100 100 100 90 80 80 94 96 95 94 87 82
16 16 12 11 10 10 9 7 7 6 8 8 7 4 5 6 6 6 6 8 16 26 34 41 60 76 59 72 68 59 46 41 34 45 44 73 89 94 100 90 88 80 87 93 99 93 89
16 15 13 11 10 10 9 7 7 7 9 10 9 6 6 9 8 8 11 18 30 34 52 62 63 75 80 61 53 39 32 33 42 49 56 49 54 75 87 86 99 100 98 82 84 88 95
15 13 13 11 10 10 10 9 8 8 9 12 10 9 8 9 11 12 16 21 29 37 53 56 68 74 62 76 70 54 45 63 72 76 70 64 57 54 76 84 91 97 100 81 88 91 98
14 12 13 11 11 11 11 10 8 8 10 13 12 11 9 11 14 14 24 25 39 50 71 84 93 100 100 100 100 100 97 88 81 70 70 72 86 90 82 87 89 86 86 90 94 99 89
12 12 12 11 12 12 12 11 9 9 11 13 13 13 11 13 15 17 20 37 49 66 76 88 85 88 95 98 96 99 97 94 95 94 100 96 99 98 92 82 83 85 88 96 89 85 82
12 12 12 12 12 11 12 11 10 10 11 13 14 13 13 14 17 20 23 24 44 65 76 77 78 87 97 85 78 86 87 91 87 82 78 78 77 69 69 68 62 70 81 78 84 90 88
12 12 12 11 11 12 12 11 10 11 12 13 14 14 13 16 17 20 25 23 36 53 66 74 78 83 89 92 90 86 75 73 81 90 85 93 92 86 82 71 83 97 99 100 100 100 99
12 12 11 11 10 11 10 11 10 11 13 14 13 15 14 15 19 21 31 31 29 42 56 67 74 80 85 82 79 86 97 95 96 98 96 86 95 100 93 90 98 98 98 95 99 100 99
11 11 10 11 10 9 9 11 11 10 13 14 13 14 16 17 18 24 26 34 39 35 43 57 68 79 79 84 74 88 91 98 100 100 100 100 94 84 73 67 59 64 83 98 100 98 88
9 10 9 10 9 9 9 10 10 10 12 14 13 13 16 18 21 21 26 33 44 45 46 48 62 73 81 82 77 85 85 95 91 76 65 59 57 60 68 71 84 96 100 89 100 100 99
8 9 8 9 8 8 8 9 9 10 11 12 11 12 13 14 23 29 23 28 36 46 59 58 59 67 76 78 80 89 93 89 80 73 73 71 70 78 86 96 94 89 87 94 99 86 90
7 8 8 8 8 8 8 9 8 9 10 10 10 11 12 11 14 24 30 24 28 42 54 63 69 78 79 80 82 91 94 93 89 89 89 88 84 87 90 87 83 86 87 90 97 88 86
7 7 7 7 7 8 8 8 8 8 8 9 10 10 11 11 11 13 20 30 24 29 36 55 71 84 83 83 79 90 94 100 96 99 100 100 95 92 86 82 88 92 93 87 99 100 89
7 7 7 7 7 7 7 7 8 8 7 8 9 10 11 11 10 13 12 17 23 25 28 32 52 85 91 83 79 86 93 98 100 98 97 93 87 92 75 81 86 90 100 94 100 96 94

GFSGBSN_250_rhum_042.txt.gz
RH
26 27 13 10 9 10 9 9 8 8 7 6 5 4 4 4 3 3 2 2 2 2 3 4 5 5 5 6 8 10 12 32 98 100 100 100 100 100 100 100 100 100 100 100 100 100 100
34 25 13 10 10 10 9 8 7 7 6 6 4 4 4 3 2 2 2 2 2 2 2 3 4 6 5 6 8 9 10 13 67 100 100 100 100 100 100 100 100 100 100 100 100 100 100
33 26 14 10 10 10 8 7 7 7 6 5 4 3 3 2 2 2 2 2 2 2 2 3 3 5 5 8 7 10 10 12 23 100 100 100 100 100 100 100 100 100 100 100 100 100 100
26 22 16 10 10 9 7 6 7 7 6 4 4 3 3 2 2 2 2 1 1 1 2 2 3 5 8 7 7 12 12 13 15 81 100 100 100 100 100 100 100 100 100 100 100 100 100
23 20 16 11 10 8 7 6 6 7 6 4 4 3 2 2 2 2 1 1 1 1 2 2 4 5 10 8 9 10 13 15 14 22 99 100 100 100 100 100 100 100 100 100 100 100 100
28 22 14 10 10 8 6 6 6 6 5 4 3 3 2 2 2 2 1 1 1 1 2 3 4 6 13 10 9 11 15 15 15 18 27 96 100 100 100 100 100 100 100 100 100 100 100
27 20 14 10 10 8 6 6 5 6 5 4 3 3 2 2 2 1 1 2 2 1 2 3 4 10 13 12 11 13 16 17 16 21 31 34 88 100 100 100 100 100 100 100 100 100 100
26 18 12 11 10 9 6 6 6 6 5 4 3 3 2 2 2 1 1 2 2 2 3 4 5 8 12 13 13 15 17 18 18 22 36 42 58 95 100 100 100 100 100 100 100 100 100
25 15 12 11 11 10 7 6 6 6 5 4 4 3 2 2 2 1 2 2 2 3 3 5 6 8 15 15 14 16 20 19 20 26 41 44 42 62 100 100 100 100 100 100 100 100 100
22 15 13 11 12 10 8 6 6 6 5 4 4 3 2 2 2 2 2 2 3 3 4 5 7 10 15 16 17 19 20 19 21 25 30 27 28 61 83 100 100 100 100 100 100 100 100
21 12 12 12 13 11 9 6 6 6 5 5 4 3 2 2 2 2 2 2 3 4 4 3 5 12 15 17 17 17 22 18 22 26 31 26 38 60 84 98 100 100 100 100 100 100 100
18 11 12 12 13 12 10 7 6 6 6 5 5 4 3 2 3 2 2 2 3 4 4 5 9 14 17 18 20 23 31 21 26 26 24 34 34 52 71 94 100 100 100 100 100 100 100
14 12 13 12 13 12 10 8 6 7 6 5 5 5 4 3 3 3 3 3 3 5 6 10 13 17 20 20 23 27 34 25 29 33 31 25 32 45 61 91 94 100 100 100 100 100 100
12 13 13 13 13 12 11 10 7 7 7 6 7 7 5 5 5 5 4 4 6 8 14 19 23 25 24 25 26 32 43 28 36 54 70 56 46 52 79 77 100 98 91 95 100 100 100
14 14 13 13 12 12 11 11 8 8 8 9 9 9 6 6 8 8 6 5 11 17 25 29 28 26 30 32 38 42 51 30 34 48 64 66 67 75 79 91 86 93 98 100 100 100 98
14 13 13 12 12 12 12 12 9 9 7 11 11 10 8 8 11 13 11 12 15 19 31 32 33 34 35 36 44 41 48 33 45 65 78 88 71 90 99 99 95 91 99 92 93 88 88
13 13 13 12 12 13 12 11 9 10 7 10 13 12 9 9 12 17 18 16 21 23 28 30 27 25 32 33 39 42 39 43 46 58 80 96 97 94 92 92 94 98 98 93 92 98 96
12 12 12 12 12 12 12 10 10 10 8 10 14 14 11 10 12 21 22 22 23 28 33 34 39 51 59 69 77 67 60 62 54 49 53 77 94 96 100 95 89 80 70 76 86 90 88
11 11 11 12 12 12 11 10 9 9 9 9 13 15 12 10 12 21 27 26 28 36 47 61 72 84 88 92 82 60 49 45 39 47 58 68 79 87 97 95 87 87 98 88 87 82 80
10 11 11 12 11 11 9 9 9 10 10 9 12 15 15 12 11 18 30 33 31 39 48 62 74 76 72 68 62 57 53 49 46 54 62 71 82 74 75 77 87 87 94 95 99 100 99
10 10 11 11 10 10 8 8 8 9 9 10 12 14 15 15 13 14 23 37 42 41 45 51 62 70 70 69 69 68 58 56 61 66 68 71 66 68 74 78 69 65 69 77 84 93 78
10 10 9 10 8 8 8 8 8 9 9 9 12 15 14 16 14 13 18 29 48 53 48 45 51 61 69 72 67 70 74 71 74 80 84 88 86 84 86 80 78 77 82 83 90 96 84
10 9 8 8 7 7 7 7 8 9 8 8 10 13 16 15 16 14 15 23 37 65 72 54 56 59 65 74 76 82 80 77 73 74 80 83 72 62 58 64 78 82 81 81 88 92 99
8 8 7 7 7 6 7 7 8 8 9 8 8 10 13 17 16 16 17 17 26 43 68 76 71 62 62 69 74 77 82 75 85 90 88 94 94 87 78 85 84 80 82 95 100 100 100
8 6 6 6 6 6 7 7 8 8 8 8 8 10 10 14 18 18 18 20 19 30 48 71 85 90 76 78 77 75 85 87 93 100 100 100 100 100 97 100 100 98 100 99 99 99 98
6 6 6 6 6 6 6 7 7 7 8 7 7 9 9 10 15 20 20 19 20 19 31 46 63 87 94 86 90 80 84 84 96 97 91 88 84 91 95 86 66 65 70 80 89 97 98
6 6 6 6 6 6 6 7 7 7 7 7 7 8 8 8 11 14 19 22 21 23 20 32 49 72 78 85 96 92 79 82 85 84 72 58 57 61 62 67 72 77 86 99 100 100 100
6 6 6 6 6 6 6 6 7 7 7 7 6 8 8 8 8 11 13 16 22 26 24 21 33 47 66 82 89 97 85 86 80 78 69 68 67 70 74 78 84 88 98 100 96 100 100
6 6 6 6 6 6 6 6 6 7 7 6 6 7 7 8 7 10 11 12 15 22 26 22 22 34 42 65 82 97 85 90 91 84 72 68 72 76 80 96 91 85 91 100 99 100 100

GFSGBSN_250_rhum_045.txt.gz
RH
26 22 16 10 7 7 7 6 7 6 6 6 4 4 3 3 3 2 2 2 2 2 2 2 2 4 5 5 7 7 7 7 11 28 92 100 100 100 100 100 100 100 100 100 100 100 100
28 22 14 8 8 7 7 6 6 6 5 5 4 3 3 3 2 2 2 2 2 2 2 2 2 3 4 5 7 6 6 8 9 16 58 100 100 100 100 100 100 100 100 100 100 100 100
25 19 13 9 8 6 6 6 6 6 5 4 3 3 2 2 2 2 2 2 2 2 2 2 2 2 3 6 6 6 7 8 9 13 18 93 100 100 100 100 100 100 100 100 100 100 100
19 21 19 11 8 7 6 6 6 5 4 4 3 3 3 2 2 2 2 1 1 1 1 2 2 2 4 6 7 8 7 9 9 10 16 46 94 100 100 100 100 100 100 100 100 100 100
18 25 20 11 8 7 6 6 5 5 4 4 3 3 2 2 2 2 1 1 1 1 1 1 2 3 4 6 8 8 9 10 11 10 14 26 80 100 100 100 100 100 100 100 100 100 100
19 26 18 10 8 7 6 6 5 5 4 4 3 3 2 2 2 2 1 1 2 2 2 2 2 3 4 6 9 9 8 10 12 12 12 20 44 76 100 100 100 100 100 100 100 100 100
25 30 18 12 9 8 6 6 5 5 4 4 3 3 3 2 2 2 1 2 2 2 2 2 2 4 5 6 10 11 10 13 14 13 12 17 22 75 100 100 100 100 100 100 100 100 100
30 28 19 14 9 9 7 6 5 5 4 4 3 3 2 2 2 2 1 2 2 2 2 2 3 3 4 7 10 11 12 16 15 14 14 14 20 30 82 100 100 100 100 100 100 100 100
27 26 19 12 9 9 7 6 5 5 4 4 3 3 2 2 2 2 2 2 2 2 2 2 3 4 5 8 12 13 17 17 18 15 16 16 17 24 49 100 100 100 100 100 100 100 100
27 20 15 13 10 8 8 6 6 5 5 4 4 3 3 3 2 2 2 2 2 3 3 3 4 5 6 10 13 16 18 17 17 17 21 19 20 22 34 50 100 100 100 100 100 100 100
21 18 13 12 11 9 8 7 7 6 6 5 4 4 3 3 2 3 2 2 2 4 4 4 5 6 9 12 18 19 19 18 17 19 21 22 18 16 20 25 100 100 100 100 100 100 100
17 18 12 12 11 10 9 8 8 7 6 5 6 5 4 4 3 4 3 2 2 4 5 6 7 8 14 17 20 20 24 20 19 21 23 20 19 14 17 22 60 100 100 100 100 100 100
12 14 13 13 11 10 9 9 8 8 6 6 6 6 5 5 4 4 5 4 4 5 7 8 11 15 19 22 21 23 25 20 21 23 25 26 20 17 18 24 40 77 100 100 100 100 100
16 12 12 12 11 11 10 10 9 7 7 7 6 8 7 6 6 6 8 8 8 7 19 20 21 23 24 24 24 26 25 21 26 28 34 29 25 21 22 25 56 75 72 100 100 100 100
19 12 11 12 12 12 11 10 8 7 7 7 7 9 10 8 7 10 12 13 14 10 15 19 22 24 25 25 28 29 26 25 24 24 32 47 45 37 25 22 32 73 89 86 100 100 100
19 12 12 12 11 11 11 9 8 7 7 7 8 8 10 10 9 10 14 17 19 19 19 19 17 20 19 22 27 27 30 27 27 42 36 35 37 34 34 30 35 43 80 82 94 100 100
14 11 13 11 11 11 10 8 8 6 7 7 8 7 11 11 10 9 13 21 19 21 25 25 28 23 23 24 25 26 26 29 37 42 44 46 45 47 43 40 37 43 59 92 99 100 91
13 12 12 10 10 11 8 8 8 7 7 7 8 8 10 11 12 11 13 24 26 24 23 25 26 30 34 37 47 55 40 58 56 44 39 46 50 72 86 82 72 60 78 91 82 80 89
13 12 11 10 9 10 8 7 8 7 7 7 8 8 9 11 13 12 13 24 38 36 28 26 29 37 39 46 47 52 48 48 46 44 48 52 53 57 77 92 96 96 90 93 91 82 84
14 13 11 10 9 10 7 7 7 7 7 7 8 7 8 9 12 13 13 18 38 51 44 45 43 48 51 54 56 44 44 45 55 59 54 57 65 66 61 65 78 93 100 100 100 95 98
14 13 11 10 10 9 7 7 7 7 8 8 8 8 8 10 11 14 14 15 27 59 62 59 51 50 55 61 64 62 53 41 38 45 58 66 61 62 67 59 58 57 62 75 78 84 85
13 13 10 10 11 8 7 7 7 7 8 8 8 8 8 9 10 13 14 15 21 40 65 71 64 63 56 52 56 58 66 68 66 50 51 66 73 71 66 70 74 83 84 81 80 85 86
14 12 10 10 10 8 7 7 7 8 8 8 8 8 8 9 10 15 15 16 17 26 47 71 79 70 76 78 72 67 68 74 82 76 79 78 75 75 73 73 70 73 72 71 75 71 76
13 12 11 10 9 8 7 7 7 8 8 8 8 8 8 9 10 11 15 17 17 19 27 45 68 80 78 77 83 84 82 90 84 86 84 82 86 86 87 95 98 94 89 88 94 93 97
12 13 11 10 8 7 7 7 7 7 8 8 8 8 7 8 9 12 12 14 17 18 21 27 45 71 81 81 82 93 97 98 98 96 96 92 87 91 88 79 74 71 80 90 95 98 92
12 12 11 10 8 7 7 7 7 7 7 8 8 8 7 7 8 10 15 16 15 17 20 22 27 46 68 82 81 81 100 99 100 100 100 100 99 95 96 100 96 95 100 100 99 99 100
12 12 9 8 7 7 6 6 6 6 7 7 8 8 7 7 8 9 12 17 20 19 18 21 23 28 42 68 89 87 88 95 100 100 100 94 88 85 87 97 94 98 99 100 96 92 97
11 12 8 7 7 7 6 5 5 5 6 6 7 8 7 6 7 8 10 13 19 25 23 20 20 22 28 41 64 87 89 100 88 96 98 94 86 77 75 72 70 64 68 70 84 92 100
12 9 8 7 6 6 5 4 5 5 5 5 6 7 7 7 6 8 9 11 14 17 19 24 25 22 22 27 36 60 82 95 96 88 91 89 70 67 62 67 69 77 82 88 90 97 100

GFSGBSN_250_rhum_048.txt.gz
RH
26 23 23 17 12 7 5 5 4 4 5 4 3 4 3 3 2 2 2 2 2 2 2 2 2 2 4 5 6 8 7 6 7 11 27 54 93 100 98 100 100 96 75 90 100 100 100
23 23 24 15 11 7 5 5 4 4 4 4 3 3 3 2 2 2 2 2 1 1 2 2 2 2 3 5 6 7 7 6 7 8 15 34 98 100 100 100 100 100 100 100 100 100 100
23 23 23 12 10 6 4 5 4 4 4 3 3 3 2 2 2 2 2 1 1 1 1 1 2 2 3 5 7 6 6 7 7 8 10 28 92 100 100 100 100 100 100 100 100 100 100
23 25 18 13 8 5 4 4 4 3 4 3 3 3 2 2 2 2 1 1 1 1 1 1 2 3 4 4 7 6 6 7 8 8 9 16 49 100 100 100 100 100 100 100 100 100 100
23 23 21 14 7 5 5 4 4 3 4 3 3 3 3 2 2 2 1 1 1 1 2 1 2 3 4 5 6 6 6 7 9 8 9 12 26 77 100 100 99 97 100 100 100 100 100
28 24 22 14 7 5 5 4 4 3 4 4 3 3 3 2 2 2 1 1 1 2 2 2 2 2 5 5 5 7 8 8 9 9 10 11 13 43 100 100 100 100 100 100 100 100 100
26 22 16 10 7 6 5 5 4 4 4 4 3 3 3 2 2 2 1 1 2 2 2 2 2 2 3 4 6 7 9 9 11 10 11 11 11 21 81 100 100 100 100 100 100 100 100
24 21 14 9 7 6 6 6 4 4 4 4 4 3 3 2 2 2 2 1 2 2 1 2 2 2 4 4 6 9 10 12 13 12 11 12 11 14 26 98 100 100 100 100 100 100 100
25 18 12 8 8 8 8 6 5 4 4 4 4 3 3 3 3 3 2 2 2 2 2 2 2 3 4 6 8 10 14 18 17 14 12 13 12 11 19 62 100 100 100 100 100 100 100
27 16 10 9 9 9 9 7 6 4 4 4 4 4 4 3 3 3 2 2 2 2 3 3 2 4 6 7 9 10 17 18 17 15 12 13 12 12 16 26 90 100 100 100 100 100 100
36 14 10 10 11 10 9 8 7 5 5 5 5 4 4 4 3 3 3 3 2 3 4 4 4 4 6 9 10 13 24 22 20 18 14 14 13 14 14 23 38 98 100 100 100 100 100
24 12 12 12 12 11 10 9 8 5 5 5 6 6 4 4 4 4 5 4 3 3 5 6 6 6 7 8 15 20 22 23 22 16 16 14 16 17 17 16 27 33 78 100 100 100 100
14 16 14 13 13 11 10 9 8 6 6 6 6 6 6 5 5 5 6 5 6 6 6 7 8 10 13 16 18 21 20 19 17 15 14 15 14 15 18 16 16 24 29 74 100 100 100
16 19 16 14 13 12 10 9 9 6 6 7 7 7 7 7 6 6 7 7 11 13 9 10 13 20 25 21 25 25 22 19 22 21 19 18 18 14 15 16 16 18 26 37 78 100 100
18 16 15 16 14 12 10 9 9 7 7 7 7 8 7 7 7 7 10 10 14 16 17 15 16 19 24 23 24 25 20 17 21 22 23 20 19 16 17 18 19 21 22 31 51 73 100
16 15 15 15 16 12 10 9 8 8 7 7 7 9 8 7 7 8 9 10 18 19 21 21 20 16 17 20 20 17 21 24 23 23 23 21 22 22 19 21 24 26 26 32 42 63 75
15 16 16 16 15 12 10 10 9 8 8 7 8 8 8 8 8 8 9 9 16 23 25 22 22 26 22 22 22 21 19 21 25 26 28 26 26 23 25 26 27 40 46 37 44 79 69
15 20 18 18 15 12 9 10 9 8 8 8 8 8 8 8 8 8 10 10 16 27 30 30 25 23 24 26 27 30 28 28 26 29 31 45 35 40 39 37 34 33 35 44 42 57 67
17 19 20 18 14 11 9 10 10 8 8 8 8 8 9 8 9 9 9 10 14 24 33 41 41 33 32 31 33 36 32 35 38 38 42 43 52 54 53 49 40 33 29 32 39 42 56
18 18 21 21 14 10 9 9 9 8 8 8 8 8 8 8 8 10 11 11 11 19 32 43 50 54 50 46 50 54 57 47 42 44 42 42 37 41 47 55 56 56 53 43 53 76 80
16 19 23 22 16 10 9 10 8 8 8 7 8 8 8 9 8 9 11 12 13 13 25 37 45 55 64 68 73 68 58 48 58 53 48 47 44 46 60 65 88 96 85 79 66 62 74
21 19 24 21 17 11 9 10 8 8 8 7 7 8 8 8 8 8 10 12 12 14 21 37 48 52 61 72 79 78 70 65 48 49 53 54 59 64 66 76 74 85 99 98 98 96 90
23 18 20 20 16 11 8 9 8 8 7 6 6 8 8 9 9 8 9 10 14 14 15 22 36 55 61 67 74 73 75 74 70 69 51 45 56 68 68 64 65 67 67 82 91 97 98
16 14 21 20 15 12 7 7 7 7 6 6 6 6 7 8 9 9 8 9 13 15 16 17 24 38 60 75 77 78 74 82 85 84 87 84 69 62 70 75 79 72 70 70 71 72 76
20 13 17 15 16 12 7 7 7 6 6 6 5 5 6 7 8 9 9 9 11 15 14 16 18 25 35 59 74 84 84 81 85 84 89 91 94 96 97 99 99 99 90 82 76 76 80
15 14 12 13 13 12 8 6 6 6 5 5 5 5 5 6 8 9 9 10 11 12 16 16 16 18 25 40 52 72 91 94 84 94 97 97 96 98 99 99 99 99 96 98 99 95 95
12 11 11 10 11 10 8 6 6 5 5 5 4 4 5 5 6 8 8 9 12 14 12 14 17 18 19 24 36 56 73 97 97 90 93 99 100 100 100 100 100 93 89 89 93 95 96
13 10 10 9 8 9 7 6 5 5 5 5 4 4 4 5 6 7 8 8 9 14 13 14 15 18 22 23 23 35 62 82 91 95 95 90 95 100 92 95 100 95 99 95 96 95 99
11 8 8 7 8 7 6 5 4 5 4 5 5 4 5 5 5 7 8 8 8 12 14 16 17 15 17 20 23 24 38 62 77 95 98 89 87 97 95 93 98 93 99 98 96 100 100

GFSGBSN_250_rhum_051.txt.gz
RH
27 26 25 21 14 7 6 5 4 3 3 3 3 2 2 2 2 2 2 2 2 2 2 2 2 2 4 8 8 8 9 7 7 8 12 30 63 71 85 94 100 100 98 57 47 76 100
26 30 27 20 14 7 6 4 4 4 3 3 2 2 2 2 2 2 2 2 1 1 1 2 2 2 3 5 8 8 7 8 7 8 10 16 98 100 100 92 92 100 100 97 70 86 80
28 29 22 22 12 6 6 5 4 4 3 3 2 3 2 2 2 2 2 1 1 1 1 1 1 2 3 4 6 9 8 7 7 8 8 12 36 100 100 96 96 98 86 100 100 85 85
28 25 18 18 9 6 6 5 4 4 3 3 3 3 3 2 2 2 2 1 1 1 1 1 1 2 3 4 5 7 8 8 8 8 8 9 13 44 100 100 100 100 83 100 100 100 84
28 21 18 12 8 6 6 5 4 4 3 3 3 3 3 3 2 2 2 1 1 1 1 2 2 2 3 4 5 7 8 7 8 8 7 8 10 15 94 100 100 100 87 100 100 100 100
24 24 16 10 8 7 7 6 5 4 3 3 3 3 3 3 2 2 2 1 1 1 1 2 2 2 3 4 5 6 7 8 9 9 8 8 9 12 26 98 100 100 99 100 100 100 100
28 28 19 10 9 8 8 6 5 4 3 3 3 3 3 3 3 2 2 2 1 1 1 2 2 2 3 5 6 7 8 9 10 9 9 9 9 9 13 85 100 100 100 100 100 100 100
38 34 17 10 10 8 8 7 5 4 4 3 3 3 3 3 3 3 2 2 2 1 1 2 2 2 4 6 6 8 9 11 12 12 10 10 10 9 10 14 100 100 100 100 99 100 99
45 33 16 11 11 10 8 8 6 5 4 4 4 3 4 3 3 3 3 2 2 2 2 2 2 3 4 6 7 8 9 11 13 14 12 12 11 10 9 11 87 100 100 100 100 100 96
39 28 19 14 13 10 9 7 6 5 5 4 4 4 4 4 3 3 4 3 2 2 2 2 2 3 5 6 7 9 11 12 14 14 14 12 11 10 10 10 44 100 100 100 100 100 94
31 36 27 20 14 12 8 7 6 6 5 5 6 5 5 4 4 4 4 4 2 2 3 3 4 4 5 6 9 10 13 15 18 19 14 12 12 10 10 10 13 83 100 100 100 100 100
25 36 29 42 23 13 9 7 7 6 6 6 6 6 6 5 4 4 4 5 4 4 4 4 5 6 6 8 13 14 16 16 20 18 15 15 13 12 10 10 12 18 94 100 100 100 100
23 29 31 52 44 16 11 7 7 8 7 7 7 8 7 6 5 5 5 6 6 10 7 4 7 8 8 9 10 13 15 17 22 19 15 13 12 12 11 12 13 15 23 94 100 100 100
25 32 39 49 43 18 14 8 7 8 9 8 8 8 8 8 6 5 6 6 7 11 12 10 7 9 10 12 12 14 14 13 15 16 16 13 12 11 11 13 15 15 17 24 84 100 100
32 33 32 39 41 29 14 11 6 7 9 8 8 8 9 9 8 6 7 7 9 12 14 15 15 12 13 18 18 22 18 20 18 17 16 16 13 12 13 13 14 15 15 17 25 52 84
28 25 30 32 33 30 18 14 8 6 8 9 8 8 8 10 9 7 7 8 10 13 15 16 18 21 17 17 18 22 24 25 25 22 19 17 17 16 16 16 16 17 18 19 18 29 42
27 29 24 25 28 31 25 13 9 7 7 9 7 8 8 10 10 8 7 9 11 16 20 19 19 20 23 23 22 22 23 25 24 24 22 21 21 18 18 19 20 17 20 21 22 26 37
26 24 21 26 22 24 25 15 10 7 5 7 8 7 8 9 10 10 8 8 10 15 20 24 24 22 21 24 26 30 34 31 31 30 29 28 24 27 26 24 23 24 26 27 32 36 45
25 20 22 26 24 30 22 16 9 7 6 6 7 7 7 7 9 10 9 8 9 12 21 28 34 33 27 26 26 27 28 29 32 36 36 37 34 41 39 36 36 32 30 29 28 31 39
22 23 24 30 37 39 22 23 11 7 6 5 6 7 6 6 9 9 10 8 8 11 14 27 38 43 52 48 44 40 32 27 28 29 32 38 31 36 43 47 46 41 38 42 38 38 39
24 18 21 26 30 31 23 21 12 7 6 5 6 6 6 6 7 9 10 9 8 11 12 18 30 41 44 54 62 62 60 54 45 38 35 35 35 34 38 38 42 46 50 47 46 40 43
20 16 21 25 36 56 23 24 14 7 6 5 6 6 6 6 6 8 10 10 9 10 13 14 21 37 49 58 64 62 58 59 46 47 44 45 47 41 42 51 61 64 67 60 61 60 49
21 26 25 33 40 58 22 19 13 8 6 5 5 6 5 6 5 6 8 10 10 9 11 13 16 25 40 52 61 67 62 58 60 51 45 46 45 44 38 42 54 64 72 74 62 56 62
24 29 26 29 44 46 23 17 10 8 7 6 6 6 5 6 5 6 7 9 10 10 10 13 14 17 28 40 54 60 64 61 58 59 58 50 39 49 55 58 65 58 66 77 84 86 83
28 40 32 42 53 36 20 13 9 8 6 6 6 6 5 5 5 5 6 8 9 10 10 11 13 14 18 28 46 53 60 71 66 61 60 62 71 64 64 73 66 75 75 78 78 88 96
33 32 34 31 35 21 12 11 8 8 6 6 5 6 5 5 5 5 5 7 8 10 10 10 12 15 16 19 28 52 61 60 72 68 67 67 69 83 93 92 89 88 82 79 80 80 81
33 28 21 28 25 14 11 10 8 7 6 5 5 5 5 5 5 5 5 6 8 9 10 10 13 14 17 18 21 32 51 71 68 75 78 82 94 87 94 92 92 90 92 93 90 90 85
18 22 22 21 20 13 11 9 7 6 6 5 5 4 5 5 5 5 5 6 7 9 10 10 11 13 15 16 17 22 33 58 72 74 78 94 94 94 100 96 86 83 84 87 90 88 94
16 17 17 17 16 15 9 8 6 6 5 5 5 4 5 5 5 5 5 6 7 8 10 11 12 10 13 15 16 19 22 31 55 82 84 76 91 97 95 95 100 94 92 96 82 78 83

GFSGBSN_250_rhum_054.txt.gz
RH
32 26 26 33 22 13 8 6 5 5 4 3 3 3 2 2 2 2 2 2 2 2 1 1 2 2 3 6 8 8 8 9 9 8 10 18 100 68 86 100 100 85 86 68 55 53 73
31 24 30 32 23 12 7 6 5 4 4 3 3 3 2 2 2 2 2 1 1 1 1 1 1 2 2 5 7 7 8 9 10 9 9 12 96 92 82 98 100 100 82 82 62 69 80
29 25 28 31 25 12 6 5 6 4 3 3 2 3 3 2 2 2 2 1 1 1 1 1 1 2 2 4 6 7 7 9 10 9 9 10 34 90 64 67 100 100 82 76 74 94 100
30 27 27 31 27 16 8 5 5 5 3 3 2 3 3 3 2 2 2 1 1 1 1 2 1 2 2 4 6 8 6 9 10 10 9 9 11 84 84 54 95 98 74 89 65 99 100
30 26 26 31 39 21 11 6 5 5 3 3 2 3 3 3 3 2 2 2 1 1 1 1 2 2 2 3 6 8 7 8 11 10 10 9 9 16 96 70 80 80 63 80 99 100 100
31 28 26 36 37 24 12 8 6 5 4 3 2 2 3 3 3 2 2 2 2 1 1 1 1 2 2 3 4 6 8 8 12 11 9 9 9 10 21 61 56 74 92 97 100 100 100
33 29 32 41 36 30 16 10 6 5 4 3 3 2 3 3 3 2 2 3 2 1 1 1 2 2 2 2 3 6 9 9 11 13 11 9 9 9 10 38 96 85 84 100 100 100 95
32 30 42 35 36 29 20 11 7 5 4 4 3 3 3 3 3 3 2 3 2 1 1 2 2 2 2 3 4 5 5 11 13 16 13 10 11 10 9 10 22 74 99 80 89 100 100
36 31 44 37 34 27 22 12 8 5 4 4 3 3 3 4 3 3 3 3 2 2 2 2 2 2 2 3 5 7 10 11 17 16 18 14 12 9 8 9 13 26 100 84 90 100 100
37 32 35 46 36 28 27 12 8 5 4 4 4 4 4 4 4 4 4 4 4 2 2 2 2 2 3 4 5 6 8 13 12 13 14 15 12 10 10 10 11 15 100 84 71 100 100
34 31 28 47 34 31 24 12 8 6 4 4 5 4 4 4 4 5 4 5 5 3 3 3 4 4 5 6 6 7 10 15 14 14 15 13 12 12 11 10 10 13 30 100 100 100 100
35 36 31 38 35 36 27 15 9 7 4 4 5 5 4 4 4 4 5 5 5 6 4 4 5 6 6 7 9 11 11 13 15 14 16 17 14 13 13 12 10 10 17 63 100 100 100
41 36 34 36 46 36 41 23 10 7 6 4 4 6 5 5 5 4 5 4 6 8 7 6 6 7 7 8 9 12 14 15 17 18 16 14 15 14 13 13 12 11 11 19 37 100 100
42 52 34 36 43 33 60 53 15 9 6 4 4 6 6 5 6 5 5 5 5 7 8 9 9 8 10 9 8 8 10 16 17 18 17 17 16 14 14 14 14 12 12 11 17 29 100
48 62 46 34 41 36 58 66 29 10 8 4 4 5 6 6 6 6 6 7 7 8 10 10 12 15 12 10 13 14 14 13 14 14 16 17 17 16 16 15 14 13 12 13 13 18 42
62 61 36 30 41 33 48 55 59 12 10 6 4 5 7 6 6 7 6 7 8 8 11 12 13 14 18 20 18 18 20 22 23 20 20 20 19 17 16 15 14 14 13 13 13 14 17
68 48 28 31 36 28 50 56 62 20 10 8 4 4 6 7 7 7 6 6 7 9 12 15 14 16 17 19 22 26 27 27 28 28 27 23 21 20 21 18 16 15 14 14 14 15 16
61 34 31 34 31 25 43 55 64 38 14 10 6 4 5 6 6 7 6 7 7 8 10 14 18 16 19 22 20 23 29 31 29 28 27 26 26 24 24 22 19 17 16 15 16 17 18
44 35 33 28 26 35 41 46 58 44 21 10 7 5 5 6 6 7 7 7 7 8 10 11 17 20 20 19 21 23 25 27 28 28 27 26 24 24 25 25 24 20 18 19 17 18 20
35 30 36 24 32 33 44 46 44 33 20 10 8 5 5 6 6 6 7 7 7 8 8 11 14 21 26 30 26 27 26 28 29 26 26 27 27 28 34 33 29 28 22 22 22 26 24
37 31 34 32 22 26 36 36 40 48 20 12 8 5 5 5 5 6 7 6 7 7 8 9 12 15 25 34 38 40 42 45 33 34 32 30 25 25 33 30 35 36 32 28 29 24 25
37 24 25 25 18 26 32 29 28 34 15 10 8 5 5 5 5 5 6 7 7 7 8 9 11 14 18 26 35 36 38 41 33 33 33 29 27 28 29 36 34 32 42 44 37 29 29
35 25 22 20 25 29 24 28 28 28 12 9 6 5 5 5 5 5 5 6 7 7 7 8 9 13 14 23 32 38 43 48 50 53 37 31 33 32 32 27 31 51 46 39 40 40 36
25 26 26 23 24 27 22 25 20 18 12 8 6 5 5 5 5 5 5 6 6 7 7 8 9 10 14 17 27 37 45 47 51 57 55 45 29 37 39 45 57 41 40 47 50 52 55
27 28 24 25 22 18 17 17 18 13 10 8 7 7 6 4 5 5 5 6 6 7 7 8 9 10 11 16 20 27 47 55 50 53 62 61 50 35 38 63 53 50 51 47 50 63 62
19 21 18 25 16 18 16 13 14 11 9 8 6 7 6 5 4 5 5 6 7 7 7 7 8 10 10 14 18 22 33 49 61 53 56 63 66 64 42 42 63 64 64 59 60 63 72
17 16 16 15 13 21 12 10 12 9 8 8 8 7 6 5 4 5 5 6 6 7 8 8 8 9 10 13 16 20 22 31 47 64 69 58 62 66 73 67 53 45 63 66 77 90 83
11 14 13 12 12 12 9 13 9 10 10 10 7 6 5 5 4 5 5 6 6 8 8 8 8 9 10 11 13 16 20 21 24 46 78 78 65 64 72 71 73 67 69 75 74 60 68
12 9 11 14 11 12 8 7 13 9 11 7 7 7 6 5 5 5 5 6 6 7 8 9 8 8 10 12 11 15 17 20 24 29 49 78 84 76 76 80 74 76 72 78 74 81 80

GFSGBSN_250_rhum_057.txt.gz
RH
26 37 29 30 34 44 27 18 10 7 6 5 3 2 2 2 2 2 2 2 2 1 1 1 1 1 2 4 7 5 8 8 9 10 10 10 13 66 48 81 100 100 100 97 58 79 69
25 31 30 36 26 41 42 23 11 7 6 4 3 2 2 2 2 2 2 1 1 1 1 1 1 1 2 3 5 5 6 8 10 11 10 11 12 84 66 62 80 100 100 99 58 66 65
24 27 34 36 25 48 36 32 13 7 6 5 3 2 2 2 2 2 2 2 1 1 1 1 1 1 2 2 5 5 6 8 11 13 12 11 10 17 93 46 64 100 100 99 82 72 61
22 26 32 34 35 38 38 39 18 7 7 6 4 2 2 2 2 2 2 2 1 1 1 1 1 2 2 2 5 6 6 8 12 11 12 12 11 12 41 88 57 91 100 100 77 75 56
23 26 35 32 36 33 45 40 16 9 7 8 4 2 2 2 2 2 2 2 2 1 1 1 1 2 2 2 4 5 6 9 12 13 13 12 11 11 14 100 72 61 89 100 94 83 82
23 27 36 31 43 40 43 43 24 11 8 8 5 3 2 2 2 2 2 2 2 1 1 1 1 2 2 2 4 6 8 9 12 15 15 13 12 11 13 85 95 83 88 100 100 75 81
22 29 37 32 41 45 42 39 37 14 8 8 5 3 2 2 2 2 2 2 2 2 1 1 2 2 2 2 3 8 10 8 12 15 13 12 12 12 14 54 100 85 69 77 100 79 82
24 33 34 38 43 52 42 40 38 17 10 8 5 2 3 2 3 2 2 3 2 2 2 1 2 2 3 2 3 4 7 11 10 14 14 14 13 12 11 14 93 86 76 91 84 54 66
28 31 35 41 43 53 39 41 35 20 10 10 5 3 3 3 3 3 3 3 3 2 2 2 2 2 3 3 3 4 8 11 13 15 12 14 14 12 12 12 25 97 100 83 72 60 70
26 30 40 39 48 56 41 40 44 26 13 10 7 3 3 3 4 3 3 4 3 4 3 2 3 3 3 3 3 5 10 12 11 14 13 15 14 13 12 11 12 75 83 60 76 76 61
28 30 36 49 49 50 44 39 47 35 16 10 6 3 3 3 4 3 4 4 4 4 5 3 3 4 5 4 5 6 7 11 12 13 12 14 14 15 13 11 10 11 66 45 76 80 64
27 29 42 48 54 47 44 42 42 33 19 13 7 4 3 3 4 4 4 4 5 4 6 5 4 4 5 6 5 6 9 10 11 15 16 13 14 15 14 12 12 10 11 70 100 67 60
27 35 45 50 62 45 42 42 44 32 18 12 9 6 4 3 4 4 4 4 5 6 6 7 5 6 6 7 7 6 9 11 15 13 12 10 11 13 13 12 14 13 12 12 32 90 66
31 40 44 55 65 48 35 38 50 30 19 14 10 7 4 4 4 4 4 4 4 6 6 8 9 6 6 11 10 9 9 10 11 12 14 15 12 12 13 12 14 17 15 12 12 14 91
34 40 48 51 61 42 34 36 44 34 25 16 12 8 5 4 4 5 5 5 5 5 6 7 11 10 8 9 12 15 13 14 16 15 17 18 18 19 21 18 16 18 19 17 14 12 12
40 40 54 66 62 43 32 37 37 47 23 28 15 10 6 5 4 5 6 6 5 5 6 7 10 13 12 10 12 19 23 21 21 21 20 21 23 23 23 21 20 21 18 18 16 14 13
41 50 64 68 51 41 31 30 38 38 25 25 16 9 6 6 5 5 5 6 6 6 6 7 9 14 14 13 14 18 21 24 25 24 26 26 26 26 23 23 23 21 20 18 17 16 14
51 53 66 68 42 37 30 28 43 44 35 38 20 8 6 5 5 5 5 6 6 6 7 8 9 12 18 15 14 14 19 21 26 30 33 31 28 28 26 24 23 19 17 16 16 16 15
62 60 71 58 42 39 26 24 38 39 37 49 23 11 7 5 5 4 5 5 6 6 6 8 9 11 15 20 18 16 17 20 24 26 28 27 29 31 31 27 22 21 19 17 16 14 14
66 56 65 49 37 32 26 24 30 34 42 46 44 13 7 6 5 4 4 5 6 7 6 7 8 10 13 20 27 24 20 19 21 22 23 25 25 25 26 26 24 22 20 18 17 17 15
67 61 56 40 36 31 25 25 28 25 38 39 39 22 8 5 4 4 4 5 5 8 7 6 7 9 11 12 21 31 30 25 21 20 21 20 21 23 23 24 26 25 24 21 19 17 17
66 58 51 34 38 36 29 23 27 23 39 40 56 39 13 6 4 4 4 4 5 7 8 6 7 9 10 14 16 30 36 41 41 29 25 21 21 21 21 21 22 25 28 26 21 18 17
58 51 38 34 32 28 25 22 21 20 32 42 40 38 14 8 5 4 4 4 5 6 8 7 7 8 9 12 15 19 30 37 52 49 43 35 30 25 23 22 24 29 25 25 24 20 19
52 37 33 32 28 21 22 21 19 25 31 31 48 55 26 11 5 4 4 4 4 5 8 7 7 7 8 10 12 16 22 24 34 42 48 48 47 36 27 26 30 32 31 36 30 26 33
36 34 35 29 21 21 19 20 18 16 30 31 37 46 21 13 6 4 4 4 4 4 6 8 7 7 7 9 11 15 18 20 32 42 46 52 54 52 40 39 31 27 30 38 35 34 43
34 34 35 26 23 19 17 19 15 13 17 29 34 46 28 10 9 4 4 4 4 4 5 7 8 7 7 8 10 13 15 18 24 34 52 57 57 56 56 47 35 28 33 36 41 45 46
39 33 33 28 20 18 15 16 10 11 18 20 34 40 30 14 9 5 4 4 4 5 5 6 7 8 8 8 10 12 13 18 21 25 40 57 69 66 62 57 52 36 45 48 51 44 52
46 38 32 23 16 17 15 9 7 10 18 22 23 34 33 15 7 5 4 4 4 5 6 6 7 7 8 8 9 11 12 15 19 22 26 42 61 74 82 67 64 56 62 49 49 49 58
49 42 27 22 17 13 11 10 7 8 16 22 24 30 33 21 10 6 4 5 5 5 6 7 7 7 8 9 9 12 14 16 18 20 23 36 57 68 75 79 78 69 68 77 70 60 60

GFSGBSN_250_rhum_060.txt.gz
RH
29 27 27 20 20 26 21 22 16 6 4 4 4 4 3 2 2 2 2 2 1 1 1 1 1 1 1 2 4 5 5 6 8 10 10 9 9 10 13 34 34 57 100 100 100 100 100
32 29 24 21 24 29 22 26 16 9 5 3 4 4 3 2 2 2 2 2 1 1 1 1 1 1 1 2 3 4 5 6 8 10 11 10 10 10 12 46 50 95 100 98 99 100 100
38 29 24 21 22 22 23 28 23 12 5 4 4 4 3 2 2 2 2 2 1 1 1 1 1 1 1 2 3 4 5 7 10 10 13 12 10 11 12 30 79 91 100 100 100 100 100
41 32 26 23 22 20 28 32 30 14 7 4 4 4 3 2 2 2 2 2 2 1 1 1 1 1 2 2 2 4 5 7 9 11 13 12 12 13 12 18 98 77 88 100 100 100 100
44 32 26 27 22 21 35 37 42 16 8 5 4 4 3 2 2 2 2 2 2 2 1 1 1 1 2 2 2 5 5 7 11 13 15 13 14 14 13 15 91 62 65 100 100 100 100
49 37 27 30 26 25 35 40 47 28 8 6 4 4 3 2 2 2 2 2 2 2 1 1 1 1 2 3 2 5 6 9 15 15 17 15 14 14 14 13 80 82 98 100 100 100 100
64 40 32 30 23 29 36 41 50 31 8 7 5 4 3 3 2 2 2 2 2 2 2 2 2 2 2 2 2 3 5 13 17 12 14 12 12 15 17 14 61 100 100 100 100 100 99
83 45 32 29 24 30 44 53 50 33 15 8 7 4 4 3 3 2 3 2 3 2 2 2 2 2 3 3 3 3 6 14 9 8 9 11 15 14 15 14 18 88 100 100 100 100 81
86 55 34 27 26 31 38 52 46 37 24 12 8 5 3 3 3 3 3 3 3 3 3 2 2 2 3 3 3 4 7 14 12 12 13 15 16 18 16 14 14 78 100 100 100 100 100
86 62 35 31 25 35 42 54 47 41 30 22 10 6 3 3 4 4 3 3 3 3 5 3 3 3 2 3 3 4 6 10 14 15 14 14 15 15 17 16 14 31 100 98 93 100 100
75 64 36 32 27 34 51 64 45 37 33 23 15 8 4 3 4 4 3 4 4 4 6 4 3 4 3 3 5 5 5 8 18 16 14 14 14 17 18 16 14 14 100 100 98 91 93
82 61 40 35 35 35 54 68 46 35 33 26 22 11 6 4 4 4 4 4 4 4 4 6 5 4 4 4 6 8 7 8 10 12 11 13 13 16 17 17 15 14 28 100 86 57 64
89 56 45 40 43 40 51 67 48 38 41 35 41 19 8 4 4 5 4 4 4 5 4 5 8 6 6 6 6 8 9 11 12 12 12 13 13 14 15 16 16 14 14 20 98 53 62
80 58 44 43 51 50 53 67 51 39 42 35 48 23 14 7 4 5 4 4 4 5 5 6 7 9 6 7 8 8 7 8 12 14 13 17 17 16 18 17 17 15 14 14 14 57 100
80 58 48 49 51 53 59 70 54 35 41 38 43 43 19 14 7 4 5 4 4 5 5 6 8 9 11 7 8 10 11 11 12 12 13 12 15 15 15 16 16 16 16 15 14 14 85
83 57 49 60 55 60 63 68 48 33 45 37 56 58 37 24 11 5 5 5 5 4 6 6 7 10 12 12 8 8 13 16 18 17 16 15 18 17 18 18 18 19 18 19 18 17 17
75 55 53 58 73 60 66 57 46 39 36 38 67 58 43 27 15 7 6 5 5 4 5 5 7 8 16 15 12 10 10 13 19 24 28 32 35 35 30 33 37 27 23 21 22 23 21
73 55 51 56 76 60 71 54 39 36 34 35 64 64 47 29 26 11 7 5 5 5 5 5 6 7 10 21 18 14 12 10 14 18 23 26 28 29 31 27 23 23 24 21 21 25 24
79 50 52 59 78 61 62 48 35 36 35 35 57 84 67 42 33 19 6 7 5 5 5 5 6 6 8 11 24 20 17 16 16 16 19 22 26 28 25 24 23 24 21 18 17 19 21
72 48 56 71 82 69 53 40 38 31 32 30 46 65 76 62 40 25 10 6 6 5 5 6 6 6 8 9 14 23 25 19 19 20 20 21 22 23 22 21 19 18 18 18 18 17 17
63 46 62 77 80 66 47 36 37 31 34 29 36 46 71 58 41 28 15 9 6 5 4 6 6 6 7 9 10 16 26 31 23 20 21 22 23 23 23 22 21 21 19 16 16 16 16
55 51 63 67 71 55 46 33 34 33 33 31 33 43 54 55 45 36 21 8 6 5 4 4 6 6 7 8 10 12 19 28 36 33 24 23 24 24 26 23 23 25 21 17 17 16 14
54 53 66 57 56 46 38 32 38 33 36 30 29 36 42 48 50 37 34 12 8 6 5 4 6 6 7 7 9 13 16 20 27 36 43 39 26 23 23 24 26 27 23 24 20 20 19
50 58 55 50 43 39 32 29 35 31 40 31 24 32 39 50 43 47 33 16 9 6 5 5 5 7 7 7 7 12 14 18 26 34 43 53 52 46 29 25 26 24 24 25 24 22 26
49 58 47 48 39 33 28 27 35 31 40 34 25 28 36 56 47 52 28 22 10 7 5 5 5 6 7 8 8 8 10 12 20 24 35 55 62 63 58 50 33 24 23 26 29 27 31
58 55 42 39 35 28 31 25 34 32 37 38 29 26 34 51 54 44 30 20 12 7 5 5 5 6 8 8 9 9 10 13 17 18 24 33 44 52 60 63 58 41 35 33 31 29 30
60 56 47 38 29 26 26 26 29 34 33 30 24 24 32 49 59 50 23 19 10 6 5 5 5 6 7 8 9 9 10 13 16 19 24 24 31 42 57 61 61 65 64 48 38 32 34
64 62 47 32 23 22 19 23 30 34 34 28 24 26 27 42 56 44 31 21 12 7 5 5 5 6 7 9 9 10 10 11 14 19 20 24 28 33 43 44 60 65 73 68 61 52 45
62 54 40 40 28 19 14 23 26 36 30 32 19 28 28 38 53 46 31 13 14 8 6 5 6 6 8 9 9 11 12 12 13 16 21 24 24 27 35 45 54 64 77 82 76 73 61

GFSGBSN_250_rhum_063.txt.gz
RH
78 81 76 75 43 27 18 21 21 17 12 4 4 3 2 2 2 2 2 2 1 2 1 1 1 1 1 1 2 3 4 4 4 5 7 8 10 8 12 14 14 15 21 22 36 99 100
91 88 81 76 43 36 21 20 19 24 11 4 4 4 3 2 2 2 2 2 2 2 1 1 1 1 1 1 2 3 4 4 5 7 7 9 12 10 12 15 14 15 19 23 44 73 100
88 85 89 79 52 38 23 23 22 28 16 5 4 4 3 3 2 2 2 2 2 2 1 1 1 1 1 1 2 3 4 5 6 8 7 11 12 10 12 15 14 14 23 27 28 60 100
96 76 78 86 61 44 25 25 27 27 20 7 6 4 3 3 2 2 2 2 2 2 1 1 1 1 1 1 2 2 5 7 9 9 9 12 12 12 11 14 14 14 20 29 28 37 77
97 78 84 83 64 47 32 27 25 36 22 14 7 4 4 3 2 2 2 2 2 2 2 1 1 1 1 1 2 3 4 7 11 12 13 11 12 13 12 14 15 14 16 22 33 35 55
92 84 82 88 77 63 30 26 31 45 32 24 8 4 4 3 2 2 2 2 2 2 2 2 2 2 1 2 2 3 3 5 11 16 13 7 9 10 11 12 15 16 17 52 65 66 52
94 80 78 92 88 64 35 28 34 50 35 25 13 7 4 4 3 2 2 2 3 2 2 2 2 2 2 2 3 3 3 6 13 15 10 7 10 12 15 18 18 18 19 100 100 96 84
97 77 78 90 83 66 46 31 36 54 57 29 16 8 5 4 4 3 2 2 3 2 2 2 2 2 2 3 3 3 3 6 13 18 13 9 13 15 17 18 18 18 18 73 100 88 100
100 76 78 98 87 65 44 44 38 51 58 36 26 13 6 5 4 3 3 3 3 3 3 4 3 2 2 3 3 3 3 6 15 18 16 12 14 16 18 19 18 19 18 86 100 86 100
88 82 79 99 95 72 52 44 34 53 57 38 32 19 8 6 5 5 4 3 3 3 3 4 3 3 2 2 3 4 8 12 18 23 16 13 13 15 18 18 18 20 19 82 100 100 96
84 86 77 98 91 73 58 48 38 51 57 44 35 28 10 7 5 6 4 4 4 4 4 4 4 3 3 3 4 4 4 8 14 14 12 10 9 14 16 18 18 21 20 60 100 99 87
79 85 78 96 89 72 62 54 41 55 54 39 43 34 16 10 10 10 6 4 4 4 4 4 5 5 4 4 4 5 5 6 6 9 12 12 12 17 18 18 19 18 20 18 100 91 66
75 82 83 86 91 74 63 66 43 60 52 39 45 42 32 16 17 15 9 6 5 5 5 4 4 6 6 5 5 6 7 7 10 13 14 15 15 16 18 19 19 20 20 19 43 100 93
79 81 79 83 96 80 65 61 53 67 56 42 33 40 45 28 16 21 19 9 7 5 5 5 4 6 8 7 6 8 10 12 15 14 14 16 18 16 18 19 20 21 20 20 20 99 100
75 83 85 80 99 84 70 62 59 60 61 48 32 40 45 48 21 18 28 13 8 7 5 5 5 5 7 10 8 9 12 13 14 14 17 17 19 18 18 20 20 22 21 21 20 41 92
78 82 86 83 100 84 67 64 61 59 64 47 42 37 47 58 27 22 21 23 7 7 6 6 6 6 6 8 11 10 13 16 16 17 18 16 21 22 20 20 19 22 22 22 23 21 21
78 72 88 90 97 85 65 64 65 61 59 46 40 36 43 57 52 23 18 25 12 9 6 6 7 6 7 7 11 12 11 13 16 18 21 25 25 22 25 23 25 26 24 24 26 26 22
73 87 88 99 98 83 68 58 66 62 60 43 39 45 47 49 65 25 15 24 17 9 8 6 6 7 7 7 10 12 13 13 13 16 18 22 27 37 47 46 42 40 31 27 28 31 28
86 84 92 100 91 86 80 57 66 63 57 38 39 42 43 42 58 57 20 17 20 12 9 8 6 6 7 8 9 15 16 15 14 14 14 16 17 21 30 34 36 40 41 36 28 26 29
84 77 91 100 90 85 82 58 67 65 55 39 37 41 44 46 55 62 38 21 25 16 9 8 6 6 7 8 9 11 16 18 17 17 17 15 14 14 16 15 17 22 23 22 24 23 24
89 82 87 100 88 85 76 53 62 70 52 39 38 43 43 44 60 48 54 26 20 18 10 8 8 6 6 7 8 11 16 21 23 21 20 19 19 17 16 15 16 16 16 16 17 17 19
96 81 86 93 90 84 73 51 58 63 51 34 40 42 48 38 48 58 67 46 25 26 10 8 8 6 6 7 7 9 12 21 27 30 27 24 25 24 24 20 20 20 20 20 18 15 15
96 82 82 89 90 86 71 55 54 65 47 37 37 44 44 39 39 45 61 38 27 21 9 8 8 7 6 8 8 8 11 15 22 33 42 41 32 29 28 26 24 26 20 19 19 19 18
92 85 87 86 88 93 69 55 57 66 40 40 41 51 44 42 36 47 61 48 33 23 8 7 9 7 7 8 8 8 9 12 18 27 37 49 57 55 38 38 35 25 24 24 22 20 22
91 86 82 84 84 85 58 52 67 57 43 46 48 51 46 39 39 53 59 63 35 22 12 6 7 6 6 8 9 8 9 10 13 18 29 40 46 54 61 63 59 45 37 31 28 21 24
98 84 84 85 78 74 47 49 64 50 44 44 50 47 45 36 37 46 64 57 52 24 12 7 8 6 6 6 9 9 9 10 17 15 18 31 46 55 54 58 59 57 62 52 42 30 33
98 86 85 78 79 56 40 49 56 48 44 49 48 46 38 36 38 42 53 53 42 21 10 7 8 6 6 6 8 10 10 10 13 16 17 18 24 36 47 55 52 61 64 60 51 42 39
93 88 80 78 51 34 38 45 43 46 50 54 47 45 36 33 31 40 50 50 54 27 12 6 7 7 6 6 7 9 10 10 11 13 18 22 22 23 31 39 43 54 58 59 60 54 47
100 91 70 57 42 34 43 44 39 46 50 53 52 45 39 37 32 37 44 55 42 29 17 8 6 6 7 8 8 10 11 12 12 12 18 23 24 21 24 26 29 49 62 70 65 60 63

GFSGBSN_250_rhum_066.txt.gz
RH
80 85 79 80 95 72 51 52 42 35 23 13 7 5 4 4 3 2 2 2 2 1 1 2 1 1 1 1 1 2 4 4 4 4 5 6 7 8 12 15 16 16 12 14 17 16 66
90 92 83 86 99 76 58 66 53 39 23 18 9 5 3 4 4 2 2 2 2 1 2 2 1 1 1 1 1 2 3 4 4 4 5 6 7 8 12 15 16 18 17 14 16 18 22
90 93 94 100 100 82 58 61 47 38 23 31 15 6 4 4 4 3 2 2 2 1 2 2 1 1 1 2 1 1 2 3 5 5 5 7 8 8 12 15 16 17 18 16 14 16 19
94 96 86 100 85 89 60 66 46 43 24 27 50 14 6 4 4 3 3 2 2 2 2 2 1 1 1 1 1 1 2 3 6 6 7 7 9 11 11 14 15 17 18 16 17 18 20
89 92 96 100 80 88 68 73 45 35 29 27 34 31 9 4 4 3 3 2 2 2 2 2 1 1 2 1 1 2 2 3 6 8 8 8 9 11 12 14 14 15 18 17 17 18 16
75 80 88 88 89 87 68 76 56 39 25 28 31 37 19 8 4 3 3 3 2 2 2 2 2 2 2 2 1 2 2 3 5 9 10 9 9 9 10 12 13 16 17 19 20 22 18
66 73 96 86 83 85 65 77 70 52 33 27 34 37 33 12 6 4 3 4 2 2 2 2 2 2 2 2 2 2 2 3 5 10 13 9 7 10 13 15 17 19 20 24 23 22 42
68 86 100 82 84 88 66 74 56 51 41 27 38 38 38 25 9 6 4 4 3 2 2 3 3 2 2 2 2 2 3 3 5 11 15 10 10 11 12 14 16 18 20 22 21 22 23
68 81 100 89 88 90 70 77 69 53 47 28 42 43 38 36 15 9 6 6 3 2 2 3 3 2 2 2 2 3 3 5 7 11 12 10 8 11 11 12 14 19 20 24 23 22 20
80 88 100 91 95 98 72 84 76 63 56 30 55 47 47 37 27 11 7 7 4 3 2 2 3 3 2 2 2 3 3 4 7 10 9 7 8 11 11 12 14 16 19 23 24 22 23
74 99 100 93 97 94 87 84 69 64 60 33 50 55 54 41 32 13 8 7 7 4 4 2 3 4 3 3 3 4 4 5 5 5 7 8 10 14 16 16 16 18 19 22 25 22 22
78 98 99 95 100 95 97 80 74 74 68 45 44 64 55 45 34 24 8 9 10 6 4 4 3 4 5 4 4 5 6 6 6 8 12 15 14 14 16 18 18 18 22 22 24 24 22
66 100 100 96 100 93 88 84 82 77 70 58 44 67 55 41 42 37 11 9 13 11 6 5 3 4 5 5 4 6 8 8 10 9 11 11 12 13 14 18 18 18 22 23 22 24 25
91 94 99 99 100 95 80 94 89 78 71 65 49 70 52 45 43 56 19 10 12 13 8 6 5 4 4 6 6 6 10 14 14 14 17 15 16 17 15 19 20 21 22 24 24 25 27
100 98 98 100 100 97 88 92 99 81 73 72 50 68 51 44 42 42 40 14 14 15 10 8 8 4 5 5 8 6 8 15 16 18 22 20 21 22 23 20 21 20 20 22 23 23 27
100 100 100 100 100 100 89 89 98 91 77 72 54 73 52 47 43 55 50 16 16 17 10 8 9 7 5 5 6 9 7 12 13 20 25 24 29 25 22 23 22 21 22 21 22 24 26
100 100 100 100 100 100 92 88 99 94 79 77 62 73 56 47 43 56 62 42 14 16 15 7 8 9 7 6 6 8 11 10 10 12 17 26 32 38 42 35 30 28 25 26 26 25 27
100 100 100 100 100 96 95 90 96 96 83 88 53 70 53 41 39 50 58 56 18 16 19 9 8 8 7 7 7 7 11 11 10 10 14 17 24 32 46 42 46 40 36 30 28 34 37
100 100 100 100 100 98 96 95 96 83 87 72 55 71 54 39 42 41 54 65 29 18 20 11 8 10 8 7 8 9 10 13 13 12 10 11 15 23 31 30 36 42 52 46 41 34 37
100 100 100 100 100 96 97 99 86 96 87 77 52 72 48 35 36 39 56 60 62 16 20 14 10 9 9 7 7 8 8 11 16 16 14 13 12 13 15 22 27 35 32 33 28 37 38
100 100 100 100 99 98 93 100 99 97 98 89 71 71 46 30 35 40 47 64 66 46 17 12 10 10 8 8 6 8 8 10 13 18 20 18 17 16 16 15 15 16 18 22 29 30 24
100 100 100 100 97 100 97 94 98 100 99 96 70 69 46 37 39 42 47 60 68 67 19 13 10 9 7 7 7 8 8 9 11 16 19 22 18 20 20 20 19 20 21 19 18 19 21
100 100 100 100 98 100 100 90 100 98 91 87 70 65 44 38 39 50 45 61 66 68 43 13 9 6 7 6 7 7 9 10 11 14 20 26 30 22 22 23 25 27 21 21 20 18 18
100 100 100 100 100 100 98 95 100 96 95 80 62 65 41 39 40 46 43 54 57 67 60 23 13 7 7 7 7 7 9 10 12 15 21 25 41 48 34 29 33 24 24 29 30 26 23
100 100 100 100 97 95 96 94 97 96 94 71 62 55 44 42 46 43 47 55 58 66 76 26 16 7 7 7 7 7 8 11 10 13 16 25 34 44 48 51 44 27 27 29 30 23 30
100 100 100 100 93 98 100 99 96 91 82 66 63 51 45 51 46 43 40 49 55 69 69 50 18 10 7 5 7 8 8 10 12 12 13 17 27 37 37 50 58 46 53 54 50 35 38
100 100 100 100 93 97 100 100 90 83 74 69 62 49 52 50 47 51 46 46 45 65 75 56 21 11 8 6 6 7 9 10 12 12 13 16 18 25 26 40 38 56 70 64 66 67 53
100 99 100 97 92 100 92 96 85 70 73 69 61 52 57 50 50 45 44 36 39 54 69 61 27 17 11 8 6 7 9 11 12 12 13 15 19 24 30 35 31 49 60 65 67 67 66
94 100 100 98 94 90 90 97 79 80 83 70 64 53 56 54 53 48 48 39 37 48 62 73 41 20 13 10 6 7 8 12 13 14 14 15 16 18 25 25 26 29 43 48 67 74 71

GFSGBSN_250_rhum_069.txt.gz
RH
58 68 54 49 70 72 51 46 48 43 30 24 20 19 12 8 5 5 5 4 2 2 2 1 2 1 1 1 1 1 2 3 4 4 4 6 7 7 8 12 14 15 14 16 14 16 18
42 60 60 50 69 84 62 46 53 52 32 30 26 22 14 9 5 4 5 5 3 2 2 2 2 1 1 1 1 1 2 2 4 4 5 6 7 7 8 10 15 16 15 16 14 17 19
40 42 57 51 72 91 65 60 48 60 34 33 24 21 16 11 6 4 5 5 3 2 2 2 2 1 1 1 1 2 2 2 3 5 5 6 8 8 9 9 14 17 14 16 14 17 17
36 44 59 53 69 84 78 63 50 68 51 43 26 24 20 11 9 5 5 5 3 3 2 2 2 2 1 1 1 2 2 2 2 4 6 6 8 8 9 9 12 17 15 14 16 16 18
44 41 55 60 79 84 83 71 63 69 67 36 29 30 21 18 12 6 6 5 3 3 2 2 2 2 1 2 1 2 2 2 3 4 7 7 8 8 9 10 11 15 16 15 17 16 17
52 42 50 62 94 92 84 73 75 67 68 50 32 34 29 17 20 13 6 6 5 3 3 2 2 2 2 1 1 1 2 2 2 4 8 8 8 8 9 10 12 15 18 18 18 19 21
59 42 50 61 93 96 90 82 75 70 70 51 32 38 31 26 23 16 8 6 5 3 3 2 2 2 2 2 2 2 2 2 2 4 7 8 8 8 9 11 13 18 22 24 23 22 21
60 46 50 57 100 97 100 87 84 71 75 62 42 46 43 27 27 23 11 6 5 4 4 3 2 2 2 2 2 2 2 2 3 5 9 9 7 9 8 10 15 20 22 23 24 22 20
64 51 60 60 100 100 100 84 84 74 81 81 54 57 49 34 34 31 18 8 6 5 4 4 2 2 2 2 2 2 2 2 3 4 8 10 10 9 9 12 15 18 22 24 24 23 20
73 59 62 74 100 100 100 94 77 84 81 77 59 57 54 33 44 36 24 12 6 6 5 4 3 3 3 2 2 2 2 3 3 4 7 9 10 10 10 12 15 19 23 25 24 23 22
85 72 68 85 100 100 100 99 75 82 85 74 76 62 64 46 58 46 30 16 6 6 6 4 4 3 3 4 3 3 3 3 4 4 6 8 11 13 12 12 14 17 20 21 23 25 24
74 80 77 94 100 100 100 100 89 86 90 81 84 64 72 55 66 45 33 21 9 7 8 7 6 4 4 4 4 3 5 5 5 5 6 8 11 13 12 13 13 14 16 18 22 23 25
69 88 78 97 100 100 100 100 92 99 95 85 86 79 73 54 68 44 32 26 13 10 8 7 10 6 4 5 5 4 5 7 10 10 12 13 14 16 16 14 14 14 15 19 21 24 26
76 84 85 100 100 100 100 100 92 100 90 95 89 88 72 57 71 45 34 36 18 8 10 7 10 8 6 5 7 6 6 8 14 17 19 18 18 21 22 20 17 17 17 18 22 26 28
82 83 87 100 100 100 100 100 94 100 87 99 88 80 77 61 72 45 39 42 31 8 13 9 11 10 7 6 6 8 6 6 11 16 21 26 28 24 23 23 21 23 20 18 20 24 26
100 89 98 100 100 100 100 100 100 99 88 94 89 77 79 66 67 44 41 45 45 16 14 14 9 14 10 6 7 7 10 8 8 11 15 22 28 34 33 29 24 22 21 21 21 22 25
100 100 100 100 100 100 100 100 100 100 90 93 90 86 88 85 67 46 42 41 51 48 13 13 12 10 12 9 6 7 8 10 9 8 11 13 23 31 38 37 33 32 28 24 24 26 25
100 98 100 100 100 100 100 100 100 100 90 93 87 89 90 92 66 46 36 45 47 60 29 18 13 13 13 9 8 7 7 10 12 10 11 14 18 23 31 40 42 38 35 32 31 33 30
100 100 100 100 100 100 100 100 100 100 100 85 97 86 98 85 65 45 37 48 49 60 60 16 13 11 12 10 8 6 7 8 12 14 12 12 16 21 24 35 42 48 43 42 41 38 38
100 100 100 100 100 100 100 100 100 96 97 98 95 85 93 69 66 42 39 44 44 60 58 46 16 10 10 10 8 8 6 7 8 14 16 14 13 15 20 22 29 33 38 35 35 44 46
100 100 100 100 100 100 100 100 100 94 95 100 93 78 96 70 62 39 40 40 46 48 61 54 24 13 9 9 9 8 8 8 8 9 15 16 16 15 15 17 20 23 24 32 32 32 27
100 100 100 100 100 100 100 100 100 96 95 100 79 90 92 74 53 37 40 43 45 49 64 53 40 18 13 9 7 8 8 8 8 10 13 18 18 16 16 16 16 18 21 23 25 30 31
100 100 100 100 100 100 100 100 100 97 100 100 89 96 87 67 48 37 40 48 44 46 58 55 49 26 14 12 9 6 8 8 9 9 10 16 24 24 20 18 18 19 16 18 18 18 20
100 100 100 100 100 100 100 100 100 94 100 98 97 85 83 68 46 44 41 47 43 45 55 61 59 32 16 10 11 8 7 8 9 9 10 11 19 24 23 26 23 18 20 23 23 21 22
100 97 100 100 100 100 100 100 100 100 100 90 96 96 82 60 49 45 44 50 49 50 51 62 62 43 24 12 9 10 7 8 9 11 10 11 13 26 26 32 37 28 25 24 24 22 30
100 100 100 100 100 100 100 100 97 100 96 99 100 82 78 57 51 41 50 51 50 51 48 60 67 52 29 12 11 8 7 8 9 10 11 11 13 17 22 27 31 22 33 49 48 35 33
100 100 100 90 100 100 100 100 98 99 100 100 87 88 75 60 53 54 53 51 56 54 44 53 65 61 30 16 10 9 8 6 9 9 11 12 13 16 17 25 20 24 42 49 57 64 61
98 91 94 100 100 100 100 100 98 100 100 96 87 83 72 58 54 57 50 56 61 58 50 51 56 67 38 20 12 9 8 7 7 9 11 14 15 16 20 23 21 22 35 45 59 63 69
72 88 100 100 100 100 100 100 100 100 100 79 79 74 65 65 56 54 46 57 65 60 57 46 49 76 54 24 17 12 9 8 8 9 11 13 15 15 15 18 25 25 30 34 38 44 48

GFSGBSN_250_rhum_072.txt.gz
RH
62 52 40 42 42 50 53 71 43 33 42 33 33 30 34 25 21 10 5 4 5 4 3 2 2 2 1 1 1 1 2 2 3 3 4 5 5 6 9 12 13 10 10 13 14 16 17
60 52 41 45 42 45 60 82 52 39 52 37 42 33 37 34 17 9 6 4 5 4 3 2 2 2 1 1 1 1 2 2 3 4 4 5 6 7 9 13 14 12 10 12 15 17 20
59 68 50 54 49 54 66 87 63 44 50 45 46 42 38 31 22 12 7 3 5 4 4 2 2 2 1 1 1 2 2 2 3 4 4 5 6 6 8 12 16 15 12 13 14 17 21
69 57 60 51 55 61 66 100 71 47 54 56 50 39 41 39 32 23 8 3 6 6 3 2 2 2 2 1 1 2 2 2 2 3 5 5 5 7 8 11 17 18 15 13 14 15 20
71 73 66 60 60 67 74 96 72 51 58 60 58 46 48 49 38 25 8 4 5 6 3 3 2 2 2 2 1 1 1 2 2 3 6 5 5 7 9 10 13 19 16 13 13 16 17
92 77 86 60 66 71 76 87 82 59 65 64 65 54 49 41 46 35 18 5 6 6 4 3 2 2 2 2 1 1 2 2 2 4 6 6 6 8 9 10 11 14 19 16 16 18 20
100 81 87 59 74 75 85 100 87 73 66 68 64 59 55 56 53 38 20 8 6 6 5 4 3 2 2 2 1 2 1 2 2 3 5 6 6 6 9 11 11 12 19 22 20 20 20
100 81 87 80 80 78 99 100 79 78 74 66 64 69 64 61 58 49 29 18 7 6 6 4 3 2 2 2 2 2 1 2 2 3 4 8 7 6 8 10 12 12 13 18 22 21 24
100 80 91 89 75 84 96 100 79 84 85 72 74 78 68 65 63 65 34 32 10 7 5 5 4 3 2 2 2 2 2 2 2 3 4 10 8 9 9 10 12 12 13 16 21 22 24
100 86 96 88 83 82 92 91 84 76 88 72 77 73 73 66 61 68 51 43 14 9 6 5 4 4 3 3 2 2 2 3 2 3 4 7 9 10 10 11 13 13 13 14 15 19 23
98 98 100 90 84 94 96 87 94 83 93 77 76 78 74 75 64 75 62 52 19 11 8 5 5 5 4 3 3 2 3 3 4 3 4 6 10 12 10 12 15 14 14 14 15 17 24
100 74 100 98 81 100 100 96 88 87 96 83 78 78 74 76 68 87 66 56 29 13 8 7 6 5 6 4 4 4 3 5 6 5 6 10 14 14 12 13 14 15 14 14 14 16 17
100 85 100 98 100 100 100 95 88 86 98 85 77 74 79 81 70 88 72 52 33 20 8 7 7 7 6 6 4 5 4 5 8 10 8 11 13 14 12 13 14 15 14 14 14 15 20
100 100 100 92 91 100 100 99 91 100 100 86 81 74 86 78 72 86 70 47 30 24 17 8 9 9 7 6 6 6 6 7 11 14 18 18 18 18 16 13 13 14 15 17 21 28 32
100 98 100 100 95 100 100 100 98 100 100 93 79 82 90 74 80 76 72 41 30 24 23 9 9 8 9 8 6 5 8 7 11 12 16 22 28 26 22 17 15 15 16 19 23 29 32
98 100 100 100 97 100 100 100 99 100 100 94 77 98 94 79 79 80 70 41 31 35 30 12 10 11 9 8 7 6 6 8 10 12 13 19 25 26 27 26 22 18 18 20 21 25 26
99 100 100 94 99 100 100 100 100 99 100 93 85 96 88 80 79 74 63 41 34 42 41 30 11 9 13 13 8 7 6 8 9 13 14 17 20 29 34 36 29 25 24 24 25 25 24
95 100 100 99 100 100 100 100 100 100 100 92 98 94 85 80 80 84 69 42 35 44 44 47 16 10 8 14 12 8 8 6 10 10 17 18 17 22 31 37 38 35 31 28 28 28 24
100 100 100 100 100 100 100 100 100 100 98 98 98 88 90 81 77 83 76 43 39 43 50 45 35 9 10 10 14 11 8 8 7 11 10 13 19 23 25 29 35 35 36 39 35 33 34
100 100 100 100 100 100 100 100 100 100 100 95 96 83 91 81 77 86 66 43 41 45 54 54 44 15 10 9 9 11 9 9 8 8 12 12 13 19 23 25 28 28 30 34 34 39 38
100 100 100 100 100 100 96 100 100 100 100 100 94 93 85 84 77 82 60 43 42 51 56 56 52 34 8 9 12 11 9 9 10 9 9 13 14 14 17 23 24 27 28 30 34 28 35
97 100 100 100 100 100 100 100 100 100 100 100 100 98 80 89 78 80 57 41 44 50 55 66 72 47 23 11 9 11 11 8 8 9 10 10 15 16 16 17 23 27 27 28 28 28 28
100 100 100 100 100 100 100 100 100 100 100 99 99 100 84 93 75 78 57 41 44 51 58 59 58 59 40 12 9 9 10 9 8 9 9 10 10 16 19 17 16 17 18 21 26 26 30
100 100 100 100 100 100 100 100 100 100 100 95 100 93 98 87 70 84 59 42 41 50 56 53 59 58 55 28 16 10 8 8 8 8 9 10 11 10 14 19 21 18 17 18 18 18 23
100 100 100 100 100 100 100 100 100 100 100 92 100 99 90 79 78 81 57 46 44 45 52 54 54 61 61 48 22 14 10 9 8 8 9 10 12 12 12 17 19 20 23 22 22 25 26
100 100 100 100 100 100 100 100 100 100 96 96 100 100 74 73 86 86 60 50 42 47 47 58 64 57 64 59 27 14 12 10 11 9 9 10 12 14 15 15 15 12 22 35 37 32 27
100 100 100 100 100 100 100 100 100 100 100 96 100 91 62 91 96 79 64 57 47 44 44 53 58 59 69 74 45 18 15 9 11 10 10 11 14 14 14 17 14 15 21 28 35 47 45
94 100 100 100 100 100 100 100 100 100 100 100 95 76 72 100 98 75 76 59 49 49 43 49 58 62 67 76 68 28 16 12 9 10 10 10 13 15 17 17 16 18 25 28 42 43 49
94 100 99 97 97 100 100 100 100 100 100 95 92 70 94 98 97 81 68 69 63 54 45 50 58 57 56 74 76 42 24 16 9 10 11 11 11 14 16 18 20 22 26 38 50 46 55

GFSGBSN_250_rhum_075.txt.gz
RH
77 75 85 71 64 67 53 74 77 69 69 57 46 39 41 40 31 28 17 10 6 6 4 4 3 2 2 2 1 1 1 2 2 3 3 4 5 5 6 10 14 15 12 14 16 11 18
100 97 92 74 67 60 69 76 86 75 74 64 55 44 48 38 38 31 31 11 6 7 5 5 3 2 2 2 1 1 1 2 2 4 4 4 5 6 7 10 12 18 16 16 12 11 16
92 100 97 73 58 70 70 84 87 79 76 72 60 54 48 34 37 45 31 15 5 5 6 5 3 2 2 2 1 2 1 2 2 3 5 4 5 6 8 9 13 15 15 16 12 12 16
74 62 83 81 64 49 82 82 90 92 82 79 68 60 46 39 40 56 42 24 6 5 6 5 4 3 2 2 1 1 2 2 2 2 4 5 5 6 8 8 12 16 19 18 14 12 13
74 55 64 83 67 50 84 81 89 97 89 81 72 69 50 47 45 52 51 26 7 6 7 7 4 3 2 2 1 1 2 2 2 3 4 6 4 6 8 10 14 18 17 18 15 13 13
66 66 74 75 65 79 80 89 81 100 92 82 80 76 49 45 56 62 47 32 10 8 7 7 5 3 2 2 2 2 1 1 2 3 4 6 5 5 7 9 10 15 17 18 15 15 15
52 77 78 69 72 100 89 86 85 100 99 89 85 76 59 49 72 68 48 34 14 9 8 7 5 3 2 2 2 2 1 2 2 3 3 4 6 6 8 9 12 17 21 21 20 17 16
61 84 78 68 75 100 97 88 100 100 100 94 87 78 61 50 67 67 50 33 18 10 10 8 6 4 2 2 2 2 1 2 2 3 3 4 7 7 8 10 11 11 12 18 21 21 20
76 78 74 78 100 100 100 100 100 100 100 100 92 82 62 62 73 70 51 46 26 15 10 9 6 4 3 2 2 2 1 1 2 3 4 6 7 9 8 10 10 13 14 19 23 22 21
84 81 84 100 100 100 100 100 100 100 100 100 93 84 68 69 74 66 49 49 36 23 11 9 6 5 4 3 3 2 2 2 2 3 3 5 8 9 9 9 11 12 14 14 22 24 24
85 86 95 100 100 100 100 100 100 100 100 100 100 76 76 71 71 70 62 56 49 30 14 9 6 6 5 4 3 3 2 2 2 3 4 5 7 9 9 10 12 13 13 14 17 23 21
83 86 98 100 100 100 100 100 96 100 100 100 100 82 86 75 74 64 65 60 62 40 26 10 6 7 9 6 3 4 3 2 4 3 4 6 8 11 10 10 11 13 13 14 13 15 20
90 92 97 100 100 100 100 100 97 100 100 100 100 86 91 72 84 76 61 68 66 44 28 12 7 6 8 8 6 4 5 3 4 6 5 5 9 16 14 11 12 13 14 14 13 13 16
64 84 94 100 100 100 100 100 100 100 100 100 100 94 96 82 80 73 71 73 61 44 33 14 7 6 7 10 8 6 6 5 4 6 7 11 15 18 16 14 13 14 14 15 15 15 15
39 67 84 100 100 100 100 100 100 100 100 100 100 98 92 97 78 76 74 73 64 45 32 19 7 7 7 10 12 7 5 7 6 5 12 12 17 19 22 18 15 15 16 16 16 17 18
37 51 81 100 100 100 100 100 100 100 100 100 100 100 94 100 78 79 81 67 63 47 37 25 11 7 6 8 12 9 7 7 9 9 9 15 19 20 22 19 18 16 17 18 17 18 18
42 39 71 97 100 100 100 100 100 100 100 100 100 98 96 100 76 82 78 63 62 49 42 36 15 10 8 9 10 12 9 9 9 11 11 11 16 24 24 24 21 18 16 17 18 18 18
42 41 69 98 100 100 100 98 100 100 100 100 100 99 98 98 75 82 82 67 65 49 46 46 24 11 9 8 11 10 9 9 10 11 12 12 13 18 22 24 24 22 21 19 17 19 18
47 43 57 97 100 100 100 95 100 100 100 100 100 97 98 91 74 82 80 67 64 47 44 48 29 20 9 8 7 12 10 8 10 12 11 13 15 19 20 22 27 30 28 23 21 21 21
49 44 69 100 100 100 100 100 100 100 100 100 100 99 100 93 75 80 84 66 64 45 45 49 40 33 12 10 8 8 11 8 9 10 13 13 16 16 18 20 22 27 28 28 28 31 32
48 43 64 94 95 100 100 100 100 100 100 100 100 99 98 96 76 80 84 67 60 43 43 54 54 42 25 8 11 9 10 10 8 8 11 14 17 15 16 19 21 20 22 27 31 29 32
59 60 59 86 100 100 100 100 100 100 100 100 100 100 100 89 74 84 89 68 62 41 43 54 52 59 47 16 9 9 8 11 11 8 8 11 15 20 20 18 23 23 26 28 26 23 26
62 61 76 90 100 100 100 100 100 100 100 100 100 100 100 87 80 91 88 73 61 40 39 49 47 62 64 46 14 10 10 10 13 11 8 9 11 13 19 20 18 22 25 27 28 27 25
59 57 62 98 100 100 100 100 100 100 100 100 97 100 100 92 81 88 83 72 56 44 37 43 52 63 65 58 29 16 9 10 9 11 9 8 9 11 13 18 21 22 19 22 25 32 39
47 54 76 100 100 100 100 100 100 100 100 100 99 100 98 95 87 91 77 74 58 47 39 41 49 56 64 72 57 28 15 11 13 10 10 9 8 10 12 13 19 20 22 25 22 22 26
62 60 95 100 100 100 100 100 100 100 100 92 98 100 99 100 97 89 74 73 59 50 41 46 46 46 57 63 72 46 24 20 13 14 11 11 10 10 10 13 14 16 21 27 34 30 28
58 73 100 100 100 100 100 100 100 100 100 94 98 100 100 99 99 90 78 76 67 54 44 44 43 46 50 54 64 73 43 26 14 11 14 11 10 11 10 13 15 15 16 23 28 55 40
51 71 100 100 100 100 100 100 100 100 100 97 100 99 99 99 100 89 84 78 73 58 44 44 48 46 49 49 61 63 62 45 29 12 12 10 9 10 11 13 15 16 18 21 29 34 37
59 62 96 100 100 100 100 100 100 100 100 100 93 90 96 98 100 93 82 88 82 73 50 51 58 52 52 52 53 60 77 46 36 23 15 16 10 9 10 11 14 17 18 22 24 24 30

GFSGBSN_250_rhum_078.txt.gz
RH
86 84 100 100 64 64 73 78 78 71 71 72 69 82 65 61 54 52 51 38 26 14 9 7 4 4 3 2 2 2 1 1 1 2 2 3 3 4 4 6 7 9 15 15 11 16 15
91 100 100 95 83 86 99 63 88 95 64 72 70 76 66 64 59 58 64 46 31 13 9 7 4 4 2 2 2 2 1 1 1 2 2 3 4 4 5 6 8 10 14 16 16 18 14
100 100 100 92 65 92 82 73 82 86 68 69 83 69 71 65 64 64 62 55 38 15 9 8 5 4 3 2 2 2 1 1 1 2 2 3 4 4 4 6 8 10 15 20 16 13 16
96 99 57 80 66 52 60 88 86 78 73 84 100 79 75 69 77 73 65 58 34 20 8 9 5 4 3 2 2 2 1 1 2 2 2 3 5 5 6 6 10 10 13 18 19 23 22
44 45 39 68 56 49 84 85 88 86 75 79 100 92 72 74 83 77 69 66 40 21 10 9 6 4 4 3 2 2 1 1 2 2 2 3 6 5 6 7 9 11 13 19 16 19 24
39 46 43 40 52 65 83 97 83 91 75 97 100 92 69 89 88 76 75 69 40 23 11 10 6 5 4 3 2 2 2 1 1 2 2 3 5 6 6 7 8 11 14 20 20 24 20
39 46 53 57 57 72 74 97 95 93 100 100 100 100 79 90 94 72 75 65 46 26 12 10 7 5 4 3 2 2 2 1 1 2 2 3 5 7 7 8 10 14 17 23 30 27 28
39 54 63 76 81 70 68 98 95 83 100 100 100 96 93 89 98 68 80 67 48 30 16 10 8 6 4 4 2 2 2 2 2 2 2 4 4 8 8 9 9 12 15 20 28 26 29
47 50 80 90 82 73 79 93 96 89 100 100 100 100 95 85 92 79 80 68 47 43 20 10 9 6 3 4 3 2 2 2 2 2 2 4 4 9 9 7 8 10 13 20 23 30 35
71 63 64 74 84 76 85 88 91 100 100 100 100 100 95 94 91 79 78 68 51 40 28 12 10 6 3 3 3 2 2 2 2 2 3 3 4 6 9 8 9 10 15 20 24 31 29
63 78 82 86 73 78 95 98 98 100 100 100 100 100 95 96 86 84 81 72 60 43 32 12 11 8 5 4 4 3 3 2 2 2 4 4 4 6 11 11 10 13 17 19 23 32 23
27 41 60 78 68 69 86 100 100 100 100 100 100 100 95 99 85 83 80 70 62 48 37 13 11 8 6 5 5 4 3 3 2 2 3 3 4 8 12 12 10 11 14 17 20 23 20
13 18 35 64 64 54 70 100 100 100 100 100 100 100 90 95 88 82 77 76 58 48 36 19 14 10 6 5 6 5 4 4 3 2 4 4 4 7 12 13 11 11 13 16 15 14 20
6 16 27 46 58 47 56 100 100 100 100 100 100 100 94 94 89 83 81 82 62 49 42 25 13 10 8 6 6 6 5 5 5 4 3 6 6 7 12 13 12 12 12 15 16 16 20
6 9 18 48 49 48 55 95 100 100 100 100 100 100 100 98 91 86 82 82 67 51 53 34 15 10 8 8 7 7 6 5 6 6 5 7 10 14 15 15 14 12 13 14 14 15 15
5 7 14 39 54 43 52 84 100 100 100 100 100 100 100 96 97 82 83 84 65 56 57 37 23 10 6 8 9 8 7 7 6 8 7 6 9 12 13 16 16 14 13 13 14 15 15
5 7 14 38 47 59 48 79 100 100 100 100 100 100 95 92 98 78 79 86 64 64 60 38 30 13 6 7 8 11 9 7 8 9 10 9 9 12 15 16 15 14 14 14 16 16 15
6 8 21 48 52 56 52 91 100 100 100 100 100 100 99 92 87 86 78 89 61 67 59 43 34 17 9 7 8 10 12 10 8 8 10 11 11 11 13 18 20 18 16 15 15 16 15
5 9 30 51 51 59 66 85 100 100 100 100 100 100 100 94 78 88 78 92 68 66 53 44 37 27 14 8 8 9 11 12 10 9 9 12 12 13 13 15 18 20 20 18 16 16 17
4 18 36 37 69 63 66 82 100 100 100 100 100 100 100 91 78 87 86 88 67 61 53 48 39 34 22 11 9 9 10 11 12 10 9 10 11 14 15 18 19 18 18 20 21 20 19
6 14 36 53 64 59 66 97 100 100 100 100 100 100 100 93 85 83 84 97 68 62 50 46 44 40 36 17 10 12 12 10 12 12 11 11 11 16 17 16 17 19 20 22 24 22 21
9 29 65 60 52 64 90 100 100 100 100 100 100 100 100 91 87 87 90 97 74 61 52 45 40 43 39 32 14 12 13 12 14 13 11 11 12 11 15 18 18 16 18 21 22 23 26
24 53 75 75 69 84 92 100 100 100 100 100 100 100 99 92 98 88 96 98 76 63 54 47 42 38 50 44 25 16 11 11 11 13 12 11 11 12 14 15 20 22 19 19 21 22 25
62 53 53 81 72 76 94 100 100 100 100 100 100 100 100 100 95 95 93 100 75 66 51 51 43 37 46 45 46 25 17 11 11 11 13 11 10 10 12 14 22 25 23 25 25 25 27
49 43 75 61 69 92 100 100 100 100 100 100 100 100 100 100 96 96 97 99 78 69 56 52 47 42 39 43 48 63 38 19 12 13 15 14 11 10 10 12 15 21 26 28 27 23 25
68 83 71 68 98 100 100 100 100 100 100 100 100 100 100 100 100 92 100 91 84 71 64 50 48 44 33 39 52 57 60 33 19 14 10 12 13 12 11 11 12 16 14 19 26 31 34
76 69 65 73 92 100 100 100 100 100 100 100 100 100 100 100 100 92 98 87 89 77 71 54 54 47 44 39 50 55 58 47 31 20 18 12 15 17 13 13 12 14 13 16 18 36 39
86 79 70 81 100 100 100 100 100 100 100 100 100 100 100 100 97 97 93 95 84 76 73 59 56 46 46 40 40 51 64 70 51 29 26 15 13 13 12 13 13 13 13 16 19 26 32
86 74 67 94 100 100 100 100 100 100 100 98 100 100 100 98 94 98 100 87 90 79 78 66 65 53 42 39 42 47 60 65 73 55 31 26 20 15 16 13 14 13 13 14 16 20 27

GFSGBSN_250_rhum_084.txt.gz
RH
93 100 100 100 84 100 100 98 83 100 96 84 79 58 46 36 29 26 33 39 58 54 33 30 14 9 8 6 4 3 2 2 2 2 1 2 2 2 2 3 3 4 6 10 10 11 14
96 98 98 100 100 100 100 100 89 99 96 68 57 57 40 27 29 29 43 49 64 51 32 31 14 9 9 7 5 3 1 2 2 2 1 1 2 2 2 3 4 5 7 11 14 13 14
71 64 95 86 98 100 100 100 100 73 62 71 36 31 32 25 27 31 46 67 66 44 35 27 14 8 9 9 5 2 2 2 2 2 1 1 2 2 3 3 4 5 6 11 16 12 13
58 53 40 69 74 70 52 62 62 61 36 41 31 26 28 24 30 43 48 68 69 47 34 23 12 8 9 9 4 2 2 2 2 2 1 1 2 2 3 4 4 5 7 9 12 12 13
23 24 24 34 43 40 36 34 44 37 37 30 28 30 27 28 41 59 69 80 80 44 41 23 11 9 8 8 4 3 2 2 2 2 1 1 2 2 3 5 5 5 6 8 9 8 19
10 10 11 18 28 32 35 34 31 30 30 26 25 34 32 40 52 72 76 89 73 43 46 25 10 9 7 6 4 3 2 2 2 2 1 2 2 2 3 5 5 5 7 8 8 9 12
10 8 9 8 13 15 21 28 29 29 33 31 41 35 46 57 60 80 80 95 67 68 50 22 11 9 6 6 4 3 2 2 2 1 1 1 2 2 3 6 6 6 9 11 11 10 12
10 8 7 8 8 7 9 14 21 26 33 36 42 35 47 53 65 91 92 93 72 77 62 23 11 9 8 5 4 3 3 3 2 1 1 2 2 3 4 6 7 8 9 12 14 11 12
10 9 7 7 8 7 7 7 12 17 30 38 32 40 48 49 80 93 93 95 77 82 57 24 13 10 10 5 5 4 3 3 2 1 2 2 2 4 4 7 8 12 10 14 17 15 16
8 8 7 7 7 6 7 7 10 16 21 40 35 31 60 60 85 100 94 100 92 85 58 31 16 12 12 4 5 4 4 3 2 2 2 2 3 4 5 8 9 8 9 12 13 17 15
4 4 5 5 6 6 6 8 11 15 27 43 28 37 48 86 96 100 96 100 95 78 70 29 16 13 10 5 6 4 4 3 2 2 2 2 4 4 5 7 10 9 10 11 11 14 18
4 3 3 4 4 4 5 6 12 15 21 41 28 45 70 93 88 94 100 96 84 91 82 42 17 13 9 5 5 4 4 3 2 2 2 2 4 5 6 7 10 8 10 11 10 12 15
2 2 2 3 4 5 4 6 10 12 20 34 38 71 92 100 84 98 100 100 94 90 78 48 17 15 9 5 5 4 4 4 3 2 2 3 4 5 8 10 11 9 9 9 12 12 13
1 2 2 2 3 4 4 6 8 12 16 33 53 87 100 100 80 100 100 100 93 86 83 53 23 16 11 7 5 4 4 4 3 3 3 3 5 6 8 11 14 13 10 10 11 10 11
1 1 2 2 2 3 4 6 8 11 18 29 71 86 100 88 90 100 100 88 90 88 87 64 29 15 12 8 4 4 4 4 4 4 3 4 5 6 9 11 15 16 14 13 12 12 12
1 1 1 2 2 3 4 6 8 10 16 41 77 100 100 87 100 100 100 98 91 84 84 65 32 17 13 8 5 5 5 5 6 5 6 5 5 6 9 14 17 17 16 14 12 12 14
1 1 1 2 2 2 3 7 7 10 20 52 95 100 87 93 100 100 100 100 90 85 78 69 40 20 13 10 6 5 5 6 6 6 6 8 7 5 7 12 18 19 19 17 15 12 11
1 1 1 2 2 2 4 6 7 11 27 82 100 98 86 100 100 100 96 96 88 89 69 70 39 23 15 10 9 6 6 6 6 7 7 7 9 10 9 8 11 14 16 16 16 15 13
1 1 2 2 2 2 4 6 10 19 94 100 100 72 100 100 100 100 90 100 90 89 63 70 48 28 18 13 10 9 9 7 6 7 8 8 7 11 12 11 11 11 14 15 15 14 14
2 2 3 3 3 3 4 6 14 47 100 100 98 86 100 100 100 95 93 100 92 86 62 66 58 33 23 16 11 14 11 12 9 8 8 8 8 8 9 13 14 16 16 18 18 18 16
2 3 3 3 4 4 6 8 32 100 100 100 78 100 100 100 100 94 98 100 95 78 63 66 51 40 26 19 17 16 14 10 10 10 8 10 10 9 8 9 12 16 18 20 19 19 20
3 4 4 4 4 5 10 33 100 100 100 90 100 100 100 100 99 91 98 100 94 78 66 63 51 40 32 23 21 19 15 12 11 12 11 10 10 12 11 10 10 12 14 18 20 21 21
4 3 4 5 5 7 25 98 100 100 100 100 100 100 100 100 89 93 98 99 92 81 68 64 59 41 36 35 27 23 21 17 15 14 13 13 12 9 10 10 10 10 10 13 17 18 21
4 5 5 5 6 17 64 100 100 100 96 100 100 100 100 100 99 93 92 99 97 85 71 69 64 40 36 42 38 30 29 26 22 18 17 13 12 13 13 11 11 12 12 12 11 14 18
5 6 6 9 19 45 100 100 100 100 100 100 100 100 100 97 98 82 94 100 100 86 71 75 67 44 40 41 37 41 38 38 32 23 24 25 16 14 16 19 22 21 16 14 15 15 15
6 6 9 8 31 90 100 100 100 98 100 100 100 100 100 99 96 87 92 100 100 89 76 75 70 52 44 43 39 35 46 57 52 37 31 28 29 27 21 20 16 18 18 19 16 13 15
5 11 22 25 72 100 100 100 100 100 100 100 100 96 99 96 100 95 94 100 100 87 77 81 72 54 43 45 38 41 41 47 55 51 48 40 38 34 36 34 31 20 16 22 25 22 18
5 14 14 26 88 100 100 100 100 100 100 100 100 100 100 99 98 93 90 100 99 86 74 86 74 62 48 48 45 49 42 49 53 59 61 53 41 38 40 38 44 43 33 24 18 17 19
6 13 24 53 100 100 100 100 100 100 100 100 100 99 99 94 100 94 92 100 99 86 76 84 81 64 56 53 52 51 50 49 53 54 61 61 61 58 48 41 38 38 44 43 33 24 19

GFSGBSN_250_rhum_090.txt.gz
RH
16 16 12 12 13 14 18 19 19 24 28 38 53 44 41 39 54 54 51 55 50 57 63 57 68 69 58 35 31 24 9 11 8 4 3 2 2 1 1 1 2 2 2 3 3 4 10
29 26 22 21 17 14 15 11 12 12 16 22 30 29 24 30 31 38 44 44 39 40 43 47 50 47 44 26 22 17 11 12 5 4 3 2 2 1 1 2 2 2 2 2 3 5 9
31 30 29 26 22 25 25 16 12 10 10 10 10 9 10 14 26 27 32 32 32 28 34 42 43 39 34 25 14 11 12 9 4 4 2 2 2 2 2 2 2 2 2 2 3 7 11
66 64 53 43 30 27 20 18 18 13 10 12 10 10 10 9 10 15 22 23 21 30 32 31 34 24 18 17 13 11 12 5 4 2 2 2 2 2 2 2 2 2 2 2 3 6 10
78 73 61 52 48 29 28 30 20 15 14 10 10 10 9 8 10 13 12 18 18 23 26 26 20 20 17 13 13 12 10 6 3 2 2 2 2 2 2 2 2 2 2 3 3 5 12
74 61 45 43 38 31 29 23 26 21 17 14 10 10 10 7 10 10 12 14 17 21 24 22 18 16 13 12 13 13 8 5 2 2 2 2 2 2 2 2 2 3 3 3 4 5 7
95 80 74 54 40 29 23 13 13 21 17 13 10 10 8 9 10 11 11 14 15 19 24 20 16 13 11 13 14 9 7 3 3 2 2 2 2 2 2 2 2 3 4 4 5 5 14
99 79 65 45 37 30 22 12 7 6 11 10 11 10 9 9 10 11 12 12 16 25 39 24 16 10 14 12 13 8 5 3 3 2 2 2 2 2 2 2 3 3 4 6 6 6 23
86 64 51 40 27 17 8 5 4 4 4 7 9 10 9 9 11 11 12 13 40 62 41 37 16 13 13 15 9 6 3 3 3 2 2 2 2 2 2 2 3 4 6 7 6 11 19
83 60 39 27 11 4 2 2 2 2 3 4 8 11 8 10 12 12 12 51 61 84 60 42 18 16 16 13 9 5 3 3 2 2 2 2 2 2 3 3 4 5 6 6 8 14 24
55 28 24 11 4 3 2 1 1 2 2 3 6 10 8 14 12 11 29 89 100 94 65 38 17 13 16 11 8 5 3 3 2 2 2 2 2 2 3 4 6 6 6 8 11 19 26
39 16 10 4 2 2 2 1 1 2 2 3 6 7 11 11 13 23 76 100 100 100 90 29 13 18 15 11 6 5 3 3 2 3 2 2 2 2 3 5 6 7 7 9 14 17 26
18 6 3 2 2 1 1 1 1 2 2 3 5 6 11 12 15 56 88 100 100 100 68 24 16 16 13 9 6 4 3 3 3 3 2 2 2 2 4 5 7 7 9 12 13 13 14
10 3 2 2 1 1 1 1 1 1 2 3 4 7 9 11 45 82 100 100 100 100 60 19 18 17 11 7 6 3 3 2 3 3 3 2 3 4 5 6 8 10 10 14 15 16 17
4 2 2 2 1 1 1 1 1 2 2 2 5 6 10 38 67 100 100 100 100 99 47 20 15 20 12 7 5 3 3 2 3 3 3 3 3 4 5 6 7 10 13 16 15 17 17
2 2 2 1 1 1 1 1 2 2 2 3 4 6 11 46 89 100 100 100 100 89 40 19 13 21 13 8 5 3 3 3 3 4 4 4 4 4 6 6 7 8 11 12 12 12 12
2 2 2 2 1 1 1 1 2 2 3 4 5 9 35 55 100 100 100 100 100 81 36 22 14 20 14 9 5 4 4 3 3 4 5 5 5 5 6 8 11 11 12 13 13 12 10
2 2 2 2 1 1 1 2 2 3 3 5 7 10 41 100 100 100 100 100 98 74 39 28 21 17 16 9 5 4 4 4 4 4 5 6 7 7 7 8 14 16 18 19 16 15 14
2 2 2 1 1 1 1 2 3 4 4 7 9 21 73 100 100 100 100 100 93 81 49 36 34 17 15 10 7 5 4 5 5 6 7 7 7 9 10 9 11 14 20 21 20 17 16
2 2 2 2 2 2 2 3 5 4 6 7 17 57 97 100 100 100 100 100 96 78 52 50 36 21 17 11 8 7 7 8 7 7 8 8 9 8 10 12 17 20 19 18 17 17 16
2 2 2 2 2 2 3 6 7 7 9 30 58 95 100 100 100 100 100 97 95 72 59 55 33 25 20 14 10 8 6 7 11 11 11 11 12 12 11 10 11 14 16 23 24 25 23
3 2 2 2 2 3 4 6 7 14 22 67 83 100 100 100 100 100 99 93 87 73 70 55 33 29 21 19 15 13 12 10 11 11 16 19 18 14 16 17 15 13 12 13 18 22 26
3 3 3 3 3 5 6 5 6 22 43 72 97 100 100 99 100 100 99 89 81 78 74 54 36 30 25 25 23 24 22 22 22 23 25 28 24 21 19 17 18 18 19 20 16 13 14
4 3 4 5 5 5 6 6 11 17 46 72 100 100 88 96 99 96 100 88 80 80 72 51 40 34 31 26 27 31 32 33 34 39 31 36 47 43 37 34 41 31 25 22 21 22 22
6 6 8 7 6 5 7 10 24 32 64 90 96 80 94 100 98 98 92 84 76 79 74 54 47 42 37 32 29 34 39 40 45 46 44 44 50 48 46 43 50 52 49 42 35 31 28
9 10 12 9 8 8 21 40 43 74 94 99 81 78 100 86 95 100 92 84 80 75 80 63 51 49 45 40 34 33 34 37 44 46 46 52 49 52 48 48 43 54 52 47 50 55 57
13 13 11 8 7 11 20 40 62 100 97 91 78 84 92 84 93 92 89 86 78 73 82 69 62 54 50 46 48 46 43 41 38 44 50 49 50 53 52 46 42 47 48 49 49 54 54
14 11 13 11 14 32 39 71 100 100 100 87 78 84 80 89 91 95 95 94 86 74 81 74 71 62 53 51 52 48 51 50 48 43 50 53 57 56 55 57 51 50 58 58 63 58 51
12 14 20 13 26 41 52 99 100 100 97 82 78 87 86 95 95 96 97 95 88 78 78 84 70 66 59 56 56 56 55 53 54 55 53 55 56 61 58 64 58 61 67 68 63 65 65

GFSGBSN_250_rhum_093.txt.gz
RH
56 58 55 44 42 48 43 36 24 20 20 15 13 11 11 13 13 15 19 20 25 20 21 40 41 30 22 24 24 22 16 11 10 10 8 10 6 4 2 2 2 2 1 1 1 1 1
56 50 54 57 56 57 54 54 42 26 16 17 16 12 11 10 9 9 10 11 13 15 14 20 26 24 14 31 20 18 10 9 9 9 8 7 6 2 3 2 2 1 1 1 1 1 1
70 82 73 79 76 65 51 59 58 47 27 20 14 13 13 11 10 10 10 8 7 9 10 11 13 11 15 17 14 13 8 8 8 8 7 6 4 4 2 2 1 1 1 1 2 2 3
100 89 92 91 75 91 68 51 36 42 41 23 14 12 11 10 9 9 8 7 8 6 6 7 7 9 10 11 11 8 8 7 7 6 5 4 4 3 2 2 1 2 2 2 2 2 3
96 95 92 85 80 86 75 60 35 23 18 26 21 11 10 10 9 9 6 8 8 6 6 7 8 10 9 9 8 7 7 7 8 6 4 4 2 2 2 2 2 2 2 2 2 2 3
100 100 95 97 93 77 66 33 22 16 14 13 18 13 10 9 8 9 7 8 8 6 7 8 10 8 8 6 6 6 7 8 8 5 5 3 2 2 2 2 2 2 2 2 2 3 3
100 100 100 100 74 66 35 20 14 12 10 7 5 9 8 9 7 8 7 9 7 6 9 12 9 9 6 5 6 7 8 9 6 6 4 2 2 2 2 2 2 2 2 2 3 4 4
100 99 100 89 62 36 21 14 10 6 6 5 3 4 5 7 7 8 9 8 9 10 12 10 10 7 5 5 8 11 8 7 7 5 3 3 2 2 2 2 2 2 2 3 4 4 4
95 79 87 84 33 16 10 5 3 3 2 2 2 2 4 6 7 8 10 10 11 14 13 14 7 5 5 9 12 8 7 7 5 3 3 2 2 2 2 2 2 2 3 4 5 5 8
100 98 76 48 21 8 4 2 2 2 2 2 1 2 3 6 8 10 9 12 14 15 16 17 9 10 13 14 10 8 7 6 3 2 2 2 2 2 2 2 2 3 3 4 4 6 8
99 68 45 18 6 3 2 2 2 2 2 1 1 2 3 5 8 8 11 12 13 16 15 13 14 16 19 15 8 9 6 3 2 2 2 2 2 2 2 2 3 4 4 5 6 8 11
61 41 17 5 3 2 2 2 2 1 1 1 1 2 3 7 6 9 11 12 35 32 15 21 22 25 19 11 10 6 3 2 2 2 2 2 2 2 2 3 4 6 6 6 10 14 10
45 20 5 3 2 2 2 1 1 1 1 1 2 2 4 5 6 10 13 44 73 17 24 31 40 24 18 12 7 3 2 2 2 2 2 2 2 2 3 4 5 8 9 9 11 17 20
32 7 4 3 2 2 2 1 1 1 1 2 2 2 5 6 8 12 59 88 36 30 39 55 33 21 16 9 4 2 2 2 2 2 3 2 2 3 3 4 6 10 11 16 25 28 21
13 4 3 2 2 2 1 1 1 1 2 2 2 4 5 6 10 49 100 70 45 51 63 43 29 17 10 5 3 3 2 2 2 2 2 2 3 3 4 6 8 8 11 15 23 23 22
5 3 3 2 2 2 1 1 1 1 1 2 5 6 8 7 35 85 74 64 60 65 51 36 23 14 7 4 3 3 2 2 2 3 3 3 3 3 5 6 9 10 14 20 28 20 20
4 3 2 2 2 1 1 1 1 1 2 4 6 6 8 29 53 73 81 66 75 65 44 29 17 10 5 4 3 3 2 2 3 3 3 3 4 5 5 7 8 10 12 16 20 28 20
4 4 3 2 1 1 1 1 2 2 5 5 6 11 23 48 63 78 73 78 85 52 35 22 16 10 7 5 4 2 3 3 3 4 5 4 5 6 7 8 9 12 14 15 12 13 16
5 4 2 2 1 1 2 2 3 5 6 6 10 22 38 62 86 81 82 84 64 44 28 22 16 9 8 6 4 3 3 4 4 4 4 6 6 6 7 9 12 14 17 20 19 17 15
5 3 2 2 2 2 2 4 6 7 8 12 14 42 61 83 95 89 85 71 53 42 28 21 16 10 8 7 5 4 4 4 5 6 6 6 6 8 8 9 11 14 18 19 20 23 23
6 3 2 2 2 2 3 4 7 8 16 34 30 54 69 92 100 88 75 63 54 38 31 24 17 12 11 8 6 5 6 6 7 9 10 9 10 11 11 11 12 13 12 14 18 22 23
5 3 3 3 3 4 5 8 10 18 29 43 79 74 93 99 90 86 69 67 52 40 34 29 21 17 16 14 12 8 8 9 9 11 13 16 15 17 17 16 16 16 15 16 19 19 17
6 5 5 5 5 6 8 8 11 18 34 60 82 91 94 92 98 83 74 65 49 41 40 34 28 23 22 20 19 16 16 18 19 19 19 20 19 19 24 25 28 23 25 25 23 22 20
9 11 9 7 6 7 7 6 15 38 57 60 77 88 93 98 95 82 75 66 50 46 44 40 34 31 32 29 28 28 26 26 27 28 30 29 29 34 37 46 54 44 43 39 34 33 35
9 19 14 12 10 9 8 11 32 55 65 73 77 87 93 98 93 81 76 69 54 50 48 43 40 40 42 38 38 41 41 42 40 38 38 39 40 40 38 41 42 45 51 50 46 56 55
10 21 18 13 10 8 10 36 64 67 83 85 82 81 94 100 92 81 82 79 63 56 50 46 45 46 49 48 46 47 46 47 48 53 54 47 46 51 50 46 49 53 46 48 44 44 45
13 21 26 17 15 22 29 51 76 90 93 85 89 100 98 99 82 80 81 82 72 66 58 54 53 51 49 49 50 51 49 49 49 47 52 58 58 56 59 59 57 54 60 64 58 56 51
13 18 25 22 26 44 63 80 91 90 99 90 97 99 100 96 83 86 85 90 82 69 72 66 58 56 56 54 52 54 52 49 52 50 50 51 51 53 56 59 59 58 60 64 62 60 56
16 26 33 33 45 84 86 94 100 92 95 91 100 100 100 98 84 83 80 82 87 78 76 73 66 63 61 56 55 56 59 59 55 56 55 57 54 56 52 51 52 63 66 64 66 70 68

GFSGBSN_250_rhum_099.txt.gz
RH
87 100 94 97 100 100 100 100 100 100 100 100 99 96 97 92 69 43 31 22 15 16 9 7 8 6 6 6 5 5 6 6 8 8 8 10 12 11 9 8 6 6 7 8 6 6 6
94 95 99 100 100 100 100 100 100 100 100 98 80 82 66 64 50 36 22 16 15 13 10 9 8 6 6 6 5 5 4 4 5 6 6 7 7 6 7 5 5 6 6 5 5 5 4
100 100 100 100 100 100 100 100 100 100 100 98 72 46 35 38 37 30 22 18 16 10 9 9 7 6 6 6 6 5 4 4 3 3 4 4 4 5 4 4 5 5 5 4 4 4 4
100 100 100 100 100 100 100 100 100 100 100 75 48 27 17 14 17 17 17 15 14 11 10 8 8 7 7 6 6 4 3 4 3 3 3 3 3 3 4 5 4 4 4 3 3 3 3
100 100 100 100 100 100 100 100 100 76 38 21 15 11 7 5 6 7 7 9 10 10 11 8 7 7 7 6 4 4 4 4 3 3 3 2 3 3 4 4 4 3 4 4 3 3 2
100 100 100 100 100 100 100 85 29 14 10 8 6 5 5 3 3 4 4 6 7 9 10 8 7 7 8 6 5 5 4 4 3 3 2 3 3 3 4 3 3 4 4 3 2 2 2
100 100 100 100 100 99 38 12 8 6 6 5 4 4 3 3 3 2 3 4 6 7 8 7 8 7 7 5 5 5 4 4 2 3 3 3 3 3 3 4 4 3 3 2 2 1 1
100 100 100 100 76 28 11 8 6 5 5 3 3 3 2 2 2 2 2 3 4 6 10 8 6 6 5 5 5 4 3 3 3 4 3 3 3 3 4 3 2 2 2 2 2 1 1
100 100 85 36 20 10 8 5 4 4 3 2 2 2 2 2 2 2 2 2 4 7 8 7 6 5 5 5 4 4 5 4 3 3 4 3 4 4 3 2 2 2 2 2 2 2 2
100 72 22 9 6 4 3 3 3 2 2 2 2 2 2 2 2 2 2 2 4 6 7 5 5 5 5 5 5 5 4 4 4 4 4 4 3 2 2 2 2 2 2 2 2 2 2
95 28 11 6 4 2 2 2 1 1 1 1 2 1 1 1 1 1 2 2 3 5 4 5 5 8 7 6 6 5 6 6 4 4 3 2 3 2 2 2 2 2 2 2 2 2 2
39 14 7 4 3 2 1 1 1 1 1 1 1 1 1 1 1 1 2 2 3 4 5 7 9 8 7 8 7 6 5 4 3 2 2 2 2 2 2 2 2 2 2 2 2 3 3
16 8 4 3 2 2 1 1 1 1 1 1 1 1 1 1 1 1 2 3 5 8 9 10 9 9 9 7 5 4 3 2 2 2 2 2 2 2 2 2 2 2 3 4 5 6 5
9 5 3 2 2 1 1 1 1 1 1 1 1 1 1 1 2 2 5 8 9 11 19 13 10 8 5 4 3 3 2 2 2 2 2 2 2 2 2 2 3 4 4 5 6 7 8
7 5 3 2 2 1 1 1 1 1 1 1 2 2 2 3 6 9 10 9 16 18 12 9 6 4 4 3 2 2 2 2 2 2 2 2 2 2 2 3 4 4 6 8 10 12 13
8 5 4 3 2 2 2 2 2 2 3 4 5 7 8 10 13 16 17 19 13 9 7 6 5 4 3 2 2 2 2 2 2 2 2 2 2 3 3 4 7 6 10 15 23 31 32
7 5 5 4 4 3 4 3 4 5 7 7 10 14 20 23 20 16 13 11 9 8 6 4 4 2 2 2 2 2 2 2 2 2 2 2 3 3 4 7 10 12 17 18 27 36 57
6 8 7 7 7 7 7 8 9 11 13 17 22 28 21 18 15 13 11 8 7 5 4 4 3 3 2 2 2 2 2 2 2 2 2 3 3 4 5 8 12 16 21 26 39 36 48
12 17 12 11 11 13 13 14 14 20 26 31 26 20 16 14 11 10 9 7 6 5 4 3 3 3 4 3 2 2 2 2 3 3 3 3 3 5 6 9 9 15 18 26 34 45 50
20 22 23 15 20 19 25 24 30 26 26 24 20 16 15 13 11 10 9 7 6 5 4 4 5 5 4 3 3 3 3 3 3 4 4 4 4 5 6 8 10 18 21 34 37 42 53
62 54 31 21 18 25 30 37 41 36 30 25 17 15 13 14 14 14 14 12 10 8 7 8 6 4 4 4 4 4 4 4 5 6 5 6 6 6 7 8 10 13 18 20 27 33 36
83 63 57 38 30 26 34 41 48 39 28 22 16 15 16 18 19 18 16 15 13 11 11 9 8 7 7 7 6 8 9 8 8 8 8 8 8 8 9 10 13 12 12 13 15 19 19
89 73 86 52 46 39 35 55 50 34 26 22 19 19 17 18 19 18 17 18 17 14 12 10 11 11 11 11 11 12 12 13 13 13 12 13 13 14 16 16 15 15 16 17 16 17 15
90 61 91 75 68 52 48 64 52 38 26 26 24 23 23 24 24 25 24 22 21 20 18 15 14 14 16 14 15 17 18 18 19 20 19 18 18 22 24 26 26 24 26 27 25 19 20
68 91 46 88 84 71 59 67 64 42 34 30 29 29 30 32 33 33 33 31 30 29 26 27 26 25 26 26 25 25 27 27 28 27 27 28 28 31 32 33 35 35 29 36 42 44 46
54 100 72 45 95 89 75 87 78 66 50 38 33 32 35 35 40 41 41 39 39 40 40 39 41 41 39 37 39 42 42 43 42 43 39 38 40 40 40 42 44 43 41 43 42 47 48
55 70 94 39 78 100 89 100 100 91 74 58 48 42 42 41 47 48 49 49 47 50 49 48 50 48 48 50 54 56 56 54 53 54 54 52 52 51 52 50 50 49 46 53 51 56 56
57 51 90 68 35 100 100 100 100 100 91 81 67 60 52 50 52 54 57 55 56 58 60 60 59 58 58 57 56 55 55 58 60 61 64 63 63 61 59 58 57 58 56 53 51 51 52
49 61 66 80 38 68 100 100 100 100 100 95 88 74 67 62 59 57 60 59 59 60 61 63 64 66 67 66 64 64 65 64 61 58 57 62 64 65 64 64 66 64 60 62 60 56 58

GFSGBSN_250_rhum_102.txt.gz
RH
100 100 100 100 99 100 100 100 100 100 100 100 100 100 100 100 100 94 94 72 56 55 36 25 19 15 12 7 7 6 6 5 5 5 6 7 8 10 10 11 11 12 12 12 12 10 8
100 100 100 100 100 100 100 100 100 100 100 100 100 100 100 100 100 100 77 70 40 31 27 16 19 13 12 8 6 6 5 5 5 4 4 5 5 6 8 8 10 8 9 11 10 9 8
100 100 100 100 100 100 100 100 100 100 100 100 100 100 100 93 84 54 42 38 21 16 15 15 16 12 12 8 6 5 5 5 4 4 4 4 4 4 5 6 6 6 7 8 8 8 8
100 100 100 100 100 100 100 100 98 87 75 66 44 26 30 23 19 17 14 12 9 9 9 12 12 12 9 7 6 5 5 5 4 4 4 3 3 3 4 5 5 5 5 5 6 6 5
100 100 100 100 100 100 80 41 22 13 10 7 7 8 8 9 9 8 8 6 5 4 6 8 10 10 8 6 5 5 5 5 4 4 3 3 3 3 4 4 3 4 4 4 4 4 3
100 100 100 100 84 41 24 12 8 7 5 4 4 4 5 7 6 6 5 4 4 4 4 6 8 9 8 6 5 6 6 5 4 4 4 4 3 3 2 2 3 3 3 3 3 2 3
100 42 29 15 12 8 5 4 4 3 2 3 3 3 3 5 4 4 4 4 3 3 3 4 6 7 6 7 6 6 6 5 4 4 3 3 2 2 3 3 2 2 2 2 3 3 3
24 14 10 7 6 4 2 2 2 2 2 2 2 3 3 3 3 3 3 3 2 3 3 3 5 6 6 6 6 5 5 4 4 3 3 3 2 3 3 2 2 3 3 3 3 3 3
14 8 6 5 3 2 2 2 2 1 2 2 2 2 2 2 2 2 2 3 2 2 3 4 4 6 5 5 4 4 4 4 4 4 3 2 3 2 2 3 3 4 4 3 3 3 3
11 8 5 4 2 2 2 2 1 1 1 1 1 1 2 2 2 2 2 2 2 3 3 4 5 4 4 4 4 4 5 4 4 3 3 3 3 2 3 4 4 4 4 4 3 2 2
6 8 4 3 2 2 1 1 1 1 1 1 1 1 1 1 1 1 2 2 2 2 3 4 4 5 4 4 5 5 5 4 4 4 3 3 4 4 4 4 4 3 3 2 2 2 2
12 9 6 3 2 2 1 1 1 1 1 1 1 1 1 1 1 1 1 2 2 3 4 4 5 5 5 6 6 5 5 5 4 4 6 5 5 4 4 3 2 2 2 2 2 2 2
15 15 10 6 3 2 2 1 1 1 1 1 1 1 1 1 1 1 2 2 3 4 4 5 5 6 6 6 8 10 8 6 5 5 5 5 3 2 2 2 3 3 2 2 2 2 2
19 26 15 9 6 6 3 2 1 1 1 1 1 1 1 1 2 2 2 3 4 5 6 6 6 8 11 11 9 6 6 6 4 4 3 2 2 2 3 3 3 2 2 3 3 3 4
32 45 38 20 12 7 6 6 4 3 2 2 2 2 3 3 3 4 5 5 5 5 6 8 11 10 8 8 6 5 4 3 2 2 2 2 2 2 2 2 3 2 4 5 6 5 7
33 65 65 46 27 17 10 7 6 7 6 5 5 6 6 6 6 6 8 9 9 9 8 7 6 5 4 3 3 2 2 2 2 2 2 2 2 2 2 3 4 6 7 12 12 12 12
30 60 63 72 55 38 25 16 13 12 12 15 15 15 15 12 11 11 10 8 6 5 4 3 3 2 2 2 2 2 2 2 2 2 2 2 2 3 3 5 6 10 17 19 35 36 37
60 33 77 83 71 45 28 21 15 12 11 11 10 10 9 8 7 6 5 4 4 4 3 2 2 2 2 2 2 2 2 2 2 2 2 2 3 4 5 8 13 15 30 36 62 76 70
56 27 51 96 95 51 34 20 14 12 10 9 8 7 7 6 5 4 4 4 3 3 3 3 2 2 2 2 2 2 2 2 2 2 3 4 4 6 8 8 13 20 38 64 69 81 91
60 44 32 97 100 76 31 26 18 12 10 8 6 6 6 5 5 5 4 4 4 4 3 2 2 3 3 3 3 2 3 3 3 3 3 4 4 6 9 11 17 32 40 70 84 75 91
56 55 27 48 100 99 43 29 19 15 12 10 8 8 9 10 10 8 7 7 6 4 5 5 4 4 3 3 3 3 3 4 4 4 4 4 5 6 8 9 12 26 43 58 74 95 81
47 57 50 28 64 100 100 49 25 20 16 14 11 12 14 14 14 14 12 11 11 10 9 7 7 5 4 4 4 4 4 5 5 6 6 6 8 9 12 11 11 12 15 23 40 56 61
40 49 71 38 33 74 100 100 45 28 23 18 18 16 15 16 18 19 19 17 16 14 13 10 9 10 9 8 8 8 10 9 9 8 8 8 9 10 12 14 15 14 14 13 14 15 13
43 43 70 70 34 42 89 100 94 47 33 26 21 20 21 18 17 18 20 20 19 19 18 18 16 15 14 16 16 15 16 16 15 14 14 14 14 16 17 17 15 16 15 16 19 19 19
38 31 44 65 68 38 60 100 100 99 56 41 33 29 26 25 24 26 27 26 24 24 25 26 26 25 25 25 25 24 22 23 24 23 22 22 23 27 25 26 26 25 26 27 27 27 26
40 24 42 70 62 68 48 74 100 100 100 80 50 42 39 33 32 31 34 37 38 39 39 38 41 40 40 40 41 39 36 34 34 32 32 33 34 30 33 37 43 42 38 35 32 34 33
40 28 38 34 52 74 62 58 96 95 100 100 90 64 49 46 42 39 39 41 42 42 44 48 49 49 50 48 49 50 50 51 51 51 51 47 45 45 44 44 44 42 39 36 36 35 40
43 39 34 31 47 60 72 69 58 75 94 100 100 97 78 62 53 51 48 49 50 47 47 48 51 52 54 56 55 53 54 55 58 60 61 60 57 56 52 52 52 48 45 46 46 46 45
62 55 42 30 46 53 40 66 69 67 76 90 98 100 100 95 81 66 59 55 53 54 60 63 65 65 63 63 64 63 61 60 60 60 59 61 61 61 63 62 63 58 56 55 54 53 51

GFSGBSN_250_rhum_108.txt.gz
RH
48 74 98 90 74 55 33 30 26 14 8 8 9 10 11 12 24 43 56 66 62 70 80 88 78 85 67 71 75 65 44 31 24 19 14 9 8 7 6 6 6 7 8 10 13 15 17
52 64 68 45 32 31 28 16 9 4 3 2 3 4 5 10 10 15 32 38 47 57 73 73 76 71 63 54 50 50 48 32 21 19 14 10 8 7 6 5 5 4 5 6 8 10 11
41 47 39 25 22 24 27 17 5 2 2 2 2 2 3 4 6 10 15 20 33 34 42 54 49 45 58 38 43 38 33 30 20 17 16 14 11 7 6 5 4 3 4 4 5 7 8
47 40 26 19 20 22 24 6 2 2 1 1 1 1 2 2 3 6 9 11 14 24 37 56 50 58 53 49 34 29 24 19 21 22 20 14 10 6 5 5 4 3 3 3 4 5 6
38 30 23 18 18 20 16 4 2 1 1 1 1 1 1 2 2 2 4 7 11 14 34 32 38 47 32 44 34 20 22 20 19 18 14 11 7 6 5 4 3 3 3 3 3 4 4
27 25 17 13 14 16 15 3 2 1 1 1 1 1 1 2 2 2 3 4 9 10 21 25 23 20 18 20 18 18 19 13 13 14 11 8 6 5 4 4 3 3 3 3 3 3 3
21 22 18 17 16 13 14 4 2 1 1 1 1 1 1 2 2 2 3 3 3 5 8 10 11 13 12 11 10 8 12 10 9 7 7 6 5 4 4 4 4 3 3 3 2 2 2
21 19 22 18 19 11 12 6 2 1 1 1 1 1 1 2 2 2 2 2 3 5 6 7 8 8 9 8 7 8 7 7 6 6 6 6 5 5 4 4 4 3 3 3 2 2 2
22 24 27 23 22 12 8 12 4 2 1 1 1 1 1 2 2 3 3 3 4 5 6 6 8 8 7 7 6 5 5 5 5 6 6 4 4 4 4 4 4 4 3 3 2 2 2
22 27 24 28 26 17 8 8 8 3 1 1 1 1 1 2 2 2 2 3 4 4 5 6 7 6 6 4 4 4 5 5 6 6 5 5 5 5 5 4 4 3 3 2 2 2 2
25 26 24 33 28 22 11 6 8 6 2 1 1 2 2 2 2 2 2 2 2 3 3 3 4 4 4 4 4 5 5 6 6 6 6 6 6 5 4 4 3 3 3 2 2 2 2
27 29 27 26 34 30 17 8 5 7 5 3 2 2 2 2 2 2 2 2 2 3 3 3 3 3 4 4 5 6 6 7 7 8 7 6 5 4 4 4 4 3 3 3 3 2 2
37 28 30 28 30 36 25 13 7 5 6 6 4 3 3 3 3 3 3 3 3 3 4 4 4 4 5 6 7 7 7 6 5 5 5 4 5 4 4 4 4 4 4 4 4 4 4
38 26 31 30 32 32 38 19 9 5 4 4 6 7 4 4 5 6 6 6 6 7 6 6 6 5 5 5 4 4 4 4 4 4 5 5 4 4 6 7 6 7 7 6 6 5 4
55 37 31 26 34 34 37 35 18 11 6 4 4 4 5 8 9 8 6 4 5 5 5 5 4 4 4 4 4 4 4 4 4 5 8 8 8 9 8 7 6 5 4 4 4 3 3
61 34 39 31 32 35 35 36 31 18 12 7 6 5 4 4 4 5 7 8 8 8 8 7 7 8 8 7 8 8 8 8 8 8 8 7 6 6 5 4 4 4 4 4 4 4 4
42 41 42 34 28 32 38 33 38 34 20 14 11 8 7 5 4 4 3 4 4 4 4 4 4 4 4 4 4 4 4 4 4 4 4 5 4 4 3 3 4 4 4 4 7 10 12
70 41 55 34 42 30 32 44 32 42 41 22 16 13 9 8 6 4 4 4 4 3 3 3 3 3 3 3 2 2 3 3 3 3 3 3 3 4 5 6 8 5 6 7 14 15 40
40 32 56 53 37 35 32 38 44 34 40 43 27 16 13 9 9 7 5 4 4 3 3 3 3 3 3 3 2 2 2 3 3 3 3 4 4 4 9 14 22 16 14 14 12 27 46
39 26 24 44 42 38 40 31 39 39 35 37 41 41 25 14 12 10 9 7 5 4 4 4 3 3 3 3 3 4 3 3 4 4 5 6 6 10 11 17 18 30 34 31 32 29 44
52 34 29 38 32 24 41 43 36 37 36 34 35 41 44 38 22 14 13 11 11 8 7 5 4 4 4 5 4 4 4 4 6 7 9 10 10 9 12 20 26 32 59 58 58 73 73
81 46 35 40 32 32 31 49 39 34 34 36 36 37 40 48 42 37 26 19 18 16 13 11 10 6 6 6 8 10 10 9 9 9 9 10 10 9 13 20 29 35 56 75 65 51 100
100 66 52 47 47 30 28 31 49 52 33 32 39 36 41 44 50 48 44 35 30 23 20 17 17 15 13 11 10 10 11 13 13 12 13 16 18 19 17 19 21 26 23 25 36 37 35
100 89 64 53 47 43 36 37 31 37 57 60 42 38 38 44 49 51 50 51 45 36 33 30 27 27 25 26 22 18 18 17 14 14 14 14 15 15 17 20 19 24 26 34 38 40 40
100 100 77 76 60 55 48 40 34 28 38 43 59 38 37 37 42 48 56 56 54 55 47 40 36 36 34 37 39 38 35 32 28 25 23 22 22 22 20 18 15 14 14 15 14 16 23
100 100 99 76 59 65 64 44 43 32 29 35 45 58 51 36 37 40 42 52 62 64 62 58 49 44 41 37 36 39 38 36 32 31 33 34 34 32 29 28 29 30 26 26 24 20 17
66 100 100 100 71 61 76 52 39 29 40 35 32 46 52 54 40 34 40 44 48 56 67 71 68 60 54 54 53 49 44 42 42 42 41 40 41 40 39 37 33 36 36 37 37 34 34
88 66 100 100 100 73 76 57 53 36 26 34 47 36 50 42 50 58 60 43 47 56 53 56 70 76 70 60 58 60 60 56 54 52 50 49 50 48 46 44 43 44 45 44 41 42 43
81 92 100 100 100 100 66 84 66 57 42 24 39 39 37 35 47 49 54 63 63 53 66 64 56 63 79 80 72 66 65 67 72 67 64 59 56 59 58 58 55 57 56 55 58 58 56

GFSGBSN_250_rhum_111.txt.gz
RH
42 26 20 18 17 14 11 11 12 15 7 9 14 14 16 22 16 22 22 24 20 28 53 58 80 74 76 90 99 86 90 71 55 48 38 31 24 19 15 14 10 9 8 10 13 13 14
27 25 18 19 15 9 8 11 15 10 2 2 2 2 2 2 2 3 7 12 15 16 26 53 52 60 85 82 75 81 96 83 65 70 54 33 23 21 17 14 12 8 7 6 7 8 8
28 26 19 19 13 7 8 10 6 2 1 1 1 1 1 2 2 2 2 3 7 9 14 26 52 53 55 64 64 66 66 66 60 61 60 38 28 19 16 14 11 9 6 6 5 5 5
31 24 18 17 11 6 7 9 2 1 1 1 1 1 1 1 1 2 2 3 4 8 13 20 22 37 49 47 53 51 45 46 53 48 40 31 25 18 14 11 12 11 8 6 5 4 4
31 30 18 17 11 7 7 6 2 1 1 1 1 1 1 1 1 1 2 2 3 6 13 19 24 25 28 34 42 36 34 34 32 32 32 27 25 24 21 14 12 11 8 4 3 3 3
23 29 20 19 13 10 6 7 2 1 1 1 1 1 1 1 1 1 2 2 3 5 12 19 27 27 34 35 28 35 39 34 33 39 39 33 28 27 24 21 14 9 5 5 4 2 3
26 25 25 20 17 13 6 8 4 1 1 1 1 1 2 1 1 1 2 2 3 5 10 16 24 24 23 28 22 19 24 24 17 23 31 28 27 22 20 14 8 6 6 4 3 3 3
38 22 25 23 18 18 8 6 6 3 1 1 2 2 2 2 2 2 2 2 3 3 6 9 12 18 18 16 18 16 18 18 17 15 20 21 21 16 9 7 7 6 6 4 3 3 3
31 32 21 26 22 18 10 7 6 7 2 1 1 2 2 2 3 3 3 3 3 3 4 6 7 8 8 8 10 11 12 13 13 15 12 8 6 6 6 6 6 6 5 4 3 3 3
22 34 18 23 24 19 14 8 6 8 7 3 2 1 2 2 3 3 3 3 3 4 4 5 6 6 8 9 11 12 12 11 10 7 6 5 6 6 8 10 7 5 4 3 3 2 2
25 26 29 24 25 23 19 13 6 5 6 8 4 2 2 2 2 2 3 4 4 5 6 6 7 8 9 9 9 10 10 8 6 5 6 7 9 10 8 6 4 4 4 3 3 3 3
32 24 29 26 28 27 22 27 13 7 5 5 6 7 4 3 3 3 3 3 3 4 4 5 5 6 6 6 6 6 5 5 7 9 11 11 8 7 6 6 5 4 4 4 4 3 3
46 32 30 36 26 33 27 23 33 15 10 7 5 6 9 7 4 4 4 4 4 4 4 4 4 4 4 5 6 7 8 9 10 10 9 8 8 7 6 5 6 5 5 5 5 5 4
46 44 30 38 28 29 32 29 29 30 16 10 8 5 4 4 8 11 8 5 6 5 4 5 5 6 6 7 7 7 7 7 8 8 7 7 7 6 6 6 7 6 7 8 7 6 6
66 57 42 29 37 28 30 32 31 33 30 25 14 8 5 4 4 4 7 12 14 12 8 6 7 6 6 7 7 6 7 6 7 7 8 7 8 9 12 10 12 13 10 8 7 6 6
82 72 55 31 28 33 33 31 33 33 33 29 30 15 9 5 4 4 3 4 4 6 8 11 13 13 11 8 8 7 8 8 7 12 12 14 17 14 12 10 8 7 6 6 7 6 5
82 73 65 47 36 30 36 37 32 32 33 30 30 29 18 11 6 4 5 4 3 3 4 4 4 4 5 9 10 12 13 13 13 12 11 9 7 6 6 6 6 6 8 10 13 16 11
85 92 87 63 51 36 24 35 32 27 31 33 28 30 27 23 13 8 5 4 4 3 3 3 3 3 3 3 4 4 4 5 5 5 5 6 6 6 5 8 12 13 16 20 22 35 39
68 95 100 79 56 34 28 24 27 36 25 32 32 28 28 29 31 28 12 6 5 4 3 3 4 3 3 3 4 3 3 4 4 5 6 8 8 8 12 17 31 26 22 23 23 38 35
33 71 99 94 74 57 39 27 33 38 33 29 33 32 30 30 35 36 39 22 10 6 5 4 3 4 4 5 6 6 7 7 8 10 10 11 10 14 22 29 40 40 34 35 33 54 45
57 58 78 100 98 85 50 43 24 31 30 37 29 39 34 31 36 40 40 38 32 18 10 7 6 5 6 7 10 11 11 13 16 19 20 20 16 20 20 22 32 50 46 31 58 58 70
50 50 62 93 100 97 78 51 32 23 25 24 31 40 34 38 32 37 41 43 44 41 34 18 15 12 10 10 11 13 15 17 21 21 25 35 32 33 28 30 34 46 62 54 49 52 72
93 34 72 86 100 100 100 77 58 41 27 25 21 31 41 35 38 39 37 40 44 48 48 45 36 22 22 18 16 14 15 15 15 16 18 25 33 38 41 43 45 43 57 59 55 52 51
100 68 42 73 100 100 99 96 76 59 43 34 25 22 25 39 37 39 44 42 40 50 51 55 51 47 36 30 30 28 26 26 27 26 22 18 17 18 22 27 40 45 49 60 58 50 53
100 99 56 40 72 100 78 100 100 72 59 44 34 29 23 24 43 41 40 50 51 47 47 57 59 60 54 49 40 34 36 36 33 29 30 32 29 26 22 18 16 16 18 30 50 52 69
100 100 79 62 54 96 97 100 90 99 75 56 37 30 23 28 28 40 42 36 49 51 52 55 60 64 66 60 57 54 46 41 39 40 40 36 37 39 38 35 32 29 25 19 19 24 29
100 100 87 83 68 71 99 99 80 84 91 85 58 42 26 26 32 27 47 49 38 42 53 56 63 67 68 66 67 65 62 56 50 45 43 43 41 40 40 41 39 39 39 36 36 35 36
100 100 100 97 100 81 68 97 100 86 88 100 83 64 40 32 22 43 35 37 52 43 37 54 59 64 67 70 68 67 68 68 67 64 58 54 49 46 44 43 42 42 43 50 47 45 43
90 100 100 100 100 100 98 66 79 66 97 82 89 72 58 45 26 32 55 41 31 50 45 40 51 67 67 73 76 68 66 63 63 63 65 70 67 63 58 54 50 50 52 53 55 55 56

GFSGBSN_250_rhum_114.txt.gz
RH
26 42 30 28 17 6 4 6 4 3 2 2 2 3 10 21 19 20 20 23 24 33 24 24 42 57 92 62 78 80 91 88 90 77 72 70 72 43 25 18 19 26 30 29 33 42 41
26 38 33 26 15 5 5 5 2 1 1 1 1 1 1 3 10 14 18 20 26 42 39 34 30 54 70 87 55 63 84 91 89 89 78 72 66 56 41 27 17 13 14 14 25 29 26
26 32 33 24 17 6 5 4 1 1 1 1 1 2 1 2 2 2 4 11 19 37 47 47 45 37 53 56 66 63 81 98 100 93 78 67 61 49 44 38 26 16 13 10 10 10 9
26 24 36 26 21 8 4 5 2 2 2 2 2 1 1 1 2 2 2 2 6 22 32 44 62 53 41 53 68 67 76 74 73 84 86 72 59 57 46 35 26 19 16 13 10 8 7
28 21 31 31 24 13 5 5 3 2 2 2 2 1 1 1 1 2 2 2 2 9 29 35 49 62 58 50 47 58 56 63 71 73 81 72 72 56 44 34 24 19 15 11 11 9 7
33 31 23 30 28 22 10 4 5 3 2 2 2 2 1 2 2 2 2 2 2 4 11 21 43 53 52 48 30 26 54 61 73 73 70 72 57 56 38 31 27 24 24 24 20 10 8
42 28 25 22 28 27 16 8 4 6 4 2 2 2 2 2 2 2 2 2 2 3 3 4 7 35 57 52 40 35 32 40 47 52 62 53 47 45 43 36 31 33 36 29 18 9 6
61 28 27 23 26 28 21 12 6 4 7 6 2 2 2 2 2 2 2 2 2 2 3 3 4 5 13 29 32 23 21 18 25 34 43 45 44 45 43 42 39 36 27 14 11 4 4
73 36 26 26 22 29 29 20 10 5 4 6 9 3 2 2 3 2 2 3 3 3 3 3 4 6 8 13 14 14 17 18 21 25 29 28 33 35 36 30 25 18 11 8 8 8 5
87 71 37 32 21 25 35 26 18 11 6 4 5 10 4 2 2 3 3 3 4 4 4 4 4 6 7 8 9 9 11 13 16 16 19 26 28 28 18 13 12 10 11 8 7 6 4
89 77 62 32 28 20 30 38 25 18 13 7 4 5 11 5 3 2 3 4 4 5 6 6 7 9 12 11 11 11 14 17 21 24 27 22 12 10 10 9 8 6 6 6 5 4 3
76 71 56 44 32 28 23 33 38 26 19 14 7 5 5 7 8 4 3 3 4 5 6 6 8 8 9 9 10 11 10 10 10 9 8 8 8 7 6 6 6 7 8 6 5 5 4
51 69 52 42 33 28 25 29 34 38 25 18 15 8 6 4 4 9 5 4 4 3 4 4 5 6 6 7 7 7 7 8 8 8 7 7 7 8 8 10 10 10 8 10 8 7 5
37 76 74 56 69 35 30 26 30 31 38 22 19 15 9 5 4 4 5 10 5 5 6 5 4 4 4 4 4 5 5 5 6 8 9 9 10 10 11 13 13 12 10 9 8 7 6
46 67 77 59 62 47 37 29 24 30 28 36 22 20 16 9 5 4 4 4 5 12 9 6 6 6 6 7 7 7 7 8 9 11 12 12 14 13 11 14 13 11 14 14 12 9 8
40 85 56 74 67 46 55 39 26 22 27 26 35 25 20 14 8 4 4 4 4 4 7 10 12 10 8 8 8 9 10 12 11 12 12 13 15 16 19 16 16 15 16 16 14 9 9
34 54 59 48 80 49 40 34 32 33 25 27 28 33 28 18 13 14 8 5 4 3 3 5 7 12 16 20 21 19 18 21 23 22 20 20 22 16 13 13 13 14 17 20 27 24 19
60 58 82 44 70 88 43 30 35 32 28 25 29 26 32 29 19 20 18 10 6 4 3 3 4 4 6 8 9 10 10 11 10 10 10 10 9 12 14 16 27 29 20 36 45 39 34
78 73 91 63 58 65 34 47 32 22 27 28 26 33 26 32 34 27 23 20 16 8 6 4 5 6 6 7 9 10 10 10 11 11 12 16 18 24 28 39 63 46 49 49 51 39 34
68 88 100 73 48 66 67 64 45 22 34 24 24 25 30 28 33 33 34 32 31 24 15 9 7 6 6 8 10 10 15 18 20 25 28 29 31 40 43 53 63 65 65 65 63 60 56
70 100 100 86 61 58 70 75 58 32 26 27 22 23 26 34 28 33 32 34 38 41 37 27 17 11 10 9 10 15 18 24 26 30 36 43 45 40 38 40 43 50 58 45 56 68 66
100 100 100 93 80 78 69 99 77 43 48 42 26 20 22 25 30 38 32 35 35 43 44 46 44 34 24 21 17 15 13 15 19 30 45 50 51 50 51 52 56 53 63 63 57 50 72
100 81 100 100 71 99 93 98 100 63 50 47 38 41 29 22 23 36 43 34 33 35 41 52 54 54 48 37 31 28 25 22 20 17 18 25 36 44 46 49 50 52 69 68 65 38 47
100 89 100 100 58 97 100 100 100 87 75 73 57 56 62 29 30 26 26 44 44 34 35 40 52 60 67 63 52 46 37 35 35 35 30 24 20 18 27 40 45 42 49 55 55 56 54
100 99 87 94 96 98 97 100 96 85 92 76 87 61 76 60 40 40 24 23 28 47 42 34 39 50 61 61 63 65 57 54 48 42 39 38 35 31 28 22 18 17 23 32 49 52 48
100 100 93 100 76 88 100 100 89 91 77 92 88 92 76 62 52 65 39 27 23 25 36 49 38 36 42 55 62 60 63 62 58 52 49 46 44 42 42 37 33 31 25 24 27 29 28
90 100 100 83 100 100 100 92 66 94 84 86 94 99 86 54 45 57 53 33 24 25 26 28 46 45 37 43 47 55 62 61 61 63 63 59 53 49 47 47 46 44 42 42 41 40 45
99 100 100 100 98 98 87 100 99 82 96 91 88 74 66 53 58 48 74 45 26 27 29 29 26 38 44 38 35 44 54 60 62 63 65 67 68 64 59 57 53 52 51 50 49 46 43
91 100 100 100 100 100 100 99 86 88 100 100 100 96 56 99 90 78 42 50 34 24 27 35 32 31 35 44 40 32 37 57 65 66 69 68 69 74 80 74 70 67 60 56 56 56 53

GFSGBSN_250_rhum_117.txt.gz
RH
40 22 30 26 21 15 4 5 2 2 1 1 2 2 1 2 8 10 9 9 12 15 15 20 27 40 39 44 78 83 76 61 62 78 74 70 42 39 44 48 56 67 74 84 97 87 83
53 29 24 26 21 20 5 4 3 2 2 2 2 2 2 2 2 9 12 12 11 12 15 20 28 36 46 43 57 75 73 82 46 68 65 64 52 41 41 39 30 31 31 43 76 82 83
56 36 27 23 20 20 14 4 6 2 2 2 2 2 2 2 2 2 5 12 15 14 16 21 28 34 43 50 57 72 60 82 82 72 63 61 50 43 47 45 45 39 27 18 24 32 35
32 34 38 23 20 19 22 5 6 2 2 2 2 2 1 2 2 2 2 2 6 17 16 19 27 32 39 54 57 45 60 68 70 76 63 60 66 55 47 45 44 31 24 15 15 16 12
53 29 37 26 18 20 17 13 4 6 2 2 2 2 2 2 1 1 2 2 2 9 14 18 27 31 39 44 57 55 44 58 77 70 80 70 58 58 57 47 50 42 36 30 21 15 10
23 24 30 27 20 19 19 21 6 4 7 2 2 3 2 2 1 1 2 2 2 3 7 12 23 28 35 43 55 62 46 47 70 81 72 77 71 52 53 61 48 48 40 38 25 17 16
29 21 24 26 28 24 24 23 20 4 4 7 3 3 3 2 2 1 2 2 2 2 3 8 26 30 33 41 63 75 52 44 44 49 68 69 81 70 69 67 64 50 34 26 24 20 19
41 21 21 24 26 26 24 26 26 12 3 4 6 4 3 3 2 2 2 2 2 2 2 3 18 33 35 45 69 57 54 47 48 48 41 44 64 72 63 55 60 59 44 28 24 23 32
49 27 18 19 22 27 27 22 30 25 8 3 4 7 5 3 3 2 2 3 3 3 2 2 4 16 33 50 69 74 70 61 55 51 44 43 46 68 62 49 43 41 40 34 30 29 25
60 37 32 19 19 22 27 29 26 29 24 6 3 4 10 6 3 3 3 3 4 4 4 4 4 5 16 31 39 41 39 46 49 47 38 36 37 32 33 33 34 36 37 35 29 34 21
66 57 35 28 20 20 22 26 28 27 31 19 6 4 4 10 7 3 3 4 4 5 7 8 7 5 7 17 23 25 29 32 30 32 26 24 26 22 23 30 30 20 17 20 18 16 12
74 81 46 33 33 28 20 22 28 26 27 32 15 5 4 4 9 9 5 4 4 4 6 7 10 13 13 11 9 11 18 17 20 24 28 27 23 21 17 15 17 17 16 14 12 11 7
58 98 64 47 44 31 24 19 22 27 24 27 32 14 6 4 4 7 11 7 4 4 4 5 7 9 10 14 15 17 21 22 22 19 15 14 14 14 13 12 12 10 9 9 9 11 8
63 99 87 56 47 43 31 20 20 24 26 22 27 32 14 6 5 3 5 15 7 6 6 5 4 5 5 7 8 10 10 9 8 9 10 10 10 8 8 8 10 11 11 10 12 12 11
82 100 97 48 62 54 45 26 19 20 23 31 23 24 30 14 6 5 4 4 11 14 7 6 6 7 7 6 6 6 6 6 7 6 8 8 9 11 14 13 12 11 12 14 13 11 11
93 99 98 44 77 82 53 38 26 20 20 35 28 24 28 31 15 7 9 6 4 6 14 19 14 9 8 9 10 10 10 10 12 13 13 13 14 15 16 20 20 23 19 16 16 16 16
91 92 61 61 94 88 74 52 25 20 20 22 36 32 27 26 29 27 13 9 8 5 4 6 8 11 17 21 21 22 21 19 19 23 28 28 30 33 30 27 22 18 19 26 28 30 22
100 92 82 53 93 74 80 84 39 24 22 16 20 23 22 26 24 32 36 20 12 10 10 9 9 9 8 8 11 12 15 20 21 21 22 26 28 25 21 20 26 38 33 52 48 33 33
100 99 86 68 78 92 90 51 74 33 25 22 16 19 19 20 22 27 30 35 32 20 14 13 14 15 13 12 16 13 10 10 11 13 14 14 14 18 26 37 52 38 52 50 46 47 41
85 100 91 94 59 100 98 54 56 61 39 31 22 19 22 21 18 21 29 28 35 37 29 20 16 14 13 16 20 21 21 24 21 20 20 20 27 29 33 44 52 44 45 50 63 65 56
88 79 77 95 77 100 100 78 61 57 60 59 46 24 22 25 19 20 21 30 28 36 41 37 32 24 23 22 16 13 15 20 27 31 34 36 38 42 44 43 44 47 48 46 48 48 55
68 64 65 76 100 90 100 100 67 70 61 59 68 47 26 22 36 29 25 20 28 34 32 42 41 46 38 31 31 31 27 23 20 20 29 34 41 45 38 45 54 65 70 71 59 50 56
67 56 68 88 100 94 83 92 98 68 72 79 74 71 52 26 36 36 36 29 22 28 33 30 38 47 49 58 54 45 41 41 38 34 33 26 21 23 30 39 41 57 59 62 71 64 80
64 77 71 86 100 100 78 99 100 91 78 86 96 87 66 44 42 35 38 41 29 32 31 35 35 33 46 49 51 61 62 54 48 49 48 44 33 24 22 20 28 35 42 45 46 48 58
93 90 98 92 100 94 100 86 100 100 99 82 100 83 64 50 65 46 36 41 34 21 30 24 40 37 37 39 53 55 60 70 68 64 59 54 54 48 39 40 39 36 33 30 31 36 34
100 100 100 100 100 100 95 91 100 100 100 100 100 98 87 60 64 68 76 56 49 38 39 25 26 43 37 42 37 42 55 54 58 63 65 62 58 55 53 52 47 45 44 44 46 50 52
76 100 99 96 100 100 100 100 100 100 100 100 100 100 96 95 82 70 67 72 56 56 58 46 32 32 28 37 40 45 40 41 50 56 57 59 63 66 65 62 59 55 51 50 51 52 52
98 56 100 100 89 91 100 100 99 97 91 100 100 100 100 92 100 79 87 60 50 53 57 75 50 41 29 36 32 40 40 49 39 36 50 58 56 56 56 56 60 65 69 65 58 56 54
85 42 84 100 100 88 100 100 100 95 96 100 98 100 100 100 100 90 100 92 63 47 39 81 75 49 31 49 37 33 42 50 47 48 40 34 41 52 57 56 55 54 54 55 62 67 64

GFSGBSN_250_rhum_120.txt.gz
RH
24 22 22 22 12 12 6 3 5 2 2 2 2 2 2 2 2 2 6 7 6 13 19 25 31 34 37 52 65 75 71 67 63 65 60 39 46 37 42 55 64 93 93 93 59 55 59
27 21 21 22 15 14 10 4 3 4 2 2 2 2 1 2 2 2 5 8 6 8 17 20 30 38 37 38 65 64 89 98 90 79 91 74 48 49 49 42 47 53 72 86 94 93 98
26 23 23 20 17 12 13 6 3 4 2 2 2 2 1 1 2 2 2 4 11 9 12 16 25 43 39 32 41 43 51 96 100 95 88 82 77 58 52 53 46 42 40 46 53 70 75
29 28 22 20 19 14 14 12 4 3 3 2 2 2 1 1 2 2 2 2 11 10 10 15 26 38 51 31 33 42 46 57 99 100 100 89 84 55 53 46 40 36 32 31 29 30 33
38 27 23 19 20 19 13 17 8 3 4 2 2 2 2 2 1 2 2 2 6 11 11 12 20 32 40 34 26 33 40 48 59 86 100 100 100 96 75 54 33 30 25 21 19 18 15
24 33 25 20 19 23 16 17 16 5 3 4 2 2 2 2 2 2 2 2 2 5 8 11 13 20 33 38 28 25 40 47 52 51 81 100 97 96 94 75 61 51 36 24 20 20 18
39 25 24 21 19 22 19 15 20 10 4 3 3 2 2 2 2 2 2 2 2 3 5 14 13 14 23 31 34 23 34 47 56 62 65 76 92 100 95 81 72 68 65 52 39 25 21
43 24 32 18 19 19 19 18 17 20 6 4 4 3 2 3 2 2 2 2 2 3 5 14 19 15 18 24 28 30 32 44 51 57 60 59 63 73 83 83 86 89 68 38 31 28 25
56 38 29 21 18 19 18 18 18 21 17 6 3 5 4 3 3 3 2 2 3 2 3 10 20 21 20 23 27 33 36 38 43 46 56 71 60 47 47 52 64 61 70 65 55 47 36
62 50 43 25 18 18 19 18 18 19 22 17 5 3 6 4 3 3 4 3 3 3 3 5 10 18 23 24 27 31 33 37 40 47 62 68 56 54 54 48 43 48 56 55 49 43 31
80 48 52 28 27 19 18 19 18 18 20 24 20 6 3 9 6 5 4 5 4 4 4 4 5 10 17 23 27 30 35 37 41 49 56 63 53 44 44 51 50 46 41 34 25 26 33
95 62 56 50 31 23 24 21 18 18 19 22 25 22 7 4 9 7 7 5 5 6 6 4 4 7 9 15 20 26 34 36 38 42 43 44 45 44 39 33 25 22 25 33 26 20 21
99 72 63 59 37 31 25 22 24 18 19 23 24 25 24 8 5 7 14 10 7 6 7 7 7 6 6 8 10 15 20 28 35 39 46 45 41 36 26 26 30 26 21 18 15 13 13
95 76 55 84 51 43 40 31 24 20 17 20 24 26 26 25 9 8 6 11 14 9 8 7 8 9 9 9 8 8 10 11 15 20 21 16 14 15 15 15 15 16 13 12 13 12 10
92 79 53 71 59 81 48 37 36 24 17 17 20 26 26 23 28 15 10 7 7 14 16 12 11 9 8 9 11 12 13 14 14 14 15 14 14 16 16 14 12 10 11 13 15 18 16
84 68 64 56 78 67 47 54 50 40 35 20 16 19 23 25 22 33 35 15 9 7 6 13 17 18 16 15 13 12 11 10 11 11 11 10 11 11 12 14 14 19 20 22 19 24 30
61 62 72 77 76 68 42 56 82 56 40 39 22 20 17 22 26 31 34 34 22 12 8 8 6 10 18 27 28 21 17 16 16 16 17 18 19 15 16 19 25 26 26 32 47 53 43
48 60 79 88 100 81 60 53 94 86 49 40 42 26 23 17 19 26 26 27 40 30 17 11 12 10 9 9 10 12 15 18 26 30 29 29 30 28 31 29 33 34 50 52 59 57 69
54 60 69 74 100 93 78 54 88 100 77 50 54 42 29 26 17 19 26 29 24 35 38 28 21 14 14 14 16 19 22 24 25 26 30 30 30 33 36 34 43 44 46 59 63 73 76
71 67 75 79 100 75 100 80 78 100 100 80 58 51 45 40 27 19 19 22 32 29 28 40 40 32 27 18 14 15 21 29 36 42 46 46 49 49 50 54 59 66 62 60 76 84 82
95 97 99 88 85 86 100 76 72 100 100 100 89 74 67 51 45 38 21 22 20 30 32 31 32 42 42 32 32 30 24 18 20 28 37 44 57 59 73 81 79 74 70 78 82 86 85
100 100 100 100 90 82 100 91 90 100 98 100 97 98 82 61 61 52 42 30 27 20 25 32 33 32 42 47 46 41 36 35 30 22 18 20 31 42 54 64 69 80 79 89 95 93 100
97 100 100 100 100 69 100 86 100 100 100 99 100 100 84 59 66 55 61 44 38 23 18 21 30 34 34 38 49 55 55 48 41 37 36 33 30 28 30 30 31 40 43 53 66 70 71
100 100 94 100 100 82 57 100 100 100 100 100 98 100 100 81 61 54 66 63 49 30 29 19 17 28 39 37 33 39 50 53 57 59 55 49 46 41 36 33 34 31 31 33 36 41 42
100 100 99 78 98 100 65 60 100 100 100 99 100 78 100 100 89 49 43 48 50 44 38 27 22 18 23 40 33 34 32 39 51 53 56 60 62 60 55 52 48 44 42 37 36 44 44
100 100 100 100 70 100 100 78 43 83 97 100 100 100 98 100 97 63 43 50 43 40 44 30 29 22 18 24 39 38 37 37 30 30 46 52 54 57 58 61 62 57 55 53 49 49 49
100 100 100 100 100 100 97 89 90 86 86 90 96 100 100 100 100 97 69 58 77 61 47 44 41 30 26 23 20 34 39 41 40 39 32 30 33 44 54 57 59 59 58 56 58 59 59
84 84 98 100 100 100 100 98 100 100 100 100 90 100 100 99 100 85 83 55 88 90 90 69 59 52 39 25 34 29 23 35 44 40 40 40 37 38 36 36 42 50 56 59 58 57 54
100 100 84 88 100 100 100 100 100 100 100 100 100 93 100 100 100 100 93 100 100 100 100 94 82 67 65 45 37 44 36 22 37 40 39 42 40 37 36 36 39 41 37 39 45 52 55

GFSGBSN_250_rhum_123.txt.gz
RH
26 14 18 19 19 14 13 4 4 3 2 2 2 1 2 2 2 2 2 4 10 8 9 21 31 31 27 32 43 37 39 46 66 77 88 91 92 94 98 100 95 98 96 80 83 69 66
29 18 17 19 19 14 13 5 4 5 2 2 2 1 1 2 2 2 2 3 9 10 7 16 25 30 28 37 30 38 37 39 51 64 68 71 70 70 71 71 74 90 92 86 81 84 77
32 20 16 19 18 16 15 10 3 6 3 2 2 1 1 2 2 2 2 3 8 10 8 9 22 30 29 36 30 54 50 41 41 50 65 67 66 65 62 54 51 51 60 75 79 77 79
32 25 17 20 18 18 15 13 4 5 5 2 2 2 1 2 2 2 2 3 6 9 8 8 20 29 31 33 30 26 36 56 58 49 56 64 63 65 58 51 42 34 36 38 42 53 60
34 31 19 19 18 18 17 14 10 4 6 4 2 2 2 1 2 2 2 2 5 12 10 9 14 28 29 32 24 23 31 51 67 81 62 64 70 80 68 64 66 69 51 36 31 27 27
37 28 19 18 20 18 18 16 15 7 4 6 3 3 2 2 2 2 2 2 2 7 10 9 14 22 31 33 28 25 32 40 51 79 90 78 75 90 96 96 87 62 56 44 32 29 23
47 29 29 18 29 19 17 18 15 17 7 5 6 3 3 2 2 2 2 2 3 4 8 9 11 17 31 33 25 26 35 42 51 57 65 78 74 65 78 90 92 95 100 92 67 54 48
59 42 33 24 24 37 16 18 21 16 17 6 6 7 3 4 2 2 2 2 3 10 16 11 10 11 18 26 26 22 34 41 43 49 51 51 60 81 90 96 99 100 100 91 92 80 56
67 51 46 30 22 61 29 16 19 21 18 18 8 8 8 3 4 2 2 2 3 12 24 18 13 12 12 16 17 17 30 43 48 51 49 49 52 54 59 62 77 97 96 100 95 79 66
60 56 56 39 31 43 49 23 16 20 20 19 20 10 8 9 4 4 5 2 3 5 15 22 21 17 16 16 16 17 24 39 49 53 50 46 46 50 60 63 63 68 71 64 52 46 44
49 69 64 51 43 47 71 38 19 17 22 21 19 23 12 7 8 6 4 5 3 3 4 14 24 23 20 19 18 18 19 26 34 40 45 42 43 48 54 60 63 67 59 46 33 32 40
58 80 67 59 48 42 95 44 38 20 19 25 20 20 24 15 8 9 8 5 6 5 4 4 11 26 26 22 22 21 21 24 29 35 39 40 43 43 43 50 62 56 43 40 47 54 55
60 84 76 86 47 53 93 77 40 35 26 17 24 22 20 23 21 12 11 11 6 6 7 7 5 8 22 29 27 26 26 26 29 33 36 39 39 38 40 47 49 47 40 38 40 38 28
66 62 75 100 58 47 68 100 58 58 42 27 16 23 24 23 24 29 19 12 14 10 7 6 7 10 8 9 17 25 27 27 27 28 29 32 36 39 39 45 40 31 23 19 17 16 15
78 75 88 84 85 58 57 96 92 54 48 46 28 16 18 25 20 21 32 34 14 10 14 10 9 8 7 8 11 12 13 12 14 16 23 23 26 30 25 23 16 14 15 14 14 14 12
96 95 96 93 90 57 75 88 100 80 70 50 51 25 19 17 19 19 23 26 34 20 13 10 13 16 15 14 11 8 8 9 11 12 13 12 14 14 13 13 13 12 12 14 18 25 33
100 100 100 94 99 84 60 86 90 100 84 83 43 62 28 18 16 19 20 19 20 29 30 18 16 11 9 14 24 29 28 20 18 17 16 17 18 20 20 24 28 30 35 38 49 52 56
100 100 100 100 100 84 73 54 95 92 100 94 70 61 55 29 19 19 19 21 21 24 25 35 32 16 16 12 9 12 18 24 26 30 38 41 39 40 40 42 56 74 70 84 78 82 86
100 100 100 100 100 100 85 53 94 94 97 97 82 61 54 44 30 22 19 18 23 21 25 24 31 36 31 17 18 22 25 23 30 32 42 51 58 61 65 76 85 90 95 87 90 94 97
100 100 100 98 100 100 96 85 65 98 84 100 88 77 82 52 36 37 28 18 18 24 23 26 28 31 40 40 35 26 18 24 27 27 34 48 62 75 88 88 95 98 99 100 100 100 96
89 100 100 99 93 98 79 86 75 61 95 86 100 79 69 76 43 54 45 36 22 25 31 27 24 26 29 34 43 42 40 34 27 26 33 33 35 43 55 69 86 86 86 87 96 100 95
100 100 94 81 79 85 88 66 85 93 54 99 86 100 84 85 64 46 46 44 48 38 33 23 25 27 24 28 30 37 43 43 42 37 35 31 28 29 29 29 32 41 46 54 60 65 60
100 100 66 87 77 100 83 80 84 98 87 76 96 93 100 100 63 68 57 52 55 51 48 30 35 24 30 27 24 31 29 35 48 51 56 51 45 39 37 37 36 36 39 43 45 45 45
100 98 72 100 93 99 100 85 78 98 81 84 81 100 100 100 100 74 61 56 58 63 70 57 36 38 24 32 30 28 28 30 28 38 51 54 58 62 57 54 49 47 43 42 41 43 44
100 100 100 100 100 98 77 92 96 100 99 74 70 100 100 100 100 96 87 65 49 60 60 63 54 46 43 32 43 30 33 32 33 32 28 32 46 52 53 56 60 64 62 63 62 57 53
100 100 100 100 100 100 100 100 100 100 92 100 86 86 89 100 100 100 97 92 81 64 54 53 47 52 52 41 36 47 41 30 32 42 38 34 30 28 32 47 53 54 54 54 54 60 62
100 100 100 100 100 100 100 100 100 100 100 100 86 90 95 99 100 100 100 100 89 84 81 68 60 60 58 64 58 46 32 38 30 30 40 45 43 39 37 34 32 34 43 53 56 59 57
100 98 100 100 100 100 100 100 100 100 100 100 100 88 97 100 100 100 100 100 100 94 91 75 64 67 88 62 81 68 55 40 31 28 25 27 38 43 45 46 50 45 42 38 34 30 32
100 100 100 100 100 100 100 100 100 100 100 100 100 95 86 94 100 100 100 100 100 100 100 99 81 78 85 86 92 78 73 68 55 42 34 31 27 30 33 36 34 42 50 55 57 57 52

GFSGBSN_250_rhum_126.txt.gz
RH
39 34 40 26 15 16 13 9 4 3 2 2 1 1 1 2 2 2 2 2 8 10 8 12 28 38 35 34 33 43 43 45 49 46 56 89 98 100 99 100 94 85 99 99 93 82 75
43 35 46 42 15 16 14 12 5 4 3 2 2 1 2 2 2 2 3 3 3 11 10 8 20 38 39 35 39 41 39 58 52 45 43 59 84 94 100 100 100 100 98 84 94 100 100
43 39 34 48 17 16 17 14 10 5 3 3 2 1 2 2 2 2 3 3 4 13 12 10 16 31 42 32 33 35 40 41 65 50 43 50 54 93 100 100 100 100 100 92 96 99 87
52 42 41 46 19 17 17 16 15 7 6 3 3 2 2 2 2 2 2 3 3 8 13 12 11 24 34 35 34 32 38 39 42 69 60 45 49 69 97 99 100 100 96 99 100 97 98
53 43 54 34 21 18 16 17 17 15 7 6 4 3 2 2 2 2 2 2 2 4 10 13 11 11 28 30 25 23 39 43 48 54 70 58 50 68 81 84 95 99 100 100 99 83 74
50 61 61 61 32 17 16 16 17 16 17 7 8 5 3 2 2 2 2 2 3 7 11 14 12 9 14 20 16 21 31 41 42 43 50 69 54 54 58 69 71 76 78 74 65 60 55
60 70 63 81 48 23 19 16 17 16 19 20 7 9 4 3 2 2 3 5 10 11 13 13 12 10 9 12 13 17 27 31 39 41 43 42 48 43 43 54 58 65 66 64 58 58 56
65 77 66 61 89 39 29 16 18 16 17 18 20 8 9 4 3 2 4 18 28 22 16 12 8 8 8 10 13 18 27 29 33 42 41 37 37 36 41 40 44 51 64 60 59 49 40
80 64 74 63 88 71 34 34 19 16 16 17 19 22 8 9 5 3 3 5 11 16 17 14 11 8 8 9 11 16 20 26 32 42 45 46 48 49 47 48 49 47 49 50 47 42 36
98 62 73 86 64 74 74 45 35 18 16 16 17 19 24 9 10 6 3 4 7 10 13 13 12 10 10 11 12 16 21 28 36 42 43 47 51 52 52 56 54 54 54 53 51 54 60
97 88 72 67 72 70 91 77 61 35 18 16 16 17 19 25 11 14 8 5 5 10 9 14 13 13 12 13 15 18 22 25 32 37 36 39 54 56 54 54 53 54 51 49 48 51 48
100 92 65 64 77 79 70 93 66 60 36 24 15 17 18 19 26 14 13 10 7 5 7 8 16 18 15 14 15 18 23 28 33 38 37 40 45 48 47 50 52 48 48 48 50 56 57
100 94 77 71 66 78 93 75 97 64 52 53 19 15 16 20 20 24 22 11 14 9 7 6 10 17 19 17 16 16 17 21 30 37 33 33 38 38 39 40 39 41 42 45 48 48 50
100 100 100 63 89 54 94 66 59 93 59 58 36 20 15 15 20 20 22 30 16 13 14 8 7 6 11 20 20 18 17 16 17 22 25 29 31 30 34 38 41 41 42 41 39 47 53
96 95 100 84 68 70 47 78 71 69 94 60 58 30 18 14 15 21 22 24 31 29 13 14 12 8 9 7 9 15 20 21 20 21 22 24 26 29 32 33 35 37 38 39 40 31 24
88 99 100 99 64 69 59 61 97 62 91 92 62 60 27 22 16 16 21 22 21 23 37 22 14 17 13 9 11 12 10 10 14 20 22 24 28 29 31 32 32 30 24 21 20 17 16
98 100 100 100 81 55 72 66 69 83 71 90 90 62 52 40 19 15 16 16 20 21 23 27 36 22 16 16 16 12 11 11 12 13 14 15 15 17 17 15 15 16 18 22 26 29 43
100 100 100 100 96 66 67 74 66 57 75 65 98 78 61 54 51 24 19 17 16 18 20 23 21 30 38 22 17 18 15 19 21 22 22 24 26 28 30 33 40 45 52 56 67 78 84
100 100 100 98 92 80 88 81 63 63 58 86 70 70 70 55 80 62 40 22 23 15 18 21 23 24 24 32 37 24 22 24 24 18 17 22 26 35 43 54 56 70 77 88 94 98 98
100 100 100 100 78 76 98 87 87 66 78 85 75 100 83 62 61 77 69 50 26 23 16 22 23 26 27 25 29 37 40 31 25 26 31 35 29 25 30 43 56 62 68 67 68 72 84
100 100 100 100 89 84 98 100 95 82 71 90 75 91 100 72 83 59 74 78 58 40 27 20 20 24 28 30 25 27 32 41 41 38 33 31 31 32 41 41 38 36 33 34 33 44 47
100 100 100 100 100 100 87 87 100 100 100 99 62 88 100 89 100 79 81 74 86 66 45 34 23 16 25 38 31 28 30 33 35 41 45 46 44 43 39 32 34 46 47 48 53 54 51
100 100 99 100 100 100 100 82 100 94 100 100 100 100 94 92 95 98 88 88 77 94 72 54 44 32 21 24 35 34 28 27 29 34 37 44 51 49 47 49 46 48 50 47 42 42 44
100 100 100 100 100 100 100 100 100 93 100 100 100 98 98 93 80 100 100 99 93 88 83 79 55 43 44 22 25 33 31 27 29 30 31 34 35 40 47 51 49 48 50 53 54 50 54
91 96 96 100 100 100 100 100 100 100 85 100 100 100 100 100 74 83 100 100 100 100 99 94 84 58 44 48 41 28 37 41 28 30 32 35 35 35 36 36 35 37 43 48 51 51 51
100 96 94 89 100 100 100 100 100 100 100 100 100 100 100 100 100 97 77 100 100 100 100 100 100 82 82 58 47 57 39 33 41 36 25 30 31 31 33 35 39 39 42 36 35 33 32
100 100 100 100 100 100 100 100 100 100 100 100 100 100 100 100 100 100 100 91 100 98 100 100 100 100 88 98 78 53 59 53 45 40 38 32 32 25 31 33 34 38 43 48 58 56 53
100 100 100 100 100 100 100 100 100 100 100 100 100 100 100 100 100 100 99 100 100 100 98 100 100 100 100 99 100 90 82 67 64 58 50 53 42 45 35 30 50 34 34 38 42 48 52
100 100 100 100 100 100 100 100 96 98 100 100 100 100 100 100 100 100 100 100 100 100 100 100 99 92 100 100 100 100 95 80 90 82 76 72 56 52 48 43 38 44 41 37 38 34 37

GFSGBSN_250_rhum_129.txt.gz
RH
64 45 49 34 28 17 13 10 4 4 2 1 1 2 2 2 3 3 3 3 5 6 6 16 24 31 28 26 34 44 45 37 34 39 59 86 100 99 100 100 93 87 95 95 97 93 91
63 51 39 41 42 20 15 13 10 4 3 3 2 2 2 2 2 3 4 4 5 9 6 6 20 30 32 30 35 33 56 61 44 38 42 49 58 99 100 100 100 100 91 95 100 99 90
46 69 41 37 31 35 17 14 16 13 7 4 2 2 2 2 2 2 3 3 4 11 10 6 16 29 36 33 34 30 37 50 54 50 50 60 61 62 83 86 92 100 100 93 91 87 100
44 54 56 41 30 40 29 14 16 17 9 7 3 2 2 2 2 2 2 3 4 7 11 8 12 29 31 31 32 36 37 39 47 50 50 61 48 44 49 63 73 92 100 100 100 88 91
40 39 51 73 33 29 47 19 16 18 18 8 8 4 3 2 2 2 3 2 3 4 10 10 9 19 30 36 37 40 38 37 44 58 54 52 44 38 37 40 62 74 88 96 96 90 98
58 38 48 84 44 30 32 33 18 16 19 20 9 8 4 3 2 2 2 4 3 3 5 12 9 10 25 30 33 34 38 39 38 37 44 54 68 54 33 32 36 44 49 70 89 93 86
70 42 45 47 78 41 38 34 29 18 16 17 16 10 8 4 4 8 7 5 6 10 7 10 14 10 13 22 30 33 40 42 42 43 40 41 49 58 65 59 52 42 36 40 48 74 83
73 62 44 45 61 63 49 36 38 27 18 15 16 21 10 8 5 6 13 13 16 14 15 15 14 11 10 10 12 17 35 39 42 45 46 43 42 43 42 55 71 63 40 34 38 44 63
76 71 46 58 48 57 59 46 47 30 23 18 16 19 22 10 9 6 5 10 15 14 12 10 11 12 9 8 8 10 19 36 42 45 43 42 42 43 44 44 58 76 74 47 40 42 50
84 62 69 48 58 50 47 53 50 49 29 21 18 16 19 23 13 10 8 6 7 13 11 9 8 9 11 10 9 9 12 22 33 37 38 39 39 40 41 43 50 56 58 66 56 41 35
87 70 73 60 56 60 49 52 53 57 43 30 22 23 16 18 25 17 11 10 6 6 14 11 9 9 10 10 10 9 12 18 28 32 34 36 38 40 41 48 47 39 46 51 53 47 40
100 88 77 80 56 69 59 52 54 57 56 44 32 25 23 15 17 22 21 13 14 8 8 12 15 11 10 10 10 11 13 16 25 29 32 32 32 37 43 52 50 48 51 51 50 51 54
100 97 77 77 74 71 71 67 49 79 53 56 44 38 29 28 18 17 21 25 23 16 12 7 13 17 15 12 11 12 13 15 19 24 26 27 31 36 42 43 46 53 54 48 47 48 49
100 100 98 69 82 74 81 60 66 70 51 75 70 38 46 32 25 23 16 19 22 26 16 17 11 10 16 16 15 12 12 15 18 20 23 27 29 33 38 35 33 39 43 41 41 38 38
100 100 100 87 78 79 78 75 70 74 71 63 78 61 56 45 38 33 27 21 17 20 26 24 18 18 10 9 16 17 15 13 13 17 20 24 28 30 29 28 29 30 32 33 32 29 28
100 90 100 99 84 85 99 66 70 66 85 84 89 82 70 61 47 41 35 30 20 14 17 21 30 24 19 22 12 9 12 18 18 16 16 17 19 20 22 24 26 26 26 27 28 29 29
100 93 94 100 98 90 87 92 79 64 72 90 93 88 86 80 71 55 53 37 34 22 16 16 22 25 33 26 21 23 19 12 11 14 18 19 20 21 22 24 26 28 27 26 24 20 18
100 100 100 90 100 86 76 99 100 79 71 91 92 90 93 79 74 78 70 59 42 40 29 19 14 20 22 25 38 31 20 22 25 24 17 11 10 11 12 12 14 14 15 17 23 32 43
100 100 100 100 100 100 73 98 100 98 86 73 83 84 92 84 67 79 79 74 62 53 44 32 24 16 17 20 23 24 36 38 31 26 29 33 33 26 27 27 27 33 31 34 46 50 57
99 99 100 100 100 100 96 89 100 100 99 91 76 74 72 100 74 85 74 88 85 68 59 47 34 26 21 15 18 20 24 27 35 43 42 36 32 39 43 45 45 37 35 36 42 41 48
100 100 100 100 100 100 97 100 100 97 100 100 97 93 86 85 98 84 78 70 76 99 84 64 51 40 31 23 20 17 19 21 24 27 32 40 44 42 36 33 35 40 45 48 47 49 49
100 100 100 100 100 100 100 100 100 100 96 100 100 100 100 83 83 99 96 86 90 82 98 94 70 65 52 43 28 24 26 23 26 25 27 27 27 35 47 49 46 44 43 45 44 44 44
100 93 100 97 67 62 92 100 100 97 100 81 85 100 97 86 89 100 100 91 93 96 100 98 80 89 77 60 57 42 27 31 28 27 26 28 28 24 29 31 33 40 49 51 49 48 46
100 100 99 92 49 38 42 69 100 84 87 100 100 100 100 100 78 100 100 99 94 98 92 97 89 78 88 91 79 68 51 38 36 36 25 28 27 30 32 28 28 32 33 34 35 36 32
100 100 100 100 96 69 70 66 68 78 100 100 100 100 100 100 95 86 100 100 95 100 100 100 100 84 66 78 88 92 85 66 60 51 42 38 37 24 26 33 34 34 39 45 48 52 45
100 100 100 100 100 100 90 100 90 100 100 100 100 100 100 100 96 94 100 100 100 94 95 100 100 100 85 93 97 96 81 81 78 76 61 48 50 39 40 28 26 30 34 40 42 45 42
100 100 100 100 100 100 100 100 100 100 100 100 100 100 96 99 96 94 99 95 100 100 100 100 100 97 99 97 100 100 100 100 98 97 88 78 41 48 46 48 44 31 32 30 32 38 43
100 100 100 100 100 100 100 100 100 100 100 100 100 100 100 100 100 100 100 90 80 99 100 100 100 100 99 98 100 100 98 100 100 100 100 100 89 52 43 50 58 52 46 50 38 37 41
88 84 100 100 100 100 100 100 100 100 100 100 100 100 100 100 100 100 100 100 100 100 96 95 100 100 100 98 100 100 100 100 100 95 100 100 99 78 68 53 57 67 54 56 55 50 44